<?xml version='1.0' encoding='UTF-8'?><gpx version="1.1" creator="JPX - https://github.com/jenetics/jpx" xmlns="http://www.topografix.com/GPX/1/1"><trk><trkseg><trkpt lat="40.752851" lon="-3.7840689"><ele>921.0000000000001</ele><time>2026-04-04T08:38:32.442Z</time></trkpt><trkpt lat="40.752834" lon="-3.7839821"><ele>921.0</ele><time>2026-04-04T08:39:31.385Z</time></trkpt><trkpt lat="40.7528469" lon="-3.784073"><ele>921.0000000000001</ele><time>2026-04-04T08:41:16.386Z</time></trkpt><trkpt lat="40.7527993" lon="-3.7841303"><ele>921.0000000000001</ele><time>2026-04-04T08:41:47.386Z</time></trkpt><trkpt lat="40.7527323" lon="-3.7840643"><ele>921.0</ele><time>2026-04-04T08:41:51.385Z</time></trkpt><trkpt lat="40.7527062" lon="-3.7839729"><ele>921.0000000000001</ele><time>2026-04-04T08:41:53.386Z</time></trkpt><trkpt lat="40.7526922" lon="-3.783872"><ele>921.0000000000001</ele><time>2026-04-04T08:41:56.386Z</time></trkpt><trkpt lat="40.7526698" lon="-3.7837699"><ele>920.5999999999999</ele><time>2026-04-04T08:41:58.385Z</time></trkpt><trkpt lat="40.7526569" lon="-3.7836453"><ele>920.1999999999999</ele><time>2026-04-04T08:42:00.386Z</time></trkpt><trkpt lat="40.7526331" lon="-3.7834859"><ele>919.8000000000001</ele><time>2026-04-04T08:42:02.386Z</time></trkpt><trkpt lat="40.752615" lon="-3.7833486"><ele>919.4000000000001</ele><time>2026-04-04T08:42:04.385Z</time></trkpt><trkpt lat="40.7525942" lon="-3.783244"><ele>919.0</ele><time>2026-04-04T08:42:06.386Z</time></trkpt><trkpt lat="40.7525765" lon="-3.783154"><ele>919.0</ele><time>2026-04-04T08:42:08.385Z</time></trkpt><trkpt lat="40.7526447" lon="-3.7830469"><ele>919.0000000000001</ele><time>2026-04-04T08:42:10.385Z</time></trkpt><trkpt lat="40.7527642" lon="-3.7830063"><ele>919.0000000000001</ele><time>2026-04-04T08:42:12.386Z</time></trkpt><trkpt lat="40.7528682" lon="-3.78297"><ele>919.0</ele><time>2026-04-04T08:42:14.386Z</time></trkpt><trkpt lat="40.7529625" lon="-3.7829186"><ele>919.0</ele><time>2026-04-04T08:42:16.386Z</time></trkpt><trkpt lat="40.7530308" lon="-3.78292"><ele>919.2</ele><time>2026-04-04T08:42:20.386Z</time></trkpt><trkpt lat="40.7530729" lon="-3.7830423"><ele>919.4000000000001</ele><time>2026-04-04T08:42:23.386Z</time></trkpt><trkpt lat="40.7530759" lon="-3.7831611"><ele>919.6</ele><time>2026-04-04T08:42:25.385Z</time></trkpt><trkpt lat="40.7530859" lon="-3.7832852"><ele>919.8</ele><time>2026-04-04T08:42:27.386Z</time></trkpt><trkpt lat="40.7531102" lon="-3.7834069"><ele>920.0</ele><time>2026-04-04T08:42:29.386Z</time></trkpt><trkpt lat="40.7531397" lon="-3.7835238"><ele>920.2</ele><time>2026-04-04T08:42:32.385Z</time></trkpt><trkpt lat="40.7531661" lon="-3.783639"><ele>920.4</ele><time>2026-04-04T08:42:34.385Z</time></trkpt><trkpt lat="40.7531895" lon="-3.7837401"><ele>920.5999999999999</ele><time>2026-04-04T08:42:37.386Z</time></trkpt><trkpt lat="40.7532174" lon="-3.7838343"><ele>920.8</ele><time>2026-04-04T08:42:40.386Z</time></trkpt><trkpt lat="40.7532529" lon="-3.783965"><ele>921.0</ele><time>2026-04-04T08:42:43.386Z</time></trkpt><trkpt lat="40.7532939" lon="-3.7840895"><ele>921.0</ele><time>2026-04-04T08:42:45.386Z</time></trkpt><trkpt lat="40.7533331" lon="-3.7842134"><ele>921.0</ele><time>2026-04-04T08:42:47.386Z</time></trkpt><trkpt lat="40.7533568" lon="-3.7843191"><ele>921.0</ele><time>2026-04-04T08:42:49.386Z</time></trkpt><trkpt lat="40.7534023" lon="-3.7844362"><ele>921.0</ele><time>2026-04-04T08:42:51.386Z</time></trkpt><trkpt lat="40.7534336" lon="-3.7845341"><ele>921.0</ele><time>2026-04-04T08:42:53.386Z</time></trkpt><trkpt lat="40.7534596" lon="-3.7846173"><ele>921.0</ele><time>2026-04-04T08:42:56.386Z</time></trkpt><trkpt lat="40.7534952" lon="-3.7847157"><ele>921.0</ele><time>2026-04-04T08:42:59.385Z</time></trkpt><trkpt lat="40.753531" lon="-3.7848089"><ele>921.0</ele><time>2026-04-04T08:43:01.386Z</time></trkpt><trkpt lat="40.7535841" lon="-3.7849084"><ele>921.0</ele><time>2026-04-04T08:43:03.386Z</time></trkpt><trkpt lat="40.7536349" lon="-3.7850101"><ele>921.0</ele><time>2026-04-04T08:43:05.385Z</time></trkpt><trkpt lat="40.7536842" lon="-3.7850788"><ele>921.0</ele><time>2026-04-04T08:43:06.386Z</time></trkpt><trkpt lat="40.7537361" lon="-3.7851434"><ele>921.0</ele><time>2026-04-04T08:43:07.386Z</time></trkpt><trkpt lat="40.75378" lon="-3.7852149"><ele>921.0</ele><time>2026-04-04T08:43:08.386Z</time></trkpt><trkpt lat="40.7538272" lon="-3.7853562"><ele>921.0</ele><time>2026-04-04T08:43:10.386Z</time></trkpt><trkpt lat="40.7538239" lon="-3.7854836"><ele>921.0</ele><time>2026-04-04T08:43:12.386Z</time></trkpt><trkpt lat="40.7538237" lon="-3.7856068"><ele>921.0</ele><time>2026-04-04T08:43:14.386Z</time></trkpt><trkpt lat="40.7538702" lon="-3.7856665"><ele>921.0</ele><time>2026-04-04T08:43:15.386Z</time></trkpt><trkpt lat="40.7539264" lon="-3.7857293"><ele>921.0</ele><time>2026-04-04T08:43:16.386Z</time></trkpt><trkpt lat="40.7540234" lon="-3.7858317"><ele>921.0000000000001</ele><time>2026-04-04T08:43:18.386Z</time></trkpt><trkpt lat="40.7540747" lon="-3.7858839"><ele>921.0</ele><time>2026-04-04T08:43:19.385Z</time></trkpt><trkpt lat="40.754128" lon="-3.7859352"><ele>921.0000000000001</ele><time>2026-04-04T08:43:20.386Z</time></trkpt><trkpt lat="40.7541701" lon="-3.7860042"><ele>921.0000000000001</ele><time>2026-04-04T08:43:21.385Z</time></trkpt><trkpt lat="40.75421" lon="-3.7860783"><ele>921.0</ele><time>2026-04-04T08:43:22.386Z</time></trkpt><trkpt lat="40.7542334" lon="-3.7861643"><ele>921.0000000000001</ele><time>2026-04-04T08:43:23.386Z</time></trkpt><trkpt lat="40.7542505" lon="-3.7862486"><ele>921.0000000000001</ele><time>2026-04-04T08:43:24.386Z</time></trkpt><trkpt lat="40.754271" lon="-3.7863361"><ele>921.1666666666666</ele><time>2026-04-04T08:43:25.386Z</time></trkpt><trkpt lat="40.7542872" lon="-3.7864223"><ele>921.3333333333333</ele><time>2026-04-04T08:43:26.386Z</time></trkpt><trkpt lat="40.7543026" lon="-3.786505"><ele>921.5</ele><time>2026-04-04T08:43:27.386Z</time></trkpt><trkpt lat="40.754324" lon="-3.7866515"><ele>921.6666666666666</ele><time>2026-04-04T08:43:29.386Z</time></trkpt><trkpt lat="40.754326" lon="-3.7867692"><ele>921.8333333333333</ele><time>2026-04-04T08:43:31.386Z</time></trkpt><trkpt lat="40.7543383" lon="-3.7868646"><ele>922.0</ele><time>2026-04-04T08:43:33.386Z</time></trkpt><trkpt lat="40.7543695" lon="-3.7869387"><ele>922.0</ele><time>2026-04-04T08:43:35.386Z</time></trkpt><trkpt lat="40.7544531" lon="-3.7869656"><ele>922.0</ele><time>2026-04-04T08:43:37.385Z</time></trkpt><trkpt lat="40.7545434" lon="-3.7869776"><ele>922.0</ele><time>2026-04-04T08:43:39.385Z</time></trkpt><trkpt lat="40.7546499" lon="-3.7869979"><ele>922.0</ele><time>2026-04-04T08:43:41.386Z</time></trkpt><trkpt lat="40.7547548" lon="-3.7870273"><ele>922.0</ele><time>2026-04-04T08:43:43.386Z</time></trkpt><trkpt lat="40.7548413" lon="-3.7870396"><ele>922.0</ele><time>2026-04-04T08:43:45.386Z</time></trkpt><trkpt lat="40.7549353" lon="-3.7870531"><ele>922.0</ele><time>2026-04-04T08:43:48.386Z</time></trkpt><trkpt lat="40.7550431" lon="-3.7870438"><ele>922.0</ele><time>2026-04-04T08:43:50.386Z</time></trkpt><trkpt lat="40.75511" lon="-3.7870383"><ele>922.0</ele><time>2026-04-04T08:43:51.385Z</time></trkpt><trkpt lat="40.7551734" lon="-3.7870398"><ele>922.0</ele><time>2026-04-04T08:43:52.386Z</time></trkpt><trkpt lat="40.7553053" lon="-3.7870215"><ele>922.3333333333333</ele><time>2026-04-04T08:43:54.385Z</time></trkpt><trkpt lat="40.7553687" lon="-3.7870071"><ele>922.6666666666666</ele><time>2026-04-04T08:43:55.386Z</time></trkpt><trkpt lat="40.7554395" lon="-3.786984"><ele>923.0</ele><time>2026-04-04T08:43:56.386Z</time></trkpt><trkpt lat="40.7555119" lon="-3.7869634"><ele>923.3333333333333</ele><time>2026-04-04T08:43:57.386Z</time></trkpt><trkpt lat="40.7555909" lon="-3.786965"><ele>923.6666666666666</ele><time>2026-04-04T08:43:58.385Z</time></trkpt><trkpt lat="40.7556741" lon="-3.7869599"><ele>924.0</ele><time>2026-04-04T08:43:59.385Z</time></trkpt><trkpt lat="40.7557613" lon="-3.786939"><ele>924.0</ele><time>2026-04-04T08:44:00.386Z</time></trkpt><trkpt lat="40.755863" lon="-3.7869019"><ele>924.0000000000001</ele><time>2026-04-04T08:44:01.386Z</time></trkpt><trkpt lat="40.7559715" lon="-3.7868487"><ele>924.0000000000001</ele><time>2026-04-04T08:44:02.386Z</time></trkpt><trkpt lat="40.7560809" lon="-3.7868005"><ele>924.0</ele><time>2026-04-04T08:44:03.385Z</time></trkpt><trkpt lat="40.7561852" lon="-3.7867642"><ele>924.0</ele><time>2026-04-04T08:44:04.385Z</time></trkpt><trkpt lat="40.7562982" lon="-3.7867529"><ele>924.6</ele><time>2026-04-04T08:44:05.386Z</time></trkpt><trkpt lat="40.7564105" lon="-3.7867558"><ele>925.2</ele><time>2026-04-04T08:44:06.386Z</time></trkpt><trkpt lat="40.7565198" lon="-3.7867656"><ele>925.8000000000001</ele><time>2026-04-04T08:44:07.386Z</time></trkpt><trkpt lat="40.7566102" lon="-3.7867724"><ele>926.4000000000001</ele><time>2026-04-04T08:44:08.385Z</time></trkpt><trkpt lat="40.7567028" lon="-3.7867724"><ele>927.0</ele><time>2026-04-04T08:44:09.386Z</time></trkpt><trkpt lat="40.7568013" lon="-3.7867758"><ele>927.0</ele><time>2026-04-04T08:44:10.385Z</time></trkpt><trkpt lat="40.7569036" lon="-3.7867786"><ele>927.0</ele><time>2026-04-04T08:44:11.386Z</time></trkpt><trkpt lat="40.7570104" lon="-3.7867827"><ele>927.0</ele><time>2026-04-04T08:44:12.385Z</time></trkpt><trkpt lat="40.7571206" lon="-3.7867893"><ele>927.0</ele><time>2026-04-04T08:44:13.386Z</time></trkpt><trkpt lat="40.757217" lon="-3.7867969"><ele>927.0</ele><time>2026-04-04T08:44:14.386Z</time></trkpt><trkpt lat="40.7573048" lon="-3.7867999"><ele>927.0</ele><time>2026-04-04T08:44:15.385Z</time></trkpt><trkpt lat="40.7573897" lon="-3.7867797"><ele>927.0</ele><time>2026-04-04T08:44:16.385Z</time></trkpt><trkpt lat="40.7574694" lon="-3.7867308"><ele>927.0</ele><time>2026-04-04T08:44:17.385Z</time></trkpt><trkpt lat="40.7575398" lon="-3.786675"><ele>927.0</ele><time>2026-04-04T08:44:18.385Z</time></trkpt><trkpt lat="40.7576243" lon="-3.7866365"><ele>927.0</ele><time>2026-04-04T08:44:19.385Z</time></trkpt><trkpt lat="40.7577102" lon="-3.7866428"><ele>927.0</ele><time>2026-04-04T08:44:20.385Z</time></trkpt><trkpt lat="40.7578" lon="-3.7866857"><ele>927.3333333333334</ele><time>2026-04-04T08:44:21.386Z</time></trkpt><trkpt lat="40.7578649" lon="-3.7867492"><ele>927.6666666666667</ele><time>2026-04-04T08:44:22.386Z</time></trkpt><trkpt lat="40.7579113" lon="-3.7868268"><ele>928.0</ele><time>2026-04-04T08:44:23.386Z</time></trkpt><trkpt lat="40.7579472" lon="-3.7869206"><ele>928.3333333333334</ele><time>2026-04-04T08:44:24.386Z</time></trkpt><trkpt lat="40.7579448" lon="-3.7870236"><ele>928.6666666666667</ele><time>2026-04-04T08:44:25.386Z</time></trkpt><trkpt lat="40.7579025" lon="-3.787117"><ele>929.0</ele><time>2026-04-04T08:44:26.385Z</time></trkpt><trkpt lat="40.7578476" lon="-3.7871972"><ele>929.0000000000001</ele><time>2026-04-04T08:44:27.385Z</time></trkpt><trkpt lat="40.7577813" lon="-3.7872707"><ele>929.0</ele><time>2026-04-04T08:44:28.386Z</time></trkpt><trkpt lat="40.7577339" lon="-3.7873533"><ele>929.0</ele><time>2026-04-04T08:44:29.386Z</time></trkpt><trkpt lat="40.7576938" lon="-3.7874321"><ele>929.0</ele><time>2026-04-04T08:44:30.385Z</time></trkpt><trkpt lat="40.7576833" lon="-3.7875145"><ele>929.0000000000001</ele><time>2026-04-04T08:44:31.386Z</time></trkpt><trkpt lat="40.7577243" lon="-3.7876575"><ele>929.0</ele><time>2026-04-04T08:44:33.386Z</time></trkpt><trkpt lat="40.757762" lon="-3.7877391"><ele>929.0</ele><time>2026-04-04T08:44:34.386Z</time></trkpt><trkpt lat="40.757808" lon="-3.7878265"><ele>929.0000000000001</ele><time>2026-04-04T08:44:35.386Z</time></trkpt><trkpt lat="40.7578531" lon="-3.7879308"><ele>929.0000000000001</ele><time>2026-04-04T08:44:36.386Z</time></trkpt><trkpt lat="40.7578903" lon="-3.7880422"><ele>929.0</ele><time>2026-04-04T08:44:37.385Z</time></trkpt><trkpt lat="40.7579213" lon="-3.788166"><ele>929.0</ele><time>2026-04-04T08:44:38.386Z</time></trkpt><trkpt lat="40.7579474" lon="-3.7883069"><ele>929.0</ele><time>2026-04-04T08:44:39.385Z</time></trkpt><trkpt lat="40.7579744" lon="-3.7884571"><ele>929.0</ele><time>2026-04-04T08:44:40.386Z</time></trkpt><trkpt lat="40.7579981" lon="-3.7886071"><ele>929.0</ele><time>2026-04-04T08:44:41.385Z</time></trkpt><trkpt lat="40.7580181" lon="-3.788756"><ele>929.0</ele><time>2026-04-04T08:44:42.386Z</time></trkpt><trkpt lat="40.7580301" lon="-3.7888971"><ele>928.75</ele><time>2026-04-04T08:44:43.386Z</time></trkpt><trkpt lat="40.7580477" lon="-3.7890344"><ele>928.5</ele><time>2026-04-04T08:44:44.386Z</time></trkpt><trkpt lat="40.7580717" lon="-3.7891771"><ele>928.25</ele><time>2026-04-04T08:44:45.386Z</time></trkpt><trkpt lat="40.7581035" lon="-3.7893236"><ele>928.0</ele><time>2026-04-04T08:44:46.385Z</time></trkpt><trkpt lat="40.7581584" lon="-3.7894627"><ele>927.5</ele><time>2026-04-04T08:44:47.385Z</time></trkpt><trkpt lat="40.7582214" lon="-3.7896086"><ele>927.0</ele><time>2026-04-04T08:44:48.386Z</time></trkpt><trkpt lat="40.7582823" lon="-3.7897481"><ele>926.5</ele><time>2026-04-04T08:44:49.385Z</time></trkpt><trkpt lat="40.758333" lon="-3.7898815"><ele>926.0</ele><time>2026-04-04T08:44:50.385Z</time></trkpt><trkpt lat="40.7583724" lon="-3.7900062"><ele>926.0000000000001</ele><time>2026-04-04T08:44:51.386Z</time></trkpt><trkpt lat="40.7583985" lon="-3.7901286"><ele>926.0</ele><time>2026-04-04T08:44:52.386Z</time></trkpt><trkpt lat="40.7584282" lon="-3.790243"><ele>926.0</ele><time>2026-04-04T08:44:53.386Z</time></trkpt><trkpt lat="40.7584487" lon="-3.7903433"><ele>926.0</ele><time>2026-04-04T08:44:54.385Z</time></trkpt><trkpt lat="40.758473" lon="-3.7904278"><ele>926.0000000000001</ele><time>2026-04-04T08:44:55.385Z</time></trkpt><trkpt lat="40.7584928" lon="-3.7905109"><ele>926.0</ele><time>2026-04-04T08:44:56.386Z</time></trkpt><trkpt lat="40.7585467" lon="-3.7906278"><ele>926.3333333333334</ele><time>2026-04-04T08:44:58.386Z</time></trkpt><trkpt lat="40.7586053" lon="-3.7906707"><ele>926.6666666666667</ele><time>2026-04-04T08:44:59.385Z</time></trkpt><trkpt lat="40.7586762" lon="-3.7907034"><ele>927.0</ele><time>2026-04-04T08:45:00.386Z</time></trkpt><trkpt lat="40.758755" lon="-3.7907226"><ele>927.3333333333333</ele><time>2026-04-04T08:45:01.385Z</time></trkpt><trkpt lat="40.7588351" lon="-3.7907369"><ele>927.6666666666666</ele><time>2026-04-04T08:45:02.385Z</time></trkpt><trkpt lat="40.7589233" lon="-3.7907415"><ele>928.0</ele><time>2026-04-04T08:45:03.386Z</time></trkpt><trkpt lat="40.7590017" lon="-3.7907396"><ele>927.9999999999999</ele><time>2026-04-04T08:45:04.385Z</time></trkpt><trkpt lat="40.7590702" lon="-3.790745"><ele>928.0</ele><time>2026-04-04T08:45:05.385Z</time></trkpt><trkpt lat="40.7591345" lon="-3.7907529"><ele>928.0</ele><time>2026-04-04T08:45:06.385Z</time></trkpt><trkpt lat="40.759246" lon="-3.7907768"><ele>928.0</ele><time>2026-04-04T08:45:08.386Z</time></trkpt><trkpt lat="40.75934" lon="-3.7907633"><ele>927.9999999999999</ele><time>2026-04-04T08:45:10.386Z</time></trkpt><trkpt lat="40.759441" lon="-3.7907322"><ele>928.0</ele><time>2026-04-04T08:45:12.385Z</time></trkpt><trkpt lat="40.7595022" lon="-3.7907115"><ele>928.2857142857144</ele><time>2026-04-04T08:45:13.386Z</time></trkpt><trkpt lat="40.7595697" lon="-3.7906952"><ele>928.5714285714287</ele><time>2026-04-04T08:45:14.386Z</time></trkpt><trkpt lat="40.7596419" lon="-3.7906757"><ele>928.8571428571429</ele><time>2026-04-04T08:45:15.386Z</time></trkpt><trkpt lat="40.7597136" lon="-3.7906674"><ele>929.1428571428572</ele><time>2026-04-04T08:45:16.386Z</time></trkpt><trkpt lat="40.7597896" lon="-3.7906545"><ele>929.4285714285716</ele><time>2026-04-04T08:45:17.386Z</time></trkpt><trkpt lat="40.7598636" lon="-3.7906297"><ele>929.7142857142857</ele><time>2026-04-04T08:45:18.385Z</time></trkpt><trkpt lat="40.7599311" lon="-3.7906115"><ele>930.0</ele><time>2026-04-04T08:45:19.386Z</time></trkpt><trkpt lat="40.7600222" lon="-3.7906006"><ele>930.0</ele><time>2026-04-04T08:45:21.386Z</time></trkpt><trkpt lat="40.7601314" lon="-3.7905909"><ele>930.0</ele><time>2026-04-04T08:45:23.386Z</time></trkpt><trkpt lat="40.7601986" lon="-3.790575"><ele>930.0</ele><time>2026-04-04T08:45:24.386Z</time></trkpt><trkpt lat="40.7602675" lon="-3.7905636"><ele>930.0</ele><time>2026-04-04T08:45:25.386Z</time></trkpt><trkpt lat="40.7603409" lon="-3.7905497"><ele>930.0</ele><time>2026-04-04T08:45:26.386Z</time></trkpt><trkpt lat="40.7604139" lon="-3.7905368"><ele>930.0</ele><time>2026-04-04T08:45:27.386Z</time></trkpt><trkpt lat="40.7604851" lon="-3.7905275"><ele>930.3333333333334</ele><time>2026-04-04T08:45:28.386Z</time></trkpt><trkpt lat="40.7605589" lon="-3.7905098"><ele>930.6666666666667</ele><time>2026-04-04T08:45:29.385Z</time></trkpt><trkpt lat="40.7606338" lon="-3.7904943"><ele>931.0</ele><time>2026-04-04T08:45:30.385Z</time></trkpt><trkpt lat="40.7607132" lon="-3.7904785"><ele>931.3333333333334</ele><time>2026-04-04T08:45:31.386Z</time></trkpt><trkpt lat="40.7608324" lon="-3.7904205"><ele>931.6666666666667</ele><time>2026-04-04T08:45:33.386Z</time></trkpt><trkpt lat="40.7608908" lon="-3.7903835"><ele>932.0</ele><time>2026-04-04T08:45:34.386Z</time></trkpt><trkpt lat="40.7609539" lon="-3.7903166"><ele>932.0000000000001</ele><time>2026-04-04T08:45:36.386Z</time></trkpt><trkpt lat="40.7610163" lon="-3.7902597"><ele>932.0</ele><time>2026-04-04T08:45:40.386Z</time></trkpt><trkpt lat="40.7610811" lon="-3.7902384"><ele>932.0</ele><time>2026-04-04T08:45:44.386Z</time></trkpt><trkpt lat="40.7611477" lon="-3.7901985"><ele>932.0</ele><time>2026-04-04T08:45:46.386Z</time></trkpt><trkpt lat="40.7612455" lon="-3.7901478"><ele>932.0000000000001</ele><time>2026-04-04T08:45:48.386Z</time></trkpt><trkpt lat="40.7613431" lon="-3.7900848"><ele>932.0</ele><time>2026-04-04T08:45:50.386Z</time></trkpt><trkpt lat="40.7614646" lon="-3.7900375"><ele>932.5000000000001</ele><time>2026-04-04T08:45:52.385Z</time></trkpt><trkpt lat="40.761531" lon="-3.7899952"><ele>933.0</ele><time>2026-04-04T08:45:53.386Z</time></trkpt><trkpt lat="40.7615979" lon="-3.7899612"><ele>933.5</ele><time>2026-04-04T08:45:54.385Z</time></trkpt><trkpt lat="40.7616731" lon="-3.7899286"><ele>934.0</ele><time>2026-04-04T08:45:55.386Z</time></trkpt><trkpt lat="40.7617643" lon="-3.7898827"><ele>934.5000000000001</ele><time>2026-04-04T08:45:56.386Z</time></trkpt><trkpt lat="40.7618599" lon="-3.7898172"><ele>935.0</ele><time>2026-04-04T08:45:57.386Z</time></trkpt><trkpt lat="40.7619658" lon="-3.7897504"><ele>935.0</ele><time>2026-04-04T08:45:58.386Z</time></trkpt><trkpt lat="40.7620697" lon="-3.7896936"><ele>935.0</ele><time>2026-04-04T08:45:59.386Z</time></trkpt><trkpt lat="40.762172" lon="-3.7896228"><ele>935.0</ele><time>2026-04-04T08:46:00.386Z</time></trkpt><trkpt lat="40.7622769" lon="-3.7895431"><ele>935.0</ele><time>2026-04-04T08:46:01.385Z</time></trkpt><trkpt lat="40.7623888" lon="-3.7894889"><ele>935.0</ele><time>2026-04-04T08:46:02.386Z</time></trkpt><trkpt lat="40.7624999" lon="-3.7894571"><ele>935.0</ele><time>2026-04-04T08:46:03.386Z</time></trkpt><trkpt lat="40.7626058" lon="-3.7894265"><ele>935.0</ele><time>2026-04-04T08:46:04.386Z</time></trkpt><trkpt lat="40.762704" lon="-3.789376"><ele>935.0</ele><time>2026-04-04T08:46:05.385Z</time></trkpt><trkpt lat="40.7627864" lon="-3.7893297"><ele>935.0</ele><time>2026-04-04T08:46:06.386Z</time></trkpt><trkpt lat="40.7628578" lon="-3.7892897"><ele>935.5000000000001</ele><time>2026-04-04T08:46:07.386Z</time></trkpt><trkpt lat="40.7629189" lon="-3.7892464"><ele>936.0</ele><time>2026-04-04T08:46:08.386Z</time></trkpt><trkpt lat="40.7629821" lon="-3.7891987"><ele>936.5</ele><time>2026-04-04T08:46:09.386Z</time></trkpt><trkpt lat="40.7630491" lon="-3.7891461"><ele>937.0</ele><time>2026-04-04T08:46:10.386Z</time></trkpt><trkpt lat="40.7631321" lon="-3.7891007"><ele>937.5000000000001</ele><time>2026-04-04T08:46:11.386Z</time></trkpt><trkpt lat="40.7632236" lon="-3.7890542"><ele>938.0</ele><time>2026-04-04T08:46:12.386Z</time></trkpt><trkpt lat="40.76332" lon="-3.7890052"><ele>938.0</ele><time>2026-04-04T08:46:13.385Z</time></trkpt><trkpt lat="40.7634165" lon="-3.7889595"><ele>938.0</ele><time>2026-04-04T08:46:14.386Z</time></trkpt><trkpt lat="40.7635168" lon="-3.7889054"><ele>938.0</ele><time>2026-04-04T08:46:15.386Z</time></trkpt><trkpt lat="40.763617" lon="-3.7888361"><ele>938.0</ele><time>2026-04-04T08:46:16.386Z</time></trkpt><trkpt lat="40.7637133" lon="-3.78877"><ele>938.0</ele><time>2026-04-04T08:46:17.386Z</time></trkpt><trkpt lat="40.7638099" lon="-3.7887033"><ele>939.0</ele><time>2026-04-04T08:46:18.386Z</time></trkpt><trkpt lat="40.7639034" lon="-3.7886314"><ele>940.0</ele><time>2026-04-04T08:46:19.386Z</time></trkpt><trkpt lat="40.7639976" lon="-3.7885652"><ele>941.0</ele><time>2026-04-04T08:46:20.386Z</time></trkpt><trkpt lat="40.7640949" lon="-3.7884969"><ele>942.0</ele><time>2026-04-04T08:46:21.386Z</time></trkpt><trkpt lat="40.764188" lon="-3.7884313"><ele>943.0</ele><time>2026-04-04T08:46:22.385Z</time></trkpt><trkpt lat="40.7642759" lon="-3.7883513"><ele>943.0</ele><time>2026-04-04T08:46:23.386Z</time></trkpt><trkpt lat="40.7643559" lon="-3.7882619"><ele>943.0</ele><time>2026-04-04T08:46:24.386Z</time></trkpt><trkpt lat="40.7644367" lon="-3.7881674"><ele>943.0</ele><time>2026-04-04T08:46:25.386Z</time></trkpt><trkpt lat="40.7645193" lon="-3.7880878"><ele>943.0</ele><time>2026-04-04T08:46:26.386Z</time></trkpt><trkpt lat="40.7646068" lon="-3.7880366"><ele>943.0</ele><time>2026-04-04T08:46:27.386Z</time></trkpt><trkpt lat="40.7646882" lon="-3.7879944"><ele>943.4999999999999</ele><time>2026-04-04T08:46:28.386Z</time></trkpt><trkpt lat="40.7647659" lon="-3.7879553"><ele>944.0</ele><time>2026-04-04T08:46:29.385Z</time></trkpt><trkpt lat="40.7648461" lon="-3.7879213"><ele>944.5</ele><time>2026-04-04T08:46:30.385Z</time></trkpt><trkpt lat="40.7649256" lon="-3.7878778"><ele>945.0</ele><time>2026-04-04T08:46:31.385Z</time></trkpt><trkpt lat="40.7650087" lon="-3.7878378"><ele>945.4999999999999</ele><time>2026-04-04T08:46:32.386Z</time></trkpt><trkpt lat="40.7650934" lon="-3.7877906"><ele>946.0</ele><time>2026-04-04T08:46:33.385Z</time></trkpt><trkpt lat="40.7651901" lon="-3.7877466"><ele>946.1999999999999</ele><time>2026-04-04T08:46:34.386Z</time></trkpt><trkpt lat="40.7652867" lon="-3.7877064"><ele>946.3999999999999</ele><time>2026-04-04T08:46:35.385Z</time></trkpt><trkpt lat="40.7653853" lon="-3.7876663"><ele>946.6</ele><time>2026-04-04T08:46:36.386Z</time></trkpt><trkpt lat="40.7654844" lon="-3.7876358"><ele>946.8</ele><time>2026-04-04T08:46:37.386Z</time></trkpt><trkpt lat="40.7655798" lon="-3.7876124"><ele>947.0</ele><time>2026-04-04T08:46:38.385Z</time></trkpt><trkpt lat="40.7656738" lon="-3.7875926"><ele>947.0</ele><time>2026-04-04T08:46:39.385Z</time></trkpt><trkpt lat="40.765769" lon="-3.7875666"><ele>947.0</ele><time>2026-04-04T08:46:40.386Z</time></trkpt><trkpt lat="40.7658639" lon="-3.7875375"><ele>947.0</ele><time>2026-04-04T08:46:41.386Z</time></trkpt><trkpt lat="40.7659575" lon="-3.7875101"><ele>947.0</ele><time>2026-04-04T08:46:42.386Z</time></trkpt><trkpt lat="40.7660456" lon="-3.7874804"><ele>947.0</ele><time>2026-04-04T08:46:43.386Z</time></trkpt><trkpt lat="40.7661412" lon="-3.7874493"><ele>947.8</ele><time>2026-04-04T08:46:44.386Z</time></trkpt><trkpt lat="40.7662389" lon="-3.78742"><ele>948.6</ele><time>2026-04-04T08:46:45.386Z</time></trkpt><trkpt lat="40.7663402" lon="-3.7874017"><ele>949.3999999999999</ele><time>2026-04-04T08:46:46.386Z</time></trkpt><trkpt lat="40.7664391" lon="-3.7873887"><ele>950.1999999999999</ele><time>2026-04-04T08:46:47.385Z</time></trkpt><trkpt lat="40.7665421" lon="-3.787384"><ele>951.0</ele><time>2026-04-04T08:46:48.386Z</time></trkpt><trkpt lat="40.7666444" lon="-3.787383"><ele>951.0</ele><time>2026-04-04T08:46:49.386Z</time></trkpt><trkpt lat="40.7667402" lon="-3.7873792"><ele>950.9999999999999</ele><time>2026-04-04T08:46:50.386Z</time></trkpt><trkpt lat="40.7668322" lon="-3.7873686"><ele>950.9999999999999</ele><time>2026-04-04T08:46:51.386Z</time></trkpt><trkpt lat="40.7669222" lon="-3.7873601"><ele>951.0</ele><time>2026-04-04T08:46:52.386Z</time></trkpt><trkpt lat="40.7670109" lon="-3.7873417"><ele>951.0</ele><time>2026-04-04T08:46:53.385Z</time></trkpt><trkpt lat="40.7670981" lon="-3.7873178"><ele>951.4</ele><time>2026-04-04T08:46:54.385Z</time></trkpt><trkpt lat="40.7671941" lon="-3.7872946"><ele>951.8</ele><time>2026-04-04T08:46:55.386Z</time></trkpt><trkpt lat="40.767294" lon="-3.7872681"><ele>952.1999999999999</ele><time>2026-04-04T08:46:56.386Z</time></trkpt><trkpt lat="40.7673997" lon="-3.7872351"><ele>952.5999999999999</ele><time>2026-04-04T08:46:57.386Z</time></trkpt><trkpt lat="40.7675092" lon="-3.7872047"><ele>953.0</ele><time>2026-04-04T08:46:58.386Z</time></trkpt><trkpt lat="40.7676105" lon="-3.7871608"><ele>953.5999999999999</ele><time>2026-04-04T08:46:59.386Z</time></trkpt><trkpt lat="40.767703" lon="-3.7871197"><ele>954.1999999999999</ele><time>2026-04-04T08:47:00.386Z</time></trkpt><trkpt lat="40.7677952" lon="-3.7870722"><ele>954.8</ele><time>2026-04-04T08:47:01.385Z</time></trkpt><trkpt lat="40.767889" lon="-3.7870244"><ele>955.4</ele><time>2026-04-04T08:47:02.386Z</time></trkpt><trkpt lat="40.7679876" lon="-3.7869727"><ele>956.0</ele><time>2026-04-04T08:47:03.386Z</time></trkpt><trkpt lat="40.7680766" lon="-3.7869255"><ele>956.0</ele><time>2026-04-04T08:47:04.386Z</time></trkpt><trkpt lat="40.7681628" lon="-3.7868801"><ele>955.9999999999999</ele><time>2026-04-04T08:47:05.386Z</time></trkpt><trkpt lat="40.7682562" lon="-3.7868337"><ele>955.9999999999999</ele><time>2026-04-04T08:47:06.386Z</time></trkpt><trkpt lat="40.7683516" lon="-3.7867924"><ele>956.0</ele><time>2026-04-04T08:47:07.386Z</time></trkpt><trkpt lat="40.7684476" lon="-3.7867641"><ele>956.0</ele><time>2026-04-04T08:47:08.386Z</time></trkpt><trkpt lat="40.7685471" lon="-3.7867383"><ele>957.1999999999999</ele><time>2026-04-04T08:47:09.385Z</time></trkpt><trkpt lat="40.7686529" lon="-3.7867154"><ele>958.3999999999999</ele><time>2026-04-04T08:47:10.385Z</time></trkpt><trkpt lat="40.7687522" lon="-3.7866998"><ele>959.6</ele><time>2026-04-04T08:47:11.386Z</time></trkpt><trkpt lat="40.7688424" lon="-3.7866823"><ele>960.8</ele><time>2026-04-04T08:47:12.386Z</time></trkpt><trkpt lat="40.7689074" lon="-3.786661"><ele>962.0</ele><time>2026-04-04T08:47:13.385Z</time></trkpt><trkpt lat="40.7689958" lon="-3.7866256"><ele>962.0000000000001</ele><time>2026-04-04T08:47:15.386Z</time></trkpt><trkpt lat="40.7690545" lon="-3.7865575"><ele>962.0</ele><time>2026-04-04T08:47:17.386Z</time></trkpt><trkpt lat="40.7691475" lon="-3.7864809"><ele>962.0</ele><time>2026-04-04T08:47:19.385Z</time></trkpt><trkpt lat="40.7692046" lon="-3.7864281"><ele>962.0</ele><time>2026-04-04T08:47:20.386Z</time></trkpt><trkpt lat="40.7692527" lon="-3.7863653"><ele>962.0000000000001</ele><time>2026-04-04T08:47:21.385Z</time></trkpt><trkpt lat="40.769292" lon="-3.7862787"><ele>962.0</ele><time>2026-04-04T08:47:22.385Z</time></trkpt><trkpt lat="40.7693112" lon="-3.78618"><ele>962.0</ele><time>2026-04-04T08:47:23.386Z</time></trkpt><trkpt lat="40.7693327" lon="-3.7860663"><ele>962.0</ele><time>2026-04-04T08:47:24.386Z</time></trkpt><trkpt lat="40.7693528" lon="-3.7859389"><ele>962.0</ele><time>2026-04-04T08:47:25.386Z</time></trkpt><trkpt lat="40.7693645" lon="-3.7858078"><ele>962.0</ele><time>2026-04-04T08:47:26.386Z</time></trkpt><trkpt lat="40.76938" lon="-3.7856822"><ele>962.0</ele><time>2026-04-04T08:47:27.385Z</time></trkpt><trkpt lat="40.7693882" lon="-3.7855621"><ele>963.0000000000001</ele><time>2026-04-04T08:47:28.385Z</time></trkpt><trkpt lat="40.7693899" lon="-3.7854438"><ele>964.0</ele><time>2026-04-04T08:47:29.386Z</time></trkpt><trkpt lat="40.7693894" lon="-3.7853256"><ele>965.0</ele><time>2026-04-04T08:47:30.386Z</time></trkpt><trkpt lat="40.7693945" lon="-3.7852139"><ele>966.0</ele><time>2026-04-04T08:47:31.386Z</time></trkpt><trkpt lat="40.7694055" lon="-3.7851126"><ele>967.0000000000001</ele><time>2026-04-04T08:47:32.385Z</time></trkpt><trkpt lat="40.7694237" lon="-3.7850138"><ele>968.0</ele><time>2026-04-04T08:47:33.386Z</time></trkpt><trkpt lat="40.7694473" lon="-3.784906"><ele>968.2</ele><time>2026-04-04T08:47:34.386Z</time></trkpt><trkpt lat="40.7694689" lon="-3.7847876"><ele>968.4</ele><time>2026-04-04T08:47:35.386Z</time></trkpt><trkpt lat="40.7694921" lon="-3.7846621"><ele>968.6000000000001</ele><time>2026-04-04T08:47:36.385Z</time></trkpt><trkpt lat="40.7695061" lon="-3.7845289"><ele>968.8000000000001</ele><time>2026-04-04T08:47:37.386Z</time></trkpt><trkpt lat="40.7695167" lon="-3.7844004"><ele>969.0</ele><time>2026-04-04T08:47:38.386Z</time></trkpt><trkpt lat="40.7695219" lon="-3.784266"><ele>969.0</ele><time>2026-04-04T08:47:39.386Z</time></trkpt><trkpt lat="40.7695279" lon="-3.7841328"><ele>969.0000000000001</ele><time>2026-04-04T08:47:40.386Z</time></trkpt><trkpt lat="40.7695308" lon="-3.7839928"><ele>969.0000000000001</ele><time>2026-04-04T08:47:41.385Z</time></trkpt><trkpt lat="40.7695296" lon="-3.7838555"><ele>969.0</ele><time>2026-04-04T08:47:42.386Z</time></trkpt><trkpt lat="40.7695183" lon="-3.7837221"><ele>969.0</ele><time>2026-04-04T08:47:43.385Z</time></trkpt><trkpt lat="40.7695053" lon="-3.7835929"><ele>968.4000000000001</ele><time>2026-04-04T08:47:44.386Z</time></trkpt><trkpt lat="40.7694814" lon="-3.7834706"><ele>967.8000000000001</ele><time>2026-04-04T08:47:45.386Z</time></trkpt><trkpt lat="40.7694484" lon="-3.7833572"><ele>967.1999999999999</ele><time>2026-04-04T08:47:46.386Z</time></trkpt><trkpt lat="40.7694114" lon="-3.783236"><ele>966.5999999999999</ele><time>2026-04-04T08:47:47.386Z</time></trkpt><trkpt lat="40.7693635" lon="-3.7831228"><ele>966.0</ele><time>2026-04-04T08:47:48.386Z</time></trkpt><trkpt lat="40.769316" lon="-3.7830032"><ele>964.4</ele><time>2026-04-04T08:47:49.385Z</time></trkpt><trkpt lat="40.7692795" lon="-3.7828864"><ele>962.8</ele><time>2026-04-04T08:47:50.385Z</time></trkpt><trkpt lat="40.7692511" lon="-3.7827699"><ele>961.1999999999999</ele><time>2026-04-04T08:47:51.386Z</time></trkpt><trkpt lat="40.7692323" lon="-3.7826475"><ele>959.5999999999999</ele><time>2026-04-04T08:47:52.386Z</time></trkpt><trkpt lat="40.7692177" lon="-3.7825137"><ele>958.0</ele><time>2026-04-04T08:47:53.385Z</time></trkpt><trkpt lat="40.7692038" lon="-3.7823798"><ele>957.8</ele><time>2026-04-04T08:47:54.386Z</time></trkpt><trkpt lat="40.7691806" lon="-3.7822523"><ele>957.5999999999999</ele><time>2026-04-04T08:47:55.385Z</time></trkpt><trkpt lat="40.7691474" lon="-3.7821393"><ele>957.4000000000001</ele><time>2026-04-04T08:47:56.386Z</time></trkpt><trkpt lat="40.769103" lon="-3.7820255"><ele>957.2</ele><time>2026-04-04T08:47:57.386Z</time></trkpt><trkpt lat="40.769059" lon="-3.7819041"><ele>957.0</ele><time>2026-04-04T08:47:58.386Z</time></trkpt><trkpt lat="40.7690195" lon="-3.7817766"><ele>956.4000000000001</ele><time>2026-04-04T08:47:59.386Z</time></trkpt><trkpt lat="40.7689824" lon="-3.7816524"><ele>955.8000000000001</ele><time>2026-04-04T08:48:00.386Z</time></trkpt><trkpt lat="40.7689497" lon="-3.7815244"><ele>955.2</ele><time>2026-04-04T08:48:01.386Z</time></trkpt><trkpt lat="40.7689296" lon="-3.7813955"><ele>954.6</ele><time>2026-04-04T08:48:02.386Z</time></trkpt><trkpt lat="40.7689092" lon="-3.781281"><ele>954.0</ele><time>2026-04-04T08:48:03.386Z</time></trkpt><trkpt lat="40.7688935" lon="-3.7811774"><ele>954.0</ele><time>2026-04-04T08:48:04.385Z</time></trkpt><trkpt lat="40.7688756" lon="-3.781081"><ele>954.0</ele><time>2026-04-04T08:48:05.386Z</time></trkpt><trkpt lat="40.7688589" lon="-3.7809974"><ele>954.0</ele><time>2026-04-04T08:48:06.386Z</time></trkpt><trkpt lat="40.768852" lon="-3.7808853"><ele>954.0</ele><time>2026-04-04T08:48:08.386Z</time></trkpt><trkpt lat="40.768922" lon="-3.7808231"><ele>954.0</ele><time>2026-04-04T08:48:10.386Z</time></trkpt><trkpt lat="40.7690203" lon="-3.7807579"><ele>954.0</ele><time>2026-04-04T08:48:12.386Z</time></trkpt><trkpt lat="40.7690768" lon="-3.7807189"><ele>953.8571428571428</ele><time>2026-04-04T08:48:13.386Z</time></trkpt><trkpt lat="40.7691428" lon="-3.7806767"><ele>953.7142857142856</ele><time>2026-04-04T08:48:14.386Z</time></trkpt><trkpt lat="40.7692132" lon="-3.7806295"><ele>953.5714285714286</ele><time>2026-04-04T08:48:15.386Z</time></trkpt><trkpt lat="40.7692838" lon="-3.7805796"><ele>953.4285714285713</ele><time>2026-04-04T08:48:16.386Z</time></trkpt><trkpt lat="40.7693448" lon="-3.7805414"><ele>953.2857142857142</ele><time>2026-04-04T08:48:17.386Z</time></trkpt><trkpt lat="40.769415" lon="-3.7805062"><ele>953.1428571428571</ele><time>2026-04-04T08:48:18.386Z</time></trkpt><trkpt lat="40.7694757" lon="-3.7804789"><ele>953.0</ele><time>2026-04-04T08:48:19.386Z</time></trkpt><trkpt lat="40.7696062" lon="-3.780462"><ele>954.5000000000001</ele><time>2026-04-04T08:48:21.385Z</time></trkpt><trkpt lat="40.7696775" lon="-3.7804735"><ele>956.0</ele><time>2026-04-04T08:48:22.385Z</time></trkpt><trkpt lat="40.7697527" lon="-3.7805046"><ele>957.5</ele><time>2026-04-04T08:48:23.386Z</time></trkpt><trkpt lat="40.7698363" lon="-3.7805307"><ele>959.0</ele><time>2026-04-04T08:48:24.386Z</time></trkpt><trkpt lat="40.7699214" lon="-3.7805558"><ele>960.5000000000001</ele><time>2026-04-04T08:48:25.385Z</time></trkpt><trkpt lat="40.7699971" lon="-3.7805662"><ele>962.0</ele><time>2026-04-04T08:48:26.386Z</time></trkpt><trkpt lat="40.7700599" lon="-3.7805499"><ele>962.0000000000001</ele><time>2026-04-04T08:48:27.385Z</time></trkpt><trkpt lat="40.7701213" lon="-3.7805134"><ele>962.0</ele><time>2026-04-04T08:48:28.385Z</time></trkpt><trkpt lat="40.7701819" lon="-3.7804723"><ele>962.0</ele><time>2026-04-04T08:48:29.386Z</time></trkpt><trkpt lat="40.7702788" lon="-3.7803564"><ele>962.0</ele><time>2026-04-04T08:48:31.386Z</time></trkpt><trkpt lat="40.7703175" lon="-3.780269"><ele>962.0000000000001</ele><time>2026-04-04T08:48:32.386Z</time></trkpt><trkpt lat="40.7703558" lon="-3.7801979"><ele>962.0</ele><time>2026-04-04T08:48:33.386Z</time></trkpt><trkpt lat="40.7704544" lon="-3.7801023"><ele>962.5714285714284</ele><time>2026-04-04T08:48:35.386Z</time></trkpt><trkpt lat="40.7705203" lon="-3.7800789"><ele>963.1428571428571</ele><time>2026-04-04T08:48:36.386Z</time></trkpt><trkpt lat="40.7705908" lon="-3.7800659"><ele>963.7142857142857</ele><time>2026-04-04T08:48:37.385Z</time></trkpt><trkpt lat="40.7706606" lon="-3.7800507"><ele>964.2857142857142</ele><time>2026-04-04T08:48:38.386Z</time></trkpt><trkpt lat="40.7707344" lon="-3.7800429"><ele>964.8571428571429</ele><time>2026-04-04T08:48:39.386Z</time></trkpt><trkpt lat="40.7708155" lon="-3.7800341"><ele>965.4285714285714</ele><time>2026-04-04T08:48:40.386Z</time></trkpt><trkpt lat="40.7708887" lon="-3.7800325"><ele>966.0</ele><time>2026-04-04T08:48:41.386Z</time></trkpt><trkpt lat="40.7709622" lon="-3.7800252"><ele>967.8333333333334</ele><time>2026-04-04T08:48:42.386Z</time></trkpt><trkpt lat="40.7710356" lon="-3.7800177"><ele>969.6666666666667</ele><time>2026-04-04T08:48:43.386Z</time></trkpt><trkpt lat="40.7711094" lon="-3.7800024"><ele>971.5</ele><time>2026-04-04T08:48:44.386Z</time></trkpt><trkpt lat="40.7711851" lon="-3.7799896"><ele>973.3333333333334</ele><time>2026-04-04T08:48:45.385Z</time></trkpt><trkpt lat="40.7712638" lon="-3.7799823"><ele>975.1666666666667</ele><time>2026-04-04T08:48:46.386Z</time></trkpt><trkpt lat="40.7713439" lon="-3.7799771"><ele>977.0</ele><time>2026-04-04T08:48:47.386Z</time></trkpt><trkpt lat="40.7714209" lon="-3.7799777"><ele>977.0000000000001</ele><time>2026-04-04T08:48:48.386Z</time></trkpt><trkpt lat="40.7714964" lon="-3.7799782"><ele>977.0</ele><time>2026-04-04T08:48:49.385Z</time></trkpt><trkpt lat="40.7715667" lon="-3.7799673"><ele>977.0</ele><time>2026-04-04T08:48:50.386Z</time></trkpt><trkpt lat="40.77164" lon="-3.7799936"><ele>977.0</ele><time>2026-04-04T08:48:52.385Z</time></trkpt><trkpt lat="40.7717249" lon="-3.7800416"><ele>977.0000000000001</ele><time>2026-04-04T08:48:55.385Z</time></trkpt><trkpt lat="40.7718373" lon="-3.7800284"><ele>977.0</ele><time>2026-04-04T08:48:57.386Z</time></trkpt><trkpt lat="40.7719178" lon="-3.7799905"><ele>979.0</ele><time>2026-04-04T08:48:59.386Z</time></trkpt><trkpt lat="40.7719996" lon="-3.7799944"><ele>981.0</ele><time>2026-04-04T08:49:01.386Z</time></trkpt><trkpt lat="40.7720807" lon="-3.7800614"><ele>983.0</ele><time>2026-04-04T08:49:03.387Z</time></trkpt><trkpt lat="40.7721561" lon="-3.7801524"><ele>985.0</ele><time>2026-04-04T08:49:05.387Z</time></trkpt><trkpt lat="40.7722618" lon="-3.7802279"><ele>987.0</ele><time>2026-04-04T08:49:07.387Z</time></trkpt><trkpt lat="40.7723292" lon="-3.7802567"><ele>988.0</ele><time>2026-04-04T08:49:08.387Z</time></trkpt><trkpt lat="40.7724469" lon="-3.7803154"><ele>989.0</ele><time>2026-04-04T08:49:10.387Z</time></trkpt><trkpt lat="40.7725451" lon="-3.7803876"><ele>990.0</ele><time>2026-04-04T08:49:12.387Z</time></trkpt><trkpt lat="40.772638" lon="-3.7804739"><ele>991.0</ele><time>2026-04-04T08:49:14.386Z</time></trkpt><trkpt lat="40.7727124" lon="-3.7805946"><ele>993.0</ele><time>2026-04-04T08:49:16.387Z</time></trkpt><trkpt lat="40.772736" lon="-3.7807148"><ele>994.9999999999999</ele><time>2026-04-04T08:49:18.386Z</time></trkpt><trkpt lat="40.7727254" lon="-3.7808645"><ele>996.9999999999999</ele><time>2026-04-04T08:49:20.386Z</time></trkpt><trkpt lat="40.7727128" lon="-3.7809465"><ele>999.0</ele><time>2026-04-04T08:49:21.387Z</time></trkpt><trkpt lat="40.7727209" lon="-3.7811062"><ele>1001.0</ele><time>2026-04-04T08:49:23.387Z</time></trkpt><trkpt lat="40.7727251" lon="-3.7812733"><ele>1001.3333333333334</ele><time>2026-04-04T08:49:25.387Z</time></trkpt><trkpt lat="40.7727259" lon="-3.7813576"><ele>1001.6666666666667</ele><time>2026-04-04T08:49:26.386Z</time></trkpt><trkpt lat="40.772728" lon="-3.7814409"><ele>1002.0</ele><time>2026-04-04T08:49:27.387Z</time></trkpt><trkpt lat="40.7727476" lon="-3.7815751"><ele>1002.3333333333333</ele><time>2026-04-04T08:49:29.387Z</time></trkpt><trkpt lat="40.7727852" lon="-3.7816795"><ele>1002.6666666666666</ele><time>2026-04-04T08:49:31.387Z</time></trkpt><trkpt lat="40.772827" lon="-3.7817707"><ele>1003.0</ele><time>2026-04-04T08:49:33.387Z</time></trkpt><trkpt lat="40.7728588" lon="-3.7818855"><ele>1002.9999999999999</ele><time>2026-04-04T08:49:35.386Z</time></trkpt><trkpt lat="40.7729234" lon="-3.782004"><ele>1003.0</ele><time>2026-04-04T08:49:37.386Z</time></trkpt><trkpt lat="40.772966" lon="-3.7820698"><ele>1003.0</ele><time>2026-04-04T08:49:38.387Z</time></trkpt><trkpt lat="40.7730062" lon="-3.7821468"><ele>1003.0</ele><time>2026-04-04T08:49:39.387Z</time></trkpt><trkpt lat="40.7730426" lon="-3.7822268"><ele>1002.9999999999999</ele><time>2026-04-04T08:49:40.386Z</time></trkpt><trkpt lat="40.7730792" lon="-3.7823036"><ele>1003.0</ele><time>2026-04-04T08:49:41.386Z</time></trkpt><trkpt lat="40.7731519" lon="-3.7824216"><ele>1003.0</ele><time>2026-04-04T08:49:43.387Z</time></trkpt><trkpt lat="40.77323" lon="-3.7824883"><ele>1003.0</ele><time>2026-04-04T08:49:45.386Z</time></trkpt><trkpt lat="40.7732568" lon="-3.7825645"><ele>1003.0</ele><time>2026-04-04T08:49:47.387Z</time></trkpt><trkpt lat="40.7732607" lon="-3.7826574"><ele>1003.0</ele><time>2026-04-04T08:49:49.387Z</time></trkpt><trkpt lat="40.7733147" lon="-3.7827832"><ele>1003.0</ele><time>2026-04-04T08:49:51.387Z</time></trkpt><trkpt lat="40.7733746" lon="-3.7829376"><ele>1002.5714285714286</ele><time>2026-04-04T08:49:53.387Z</time></trkpt><trkpt lat="40.7734161" lon="-3.7830213"><ele>1002.1428571428571</ele><time>2026-04-04T08:49:54.387Z</time></trkpt><trkpt lat="40.7734471" lon="-3.783104"><ele>1001.7142857142857</ele><time>2026-04-04T08:49:55.387Z</time></trkpt><trkpt lat="40.7734782" lon="-3.7831876"><ele>1001.2857142857142</ele><time>2026-04-04T08:49:56.387Z</time></trkpt><trkpt lat="40.7735134" lon="-3.7832731"><ele>1000.8571428571429</ele><time>2026-04-04T08:49:57.386Z</time></trkpt><trkpt lat="40.7735347" lon="-3.7833664"><ele>1000.4285714285713</ele><time>2026-04-04T08:49:58.387Z</time></trkpt><trkpt lat="40.7735522" lon="-3.7834533"><ele>1000.0</ele><time>2026-04-04T08:49:59.387Z</time></trkpt><trkpt lat="40.7736228" lon="-3.7835538"><ele>999.9999999999999</ele><time>2026-04-04T08:50:01.387Z</time></trkpt><trkpt lat="40.7737251" lon="-3.783655"><ele>1000.0</ele><time>2026-04-04T08:50:03.387Z</time></trkpt><trkpt lat="40.773776" lon="-3.7837238"><ele>1000.0</ele><time>2026-04-04T08:50:04.386Z</time></trkpt><trkpt lat="40.7738328" lon="-3.7837902"><ele>1000.0</ele><time>2026-04-04T08:50:05.387Z</time></trkpt><trkpt lat="40.7738975" lon="-3.7838589"><ele>999.9999999999999</ele><time>2026-04-04T08:50:06.387Z</time></trkpt><trkpt lat="40.773964" lon="-3.7839239"><ele>1000.0</ele><time>2026-04-04T08:50:07.386Z</time></trkpt><trkpt lat="40.774027" lon="-3.7839787"><ele>1000.0</ele><time>2026-04-04T08:50:08.386Z</time></trkpt><trkpt lat="40.7740815" lon="-3.7840314"><ele>1000.0</ele><time>2026-04-04T08:50:09.386Z</time></trkpt><trkpt lat="40.7741357" lon="-3.7840864"><ele>1000.0</ele><time>2026-04-04T08:50:10.387Z</time></trkpt><trkpt lat="40.774198" lon="-3.7841414"><ele>1000.0</ele><time>2026-04-04T08:50:11.387Z</time></trkpt><trkpt lat="40.774259" lon="-3.784193"><ele>1000.0</ele><time>2026-04-04T08:50:12.387Z</time></trkpt><trkpt lat="40.7743202" lon="-3.7842288"><ele>1000.0</ele><time>2026-04-04T08:50:13.387Z</time></trkpt><trkpt lat="40.7743937" lon="-3.7842504"><ele>1000.0</ele><time>2026-04-04T08:50:14.387Z</time></trkpt><trkpt lat="40.774455" lon="-3.7842718"><ele>1000.1666666666666</ele><time>2026-04-04T08:50:15.387Z</time></trkpt><trkpt lat="40.7745162" lon="-3.7843205"><ele>1000.3333333333333</ele><time>2026-04-04T08:50:16.387Z</time></trkpt><trkpt lat="40.7745792" lon="-3.7843742"><ele>1000.5</ele><time>2026-04-04T08:50:17.387Z</time></trkpt><trkpt lat="40.774643" lon="-3.7844262"><ele>1000.6666666666667</ele><time>2026-04-04T08:50:18.387Z</time></trkpt><trkpt lat="40.7747084" lon="-3.78448"><ele>1000.8333333333334</ele><time>2026-04-04T08:50:19.386Z</time></trkpt><trkpt lat="40.7747755" lon="-3.7845305"><ele>1001.0</ele><time>2026-04-04T08:50:20.386Z</time></trkpt><trkpt lat="40.7748435" lon="-3.7845791"><ele>1000.7142857142858</ele><time>2026-04-04T08:50:21.387Z</time></trkpt><trkpt lat="40.7749036" lon="-3.7846313"><ele>1000.4285714285714</ele><time>2026-04-04T08:50:22.387Z</time></trkpt><trkpt lat="40.774968" lon="-3.7846758"><ele>1000.1428571428571</ele><time>2026-04-04T08:50:23.387Z</time></trkpt><trkpt lat="40.7750332" lon="-3.7847229"><ele>999.8571428571429</ele><time>2026-04-04T08:50:24.387Z</time></trkpt><trkpt lat="40.7751043" lon="-3.784768"><ele>999.5714285714287</ele><time>2026-04-04T08:50:25.387Z</time></trkpt><trkpt lat="40.7751738" lon="-3.7848119"><ele>999.2857142857143</ele><time>2026-04-04T08:50:26.387Z</time></trkpt><trkpt lat="40.7752379" lon="-3.7848485"><ele>999.0</ele><time>2026-04-04T08:50:27.386Z</time></trkpt><trkpt lat="40.7753315" lon="-3.7849059"><ele>999.0</ele><time>2026-04-04T08:50:29.386Z</time></trkpt><trkpt lat="40.7754408" lon="-3.7850011"><ele>999.0</ele><time>2026-04-04T08:50:38.387Z</time></trkpt><trkpt lat="40.7755028" lon="-3.7850531"><ele>999.0</ele><time>2026-04-04T08:50:41.386Z</time></trkpt><trkpt lat="40.7755726" lon="-3.7850858"><ele>999.0</ele><time>2026-04-04T08:50:44.387Z</time></trkpt><trkpt lat="40.7756322" lon="-3.785136"><ele>999.0</ele><time>2026-04-04T08:50:46.386Z</time></trkpt><trkpt lat="40.7757081" lon="-3.7851889"><ele>999.0</ele><time>2026-04-04T08:50:48.386Z</time></trkpt><trkpt lat="40.7757928" lon="-3.7852468"><ele>998.8000000000001</ele><time>2026-04-04T08:50:50.386Z</time></trkpt><trkpt lat="40.7758545" lon="-3.7852997"><ele>998.6000000000001</ele><time>2026-04-04T08:50:52.387Z</time></trkpt><trkpt lat="40.7759166" lon="-3.7853546"><ele>998.4</ele><time>2026-04-04T08:50:54.387Z</time></trkpt><trkpt lat="40.775985" lon="-3.7854527"><ele>998.2</ele><time>2026-04-04T08:50:56.387Z</time></trkpt><trkpt lat="40.7760576" lon="-3.7855441"><ele>998.0</ele><time>2026-04-04T08:50:58.387Z</time></trkpt><trkpt lat="40.7761293" lon="-3.7856588"><ele>998.7142857142858</ele><time>2026-04-04T08:51:00.387Z</time></trkpt><trkpt lat="40.7761674" lon="-3.7857303"><ele>999.4285714285714</ele><time>2026-04-04T08:51:01.387Z</time></trkpt><trkpt lat="40.7762054" lon="-3.7858108"><ele>1000.1428571428571</ele><time>2026-04-04T08:51:02.387Z</time></trkpt><trkpt lat="40.776237" lon="-3.785884"><ele>1000.8571428571429</ele><time>2026-04-04T08:51:03.386Z</time></trkpt><trkpt lat="40.7762824" lon="-3.7859571"><ele>1001.5714285714284</ele><time>2026-04-04T08:51:04.387Z</time></trkpt><trkpt lat="40.776332" lon="-3.7860197"><ele>1002.2857142857142</ele><time>2026-04-04T08:51:05.387Z</time></trkpt><trkpt lat="40.7764094" lon="-3.7861065"><ele>1003.0</ele><time>2026-04-04T08:51:07.387Z</time></trkpt><trkpt lat="40.776471" lon="-3.7861586"><ele>1003.0</ele><time>2026-04-04T08:51:10.386Z</time></trkpt><trkpt lat="40.7765482" lon="-3.7861845"><ele>1003.0</ele><time>2026-04-04T08:51:28.386Z</time></trkpt><trkpt lat="40.7766311" lon="-3.7863138"><ele>1003.0</ele><time>2026-04-04T08:51:34.386Z</time></trkpt><trkpt lat="40.7766628" lon="-3.7864176"><ele>1003.0</ele><time>2026-04-04T08:51:37.387Z</time></trkpt><trkpt lat="40.7766957" lon="-3.786518"><ele>1003.0</ele><time>2026-04-04T08:51:41.386Z</time></trkpt><trkpt lat="40.7767106" lon="-3.7866144"><ele>1002.9999999999999</ele><time>2026-04-04T08:51:43.387Z</time></trkpt><trkpt lat="40.7767467" lon="-3.786692"><ele>1003.0</ele><time>2026-04-04T08:51:45.387Z</time></trkpt><trkpt lat="40.7767856" lon="-3.786764"><ele>1003.0</ele><time>2026-04-04T08:51:47.387Z</time></trkpt><trkpt lat="40.7768355" lon="-3.7868664"><ele>1003.0</ele><time>2026-04-04T08:51:49.386Z</time></trkpt><trkpt lat="40.7768645" lon="-3.7869589"><ele>1002.9999999999999</ele><time>2026-04-04T08:51:51.387Z</time></trkpt><trkpt lat="40.7769052" lon="-3.7870832"><ele>1003.0</ele><time>2026-04-04T08:51:53.387Z</time></trkpt><trkpt lat="40.7769209" lon="-3.787216"><ele>1004.0</ele><time>2026-04-04T08:51:55.386Z</time></trkpt><trkpt lat="40.7769585" lon="-3.7873168"><ele>1005.0</ele><time>2026-04-04T08:51:57.386Z</time></trkpt><trkpt lat="40.7770309" lon="-3.7874147"><ele>1006.0</ele><time>2026-04-04T08:51:59.387Z</time></trkpt><trkpt lat="40.7770954" lon="-3.7875274"><ele>1007.0</ele><time>2026-04-04T08:52:01.387Z</time></trkpt><trkpt lat="40.7771751" lon="-3.7876227"><ele>1008.0</ele><time>2026-04-04T08:52:03.387Z</time></trkpt><trkpt lat="40.7772394" lon="-3.7877087"><ele>1008.0</ele><time>2026-04-04T08:52:05.386Z</time></trkpt><trkpt lat="40.7772853" lon="-3.787782"><ele>1008.0</ele><time>2026-04-04T08:52:07.387Z</time></trkpt><trkpt lat="40.7773548" lon="-3.7877991"><ele>1008.0</ele><time>2026-04-04T08:52:09.387Z</time></trkpt><trkpt lat="40.7774284" lon="-3.7876706"><ele>1008.0</ele><time>2026-04-04T08:52:11.386Z</time></trkpt><trkpt lat="40.7774785" lon="-3.7876033"><ele>1008.0</ele><time>2026-04-04T08:52:12.386Z</time></trkpt><trkpt lat="40.7775221" lon="-3.7875284"><ele>1008.0</ele><time>2026-04-04T08:52:13.387Z</time></trkpt><trkpt lat="40.7775987" lon="-3.7874039"><ele>1009.4</ele><time>2026-04-04T08:52:15.387Z</time></trkpt><trkpt lat="40.7776864" lon="-3.787281"><ele>1010.8</ele><time>2026-04-04T08:52:17.386Z</time></trkpt><trkpt lat="40.7777548" lon="-3.7871552"><ele>1012.2</ele><time>2026-04-04T08:52:19.387Z</time></trkpt><trkpt lat="40.7777982" lon="-3.787062"><ele>1013.6</ele><time>2026-04-04T08:52:21.386Z</time></trkpt><trkpt lat="40.7778358" lon="-3.7869931"><ele>1015.0</ele><time>2026-04-04T08:52:23.387Z</time></trkpt><trkpt lat="40.7779226" lon="-3.7869798"><ele>1015.0</ele><time>2026-04-04T08:52:27.386Z</time></trkpt><trkpt lat="40.7780115" lon="-3.7869747"><ele>1015.0</ele><time>2026-04-04T08:52:30.386Z</time></trkpt><trkpt lat="40.778086" lon="-3.7869126"><ele>1015.0</ele><time>2026-04-04T08:52:33.387Z</time></trkpt><trkpt lat="40.778123" lon="-3.7867726"><ele>1015.0</ele><time>2026-04-04T08:52:35.387Z</time></trkpt><trkpt lat="40.7781637" lon="-3.7866325"><ele>1015.0</ele><time>2026-04-04T08:52:37.386Z</time></trkpt><trkpt lat="40.7782647" lon="-3.7865526"><ele>1014.6</ele><time>2026-04-04T08:52:39.387Z</time></trkpt><trkpt lat="40.7783748" lon="-3.7864665"><ele>1014.2</ele><time>2026-04-04T08:52:41.387Z</time></trkpt><trkpt lat="40.7784347" lon="-3.7864323"><ele>1013.8</ele><time>2026-04-04T08:52:42.386Z</time></trkpt><trkpt lat="40.7785247" lon="-3.7864183"><ele>1013.4</ele><time>2026-04-04T08:52:44.387Z</time></trkpt><trkpt lat="40.7786275" lon="-3.7864577"><ele>1013.0</ele><time>2026-04-04T08:52:46.387Z</time></trkpt><trkpt lat="40.77869" lon="-3.7864375"><ele>1013.6666666666667</ele><time>2026-04-04T08:52:47.387Z</time></trkpt><trkpt lat="40.7787583" lon="-3.7863926"><ele>1014.3333333333334</ele><time>2026-04-04T08:52:48.387Z</time></trkpt><trkpt lat="40.7788283" lon="-3.7863438"><ele>1015.0</ele><time>2026-04-04T08:52:49.387Z</time></trkpt><trkpt lat="40.7788905" lon="-3.7862959"><ele>1015.6666666666667</ele><time>2026-04-04T08:52:50.387Z</time></trkpt><trkpt lat="40.7789539" lon="-3.7862593"><ele>1016.3333333333334</ele><time>2026-04-04T08:52:51.387Z</time></trkpt><trkpt lat="40.7790113" lon="-3.7862215"><ele>1017.0</ele><time>2026-04-04T08:52:52.387Z</time></trkpt><trkpt lat="40.7791187" lon="-3.7861666"><ele>1017.0</ele><time>2026-04-04T08:52:54.387Z</time></trkpt><trkpt lat="40.7791995" lon="-3.7861791"><ele>1017.0</ele><time>2026-04-04T08:52:55.386Z</time></trkpt><trkpt lat="40.7792799" lon="-3.7861946"><ele>1017.0</ele><time>2026-04-04T08:52:56.386Z</time></trkpt><trkpt lat="40.7793515" lon="-3.7862062"><ele>1017.0</ele><time>2026-04-04T08:52:57.387Z</time></trkpt><trkpt lat="40.779445" lon="-3.7862334"><ele>1017.0</ele><time>2026-04-04T08:52:59.386Z</time></trkpt><trkpt lat="40.7795605" lon="-3.7862657"><ele>1017.0</ele><time>2026-04-04T08:53:01.386Z</time></trkpt><trkpt lat="40.7796385" lon="-3.786283"><ele>1017.2</ele><time>2026-04-04T08:53:03.386Z</time></trkpt><trkpt lat="40.7797321" lon="-3.7863048"><ele>1017.4000000000001</ele><time>2026-04-04T08:53:05.387Z</time></trkpt><trkpt lat="40.7798153" lon="-3.7862907"><ele>1017.5999999999999</ele><time>2026-04-04T08:53:07.386Z</time></trkpt><trkpt lat="40.7799155" lon="-3.7862673"><ele>1017.8</ele><time>2026-04-04T08:53:09.387Z</time></trkpt><trkpt lat="40.7800139" lon="-3.78624"><ele>1018.0</ele><time>2026-04-04T08:53:11.387Z</time></trkpt><trkpt lat="40.780098" lon="-3.7862123"><ele>1019.5999999999999</ele><time>2026-04-04T08:53:13.387Z</time></trkpt><trkpt lat="40.7802124" lon="-3.786224"><ele>1021.1999999999999</ele><time>2026-04-04T08:53:15.387Z</time></trkpt><trkpt lat="40.7803298" lon="-3.7862328"><ele>1022.8</ele><time>2026-04-04T08:53:17.386Z</time></trkpt><trkpt lat="40.780442" lon="-3.7862523"><ele>1024.3999999999999</ele><time>2026-04-04T08:53:19.387Z</time></trkpt><trkpt lat="40.780545" lon="-3.7862638"><ele>1026.0</ele><time>2026-04-04T08:53:21.386Z</time></trkpt><trkpt lat="40.7806364" lon="-3.7862696"><ele>1026.0</ele><time>2026-04-04T08:53:23.387Z</time></trkpt><trkpt lat="40.7807025" lon="-3.7862749"><ele>1026.0</ele><time>2026-04-04T08:53:25.387Z</time></trkpt><trkpt lat="40.7807876" lon="-3.7862284"><ele>1026.0</ele><time>2026-04-04T08:53:28.386Z</time></trkpt><trkpt lat="40.7808512" lon="-3.7861369"><ele>1026.0</ele><time>2026-04-04T08:53:30.386Z</time></trkpt><trkpt lat="40.7808762" lon="-3.7859869"><ele>1026.0</ele><time>2026-04-04T08:53:32.386Z</time></trkpt><trkpt lat="40.7808998" lon="-3.7858859"><ele>1026.0</ele><time>2026-04-04T08:53:33.387Z</time></trkpt><trkpt lat="40.7809129" lon="-3.7858"><ele>1025.8333333333333</ele><time>2026-04-04T08:53:34.387Z</time></trkpt><trkpt lat="40.780933" lon="-3.7857048"><ele>1025.6666666666667</ele><time>2026-04-04T08:53:35.387Z</time></trkpt><trkpt lat="40.7809445" lon="-3.7856072"><ele>1025.5</ele><time>2026-04-04T08:53:36.386Z</time></trkpt><trkpt lat="40.7809524" lon="-3.7855002"><ele>1025.3333333333335</ele><time>2026-04-04T08:53:37.387Z</time></trkpt><trkpt lat="40.7809597" lon="-3.7853847"><ele>1025.1666666666667</ele><time>2026-04-04T08:53:38.387Z</time></trkpt><trkpt lat="40.7809604" lon="-3.7852536"><ele>1025.0</ele><time>2026-04-04T08:53:39.387Z</time></trkpt><trkpt lat="40.7809554" lon="-3.785132"><ele>1024.6</ele><time>2026-04-04T08:53:40.387Z</time></trkpt><trkpt lat="40.7809483" lon="-3.7850016"><ele>1024.2</ele><time>2026-04-04T08:53:41.386Z</time></trkpt><trkpt lat="40.780942" lon="-3.7848672"><ele>1023.8</ele><time>2026-04-04T08:53:42.387Z</time></trkpt><trkpt lat="40.7809278" lon="-3.7847353"><ele>1023.4</ele><time>2026-04-04T08:53:43.386Z</time></trkpt><trkpt lat="40.7809357" lon="-3.7845968"><ele>1023.0</ele><time>2026-04-04T08:53:44.387Z</time></trkpt><trkpt lat="40.7809591" lon="-3.7844547"><ele>1022.5</ele><time>2026-04-04T08:53:45.386Z</time></trkpt><trkpt lat="40.780975" lon="-3.7843062"><ele>1022.0</ele><time>2026-04-04T08:53:46.387Z</time></trkpt><trkpt lat="40.7809726" lon="-3.7841508"><ele>1021.5</ele><time>2026-04-04T08:53:47.387Z</time></trkpt><trkpt lat="40.780959" lon="-3.7839964"><ele>1021.0</ele><time>2026-04-04T08:53:48.387Z</time></trkpt><trkpt lat="40.7809385" lon="-3.7838533"><ele>1021.0</ele><time>2026-04-04T08:53:49.386Z</time></trkpt><trkpt lat="40.7809193" lon="-3.7837244"><ele>1020.9999999999999</ele><time>2026-04-04T08:53:50.386Z</time></trkpt><trkpt lat="40.7809019" lon="-3.7835964"><ele>1020.9999999999999</ele><time>2026-04-04T08:53:51.387Z</time></trkpt><trkpt lat="40.7808851" lon="-3.7834634"><ele>1021.0</ele><time>2026-04-04T08:53:52.386Z</time></trkpt><trkpt lat="40.7808752" lon="-3.7833283"><ele>1021.0</ele><time>2026-04-04T08:53:53.387Z</time></trkpt><trkpt lat="40.780873" lon="-3.783195"><ele>1021.0</ele><time>2026-04-04T08:53:54.387Z</time></trkpt><trkpt lat="40.7808747" lon="-3.7830498"><ele>1020.9999999999999</ele><time>2026-04-04T08:53:55.387Z</time></trkpt><trkpt lat="40.7808832" lon="-3.7829119"><ele>1020.9999999999999</ele><time>2026-04-04T08:53:56.387Z</time></trkpt><trkpt lat="40.7809001" lon="-3.7827739"><ele>1021.0</ele><time>2026-04-04T08:53:57.387Z</time></trkpt><trkpt lat="40.780926" lon="-3.7826382"><ele>1021.0</ele><time>2026-04-04T08:53:58.387Z</time></trkpt><trkpt lat="40.7809539" lon="-3.7825088"><ele>1021.1999999999999</ele><time>2026-04-04T08:53:59.387Z</time></trkpt><trkpt lat="40.7809859" lon="-3.7823843"><ele>1021.3999999999999</ele><time>2026-04-04T08:54:00.387Z</time></trkpt><trkpt lat="40.7810139" lon="-3.7822589"><ele>1021.6</ele><time>2026-04-04T08:54:01.387Z</time></trkpt><trkpt lat="40.781039" lon="-3.7821284"><ele>1021.8</ele><time>2026-04-04T08:54:02.387Z</time></trkpt><trkpt lat="40.7810614" lon="-3.7820034"><ele>1022.0</ele><time>2026-04-04T08:54:03.387Z</time></trkpt><trkpt lat="40.7810842" lon="-3.7818908"><ele>1023.6</ele><time>2026-04-04T08:54:04.386Z</time></trkpt><trkpt lat="40.7811197" lon="-3.7817755"><ele>1025.2</ele><time>2026-04-04T08:54:05.387Z</time></trkpt><trkpt lat="40.7811745" lon="-3.7816638"><ele>1026.8</ele><time>2026-04-04T08:54:06.387Z</time></trkpt><trkpt lat="40.7812459" lon="-3.7815483"><ele>1028.4</ele><time>2026-04-04T08:54:07.387Z</time></trkpt><trkpt lat="40.7813141" lon="-3.7814363"><ele>1030.0</ele><time>2026-04-04T08:54:08.386Z</time></trkpt><trkpt lat="40.7813773" lon="-3.7813178"><ele>1030.0</ele><time>2026-04-04T08:54:09.386Z</time></trkpt><trkpt lat="40.7814324" lon="-3.7811985"><ele>1030.0</ele><time>2026-04-04T08:54:10.386Z</time></trkpt><trkpt lat="40.7814879" lon="-3.7810778"><ele>1030.0</ele><time>2026-04-04T08:54:11.387Z</time></trkpt><trkpt lat="40.781541" lon="-3.7809597"><ele>1030.0</ele><time>2026-04-04T08:54:12.386Z</time></trkpt><trkpt lat="40.7815847" lon="-3.7808388"><ele>1030.0</ele><time>2026-04-04T08:54:13.386Z</time></trkpt><trkpt lat="40.7816289" lon="-3.7807167"><ele>1030.6</ele><time>2026-04-04T08:54:14.386Z</time></trkpt><trkpt lat="40.7816838" lon="-3.7805977"><ele>1031.2</ele><time>2026-04-04T08:54:15.387Z</time></trkpt><trkpt lat="40.7817412" lon="-3.7804848"><ele>1031.8</ele><time>2026-04-04T08:54:16.387Z</time></trkpt><trkpt lat="40.781786" lon="-3.7803736"><ele>1032.4</ele><time>2026-04-04T08:54:17.386Z</time></trkpt><trkpt lat="40.7818086" lon="-3.7802656"><ele>1033.0</ele><time>2026-04-04T08:54:18.387Z</time></trkpt><trkpt lat="40.7818202" lon="-3.7801542"><ele>1033.2</ele><time>2026-04-04T08:54:19.386Z</time></trkpt><trkpt lat="40.781826" lon="-3.7800361"><ele>1033.4</ele><time>2026-04-04T08:54:20.386Z</time></trkpt><trkpt lat="40.7818276" lon="-3.779916"><ele>1033.6000000000001</ele><time>2026-04-04T08:54:21.387Z</time></trkpt><trkpt lat="40.7818118" lon="-3.7797914"><ele>1033.8</ele><time>2026-04-04T08:54:22.387Z</time></trkpt><trkpt lat="40.7817747" lon="-3.779674"><ele>1034.0</ele><time>2026-04-04T08:54:23.386Z</time></trkpt><trkpt lat="40.7817224" lon="-3.7795705"><ele>1034.0</ele><time>2026-04-04T08:54:24.387Z</time></trkpt><trkpt lat="40.7816601" lon="-3.7794633"><ele>1034.0</ele><time>2026-04-04T08:54:25.387Z</time></trkpt><trkpt lat="40.7815986" lon="-3.7793659"><ele>1034.0</ele><time>2026-04-04T08:54:26.387Z</time></trkpt><trkpt lat="40.7815332" lon="-3.7792807"><ele>1034.0</ele><time>2026-04-04T08:54:27.387Z</time></trkpt><trkpt lat="40.7814608" lon="-3.7791955"><ele>1034.0</ele><time>2026-04-04T08:54:28.387Z</time></trkpt><trkpt lat="40.7813914" lon="-3.7791048"><ele>1035.4</ele><time>2026-04-04T08:54:29.386Z</time></trkpt><trkpt lat="40.7813221" lon="-3.7790062"><ele>1036.8000000000002</ele><time>2026-04-04T08:54:30.386Z</time></trkpt><trkpt lat="40.7812583" lon="-3.7789023"><ele>1038.1999999999998</ele><time>2026-04-04T08:54:31.386Z</time></trkpt><trkpt lat="40.7812054" lon="-3.778788"><ele>1039.6</ele><time>2026-04-04T08:54:32.387Z</time></trkpt><trkpt lat="40.7811783" lon="-3.7786578"><ele>1041.0</ele><time>2026-04-04T08:54:33.386Z</time></trkpt><trkpt lat="40.7811671" lon="-3.7785249"><ele>1041.6</ele><time>2026-04-04T08:54:34.386Z</time></trkpt><trkpt lat="40.7811636" lon="-3.778396"><ele>1042.1999999999998</ele><time>2026-04-04T08:54:35.387Z</time></trkpt><trkpt lat="40.7811712" lon="-3.7782623"><ele>1042.8000000000002</ele><time>2026-04-04T08:54:36.387Z</time></trkpt><trkpt lat="40.7811861" lon="-3.7781295"><ele>1043.4</ele><time>2026-04-04T08:54:37.387Z</time></trkpt><trkpt lat="40.7812003" lon="-3.7779936"><ele>1044.0</ele><time>2026-04-04T08:54:38.387Z</time></trkpt><trkpt lat="40.7812104" lon="-3.7778554"><ele>1044.0</ele><time>2026-04-04T08:54:39.386Z</time></trkpt><trkpt lat="40.7812176" lon="-3.7777187"><ele>1044.0</ele><time>2026-04-04T08:54:40.386Z</time></trkpt><trkpt lat="40.7812136" lon="-3.7775871"><ele>1044.0</ele><time>2026-04-04T08:54:41.387Z</time></trkpt><trkpt lat="40.7812023" lon="-3.7774709"><ele>1044.0</ele><time>2026-04-04T08:54:42.387Z</time></trkpt><trkpt lat="40.7811858" lon="-3.7773665"><ele>1044.0</ele><time>2026-04-04T08:54:43.387Z</time></trkpt><trkpt lat="40.7811668" lon="-3.7772578"><ele>1044.0</ele><time>2026-04-04T08:54:44.387Z</time></trkpt><trkpt lat="40.7811508" lon="-3.7771407"><ele>1044.0</ele><time>2026-04-04T08:54:45.387Z</time></trkpt><trkpt lat="40.781149" lon="-3.7770108"><ele>1044.0</ele><time>2026-04-04T08:54:46.386Z</time></trkpt><trkpt lat="40.78116" lon="-3.7768866"><ele>1044.0</ele><time>2026-04-04T08:54:47.387Z</time></trkpt><trkpt lat="40.78118" lon="-3.7767598"><ele>1044.0</ele><time>2026-04-04T08:54:48.387Z</time></trkpt><trkpt lat="40.7812063" lon="-3.7766395"><ele>1043.25</ele><time>2026-04-04T08:54:49.387Z</time></trkpt><trkpt lat="40.7812365" lon="-3.776512"><ele>1042.5</ele><time>2026-04-04T08:54:50.387Z</time></trkpt><trkpt lat="40.7812598" lon="-3.7763719"><ele>1041.75</ele><time>2026-04-04T08:54:51.387Z</time></trkpt><trkpt lat="40.7812827" lon="-3.7762188"><ele>1041.0</ele><time>2026-04-04T08:54:52.386Z</time></trkpt><trkpt lat="40.7813101" lon="-3.7760598"><ele>1039.5</ele><time>2026-04-04T08:54:53.386Z</time></trkpt><trkpt lat="40.7813432" lon="-3.7759071"><ele>1038.0</ele><time>2026-04-04T08:54:54.387Z</time></trkpt><trkpt lat="40.7813741" lon="-3.7757588"><ele>1036.5</ele><time>2026-04-04T08:54:55.387Z</time></trkpt><trkpt lat="40.7814075" lon="-3.7756209"><ele>1035.0</ele><time>2026-04-04T08:54:56.386Z</time></trkpt><trkpt lat="40.7814384" lon="-3.7754875"><ele>1035.0</ele><time>2026-04-04T08:54:57.387Z</time></trkpt><trkpt lat="40.781469" lon="-3.7753605"><ele>1035.0</ele><time>2026-04-04T08:54:58.387Z</time></trkpt><trkpt lat="40.7814943" lon="-3.7752396"><ele>1035.0</ele><time>2026-04-04T08:54:59.387Z</time></trkpt><trkpt lat="40.7815186" lon="-3.7751338"><ele>1035.0</ele><time>2026-04-04T08:55:00.386Z</time></trkpt><trkpt lat="40.7815375" lon="-3.7750359"><ele>1035.0</ele><time>2026-04-04T08:55:01.387Z</time></trkpt><trkpt lat="40.7815339" lon="-3.7749473"><ele>1035.0</ele><time>2026-04-04T08:55:02.387Z</time></trkpt><trkpt lat="40.7815167" lon="-3.7748613"><ele>1034.4</ele><time>2026-04-04T08:55:03.387Z</time></trkpt><trkpt lat="40.7814713" lon="-3.7747168"><ele>1033.8</ele><time>2026-04-04T08:55:05.386Z</time></trkpt><trkpt lat="40.7814367" lon="-3.7745845"><ele>1033.2</ele><time>2026-04-04T08:55:07.387Z</time></trkpt><trkpt lat="40.7814008" lon="-3.7744769"><ele>1032.6</ele><time>2026-04-04T08:55:09.386Z</time></trkpt><trkpt lat="40.7813331" lon="-3.7744103"><ele>1032.0</ele><time>2026-04-04T08:55:11.386Z</time></trkpt><trkpt lat="40.7812225" lon="-3.7744191"><ele>1032.0</ele><time>2026-04-04T08:55:13.387Z</time></trkpt><trkpt lat="40.7811582" lon="-3.7744424"><ele>1032.0</ele><time>2026-04-04T08:55:14.386Z</time></trkpt><trkpt lat="40.7810897" lon="-3.774455"><ele>1032.0</ele><time>2026-04-04T08:55:15.386Z</time></trkpt><trkpt lat="40.781022" lon="-3.7744735"><ele>1032.0</ele><time>2026-04-04T08:55:16.386Z</time></trkpt><trkpt lat="40.7809076" lon="-3.7745112"><ele>1032.0</ele><time>2026-04-04T08:55:18.386Z</time></trkpt><trkpt lat="40.7808056" lon="-3.7745412"><ele>1032.0</ele><time>2026-04-04T08:55:20.387Z</time></trkpt><trkpt lat="40.7806897" lon="-3.7745783"><ele>1030.8</ele><time>2026-04-04T08:55:22.387Z</time></trkpt><trkpt lat="40.7805686" lon="-3.7746203"><ele>1029.6</ele><time>2026-04-04T08:55:24.387Z</time></trkpt><trkpt lat="40.7804931" lon="-3.7746526"><ele>1028.3999999999999</ele><time>2026-04-04T08:55:25.387Z</time></trkpt><trkpt lat="40.7804042" lon="-3.7746861"><ele>1027.2</ele><time>2026-04-04T08:55:26.387Z</time></trkpt><trkpt lat="40.7803021" lon="-3.7747225"><ele>1026.0</ele><time>2026-04-04T08:55:27.387Z</time></trkpt><trkpt lat="40.780184" lon="-3.7747548"><ele>1025.5</ele><time>2026-04-04T08:55:28.386Z</time></trkpt><trkpt lat="40.7800619" lon="-3.7747907"><ele>1025.0</ele><time>2026-04-04T08:55:29.386Z</time></trkpt><trkpt lat="40.7799416" lon="-3.7748313"><ele>1024.5</ele><time>2026-04-04T08:55:30.387Z</time></trkpt><trkpt lat="40.7798142" lon="-3.7748777"><ele>1024.0</ele><time>2026-04-04T08:55:31.387Z</time></trkpt><trkpt lat="40.7796835" lon="-3.7749236"><ele>1024.0</ele><time>2026-04-04T08:55:32.386Z</time></trkpt><trkpt lat="40.7795595" lon="-3.7749643"><ele>1024.0</ele><time>2026-04-04T08:55:33.387Z</time></trkpt><trkpt lat="40.7794447" lon="-3.7750048"><ele>1024.0</ele><time>2026-04-04T08:55:34.387Z</time></trkpt><trkpt lat="40.7793337" lon="-3.7750522"><ele>1024.0</ele><time>2026-04-04T08:55:35.386Z</time></trkpt><trkpt lat="40.7792316" lon="-3.7751014"><ele>1023.8000000000001</ele><time>2026-04-04T08:55:36.387Z</time></trkpt><trkpt lat="40.779137" lon="-3.7751582"><ele>1023.6000000000001</ele><time>2026-04-04T08:55:37.387Z</time></trkpt><trkpt lat="40.7790524" lon="-3.7752288"><ele>1023.4</ele><time>2026-04-04T08:55:38.387Z</time></trkpt><trkpt lat="40.7789842" lon="-3.775316"><ele>1023.2</ele><time>2026-04-04T08:55:39.387Z</time></trkpt><trkpt lat="40.778919" lon="-3.7754137"><ele>1023.0</ele><time>2026-04-04T08:55:40.386Z</time></trkpt><trkpt lat="40.7788518" lon="-3.7754926"><ele>1023.3333333333334</ele><time>2026-04-04T08:55:41.387Z</time></trkpt><trkpt lat="40.7787721" lon="-3.7755242"><ele>1023.6666666666667</ele><time>2026-04-04T08:55:42.386Z</time></trkpt><trkpt lat="40.7786866" lon="-3.7755093"><ele>1024.0</ele><time>2026-04-04T08:55:43.387Z</time></trkpt><trkpt lat="40.7786149" lon="-3.7754603"><ele>1024.3333333333335</ele><time>2026-04-04T08:55:44.386Z</time></trkpt><trkpt lat="40.7785741" lon="-3.7753795"><ele>1024.6666666666667</ele><time>2026-04-04T08:55:45.387Z</time></trkpt><trkpt lat="40.7785739" lon="-3.7752803"><ele>1025.0</ele><time>2026-04-04T08:55:46.387Z</time></trkpt><trkpt lat="40.7785974" lon="-3.7751874"><ele>1024.6666666666667</ele><time>2026-04-04T08:55:47.387Z</time></trkpt><trkpt lat="40.7786551" lon="-3.7751085"><ele>1024.3333333333335</ele><time>2026-04-04T08:55:48.386Z</time></trkpt><trkpt lat="40.7787249" lon="-3.7750681"><ele>1024.0</ele><time>2026-04-04T08:55:49.387Z</time></trkpt><trkpt lat="40.7788118" lon="-3.7750695"><ele>1023.6666666666667</ele><time>2026-04-04T08:55:50.386Z</time></trkpt><trkpt lat="40.7789022" lon="-3.7750982"><ele>1023.3333333333334</ele><time>2026-04-04T08:55:51.386Z</time></trkpt><trkpt lat="40.7790026" lon="-3.7751047"><ele>1023.0</ele><time>2026-04-04T08:55:52.387Z</time></trkpt><trkpt lat="40.7791134" lon="-3.7750769"><ele>1023.0</ele><time>2026-04-04T08:55:53.387Z</time></trkpt><trkpt lat="40.7792228" lon="-3.7750306"><ele>1023.0</ele><time>2026-04-04T08:55:54.387Z</time></trkpt><trkpt lat="40.7793318" lon="-3.7749894"><ele>1023.0</ele><time>2026-04-04T08:55:55.387Z</time></trkpt><trkpt lat="40.7794365" lon="-3.774951"><ele>1023.0</ele><time>2026-04-04T08:55:56.386Z</time></trkpt><trkpt lat="40.7795408" lon="-3.7749077"><ele>1023.0</ele><time>2026-04-04T08:55:57.387Z</time></trkpt><trkpt lat="40.7796496" lon="-3.7748688"><ele>1023.2</ele><time>2026-04-04T08:55:58.387Z</time></trkpt><trkpt lat="40.7797615" lon="-3.7748294"><ele>1023.4</ele><time>2026-04-04T08:55:59.387Z</time></trkpt><trkpt lat="40.7798755" lon="-3.7747919"><ele>1023.6000000000001</ele><time>2026-04-04T08:56:00.387Z</time></trkpt><trkpt lat="40.7799803" lon="-3.7747561"><ele>1023.8000000000001</ele><time>2026-04-04T08:56:01.387Z</time></trkpt><trkpt lat="40.7800784" lon="-3.7747124"><ele>1024.0</ele><time>2026-04-04T08:56:02.387Z</time></trkpt><trkpt lat="40.7801627" lon="-3.7746739"><ele>1024.3333333333333</ele><time>2026-04-04T08:56:03.386Z</time></trkpt><trkpt lat="40.7802357" lon="-3.7746385"><ele>1024.6666666666665</ele><time>2026-04-04T08:56:04.387Z</time></trkpt><trkpt lat="40.7802966" lon="-3.7746098"><ele>1025.0</ele><time>2026-04-04T08:56:05.387Z</time></trkpt><trkpt lat="40.7803903" lon="-3.7745555"><ele>1025.3333333333333</ele><time>2026-04-04T08:56:07.387Z</time></trkpt><trkpt lat="40.7804625" lon="-3.7744853"><ele>1025.6666666666667</ele><time>2026-04-04T08:56:09.387Z</time></trkpt><trkpt lat="40.7805134" lon="-3.7744197"><ele>1026.0</ele><time>2026-04-04T08:56:11.386Z</time></trkpt><trkpt lat="40.7805783" lon="-3.7743654"><ele>1026.0</ele><time>2026-04-04T08:56:14.387Z</time></trkpt><trkpt lat="40.7806434" lon="-3.7743547"><ele>1026.0</ele><time>2026-04-04T08:57:11.387Z</time></trkpt><trkpt lat="40.7806849" lon="-3.7742883"><ele>1026.0</ele><time>2026-04-04T08:57:16.387Z</time></trkpt><trkpt lat="40.780809" lon="-3.7743651"><ele>1026.0</ele><time>2026-04-04T09:00:20.387Z</time></trkpt><trkpt lat="40.7809206" lon="-3.7744438"><ele>1026.0</ele><time>2026-04-04T09:00:22.386Z</time></trkpt><trkpt lat="40.7809871" lon="-3.7744522"><ele>1026.857142857143</ele><time>2026-04-04T09:00:23.386Z</time></trkpt><trkpt lat="40.7810711" lon="-3.7744357"><ele>1027.7142857142858</ele><time>2026-04-04T09:00:24.387Z</time></trkpt><trkpt lat="40.7811399" lon="-3.7744005"><ele>1028.5714285714284</ele><time>2026-04-04T09:00:25.386Z</time></trkpt><trkpt lat="40.7812092" lon="-3.7743776"><ele>1029.4285714285716</ele><time>2026-04-04T09:00:26.387Z</time></trkpt><trkpt lat="40.781279" lon="-3.7743808"><ele>1030.2857142857142</ele><time>2026-04-04T09:00:27.387Z</time></trkpt><trkpt lat="40.7813407" lon="-3.7744127"><ele>1031.142857142857</ele><time>2026-04-04T09:00:28.386Z</time></trkpt><trkpt lat="40.7813907" lon="-3.7744725"><ele>1032.0</ele><time>2026-04-04T09:00:29.387Z</time></trkpt><trkpt lat="40.7814296" lon="-3.7745541"><ele>1031.9999999999998</ele><time>2026-04-04T09:00:30.387Z</time></trkpt><trkpt lat="40.7814531" lon="-3.7746416"><ele>1032.0</ele><time>2026-04-04T09:00:31.387Z</time></trkpt><trkpt lat="40.7814725" lon="-3.7747281"><ele>1032.0</ele><time>2026-04-04T09:00:32.386Z</time></trkpt><trkpt lat="40.7814884" lon="-3.7748222"><ele>1032.0</ele><time>2026-04-04T09:00:33.387Z</time></trkpt><trkpt lat="40.7815084" lon="-3.7749185"><ele>1032.0</ele><time>2026-04-04T09:00:34.387Z</time></trkpt><trkpt lat="40.781519" lon="-3.775018"><ele>1031.9999999999998</ele><time>2026-04-04T09:00:35.386Z</time></trkpt><trkpt lat="40.7815064" lon="-3.775117"><ele>1032.0</ele><time>2026-04-04T09:00:36.387Z</time></trkpt><trkpt lat="40.7814842" lon="-3.7752172"><ele>1032.5</ele><time>2026-04-04T09:00:37.387Z</time></trkpt><trkpt lat="40.7814593" lon="-3.7753134"><ele>1033.0</ele><time>2026-04-04T09:00:38.386Z</time></trkpt><trkpt lat="40.7814394" lon="-3.7754031"><ele>1033.5</ele><time>2026-04-04T09:00:39.386Z</time></trkpt><trkpt lat="40.7814179" lon="-3.775501"><ele>1034.0</ele><time>2026-04-04T09:00:40.386Z</time></trkpt><trkpt lat="40.7813945" lon="-3.7756016"><ele>1034.5</ele><time>2026-04-04T09:00:41.387Z</time></trkpt><trkpt lat="40.7813763" lon="-3.7757025"><ele>1035.0</ele><time>2026-04-04T09:00:42.387Z</time></trkpt><trkpt lat="40.7813533" lon="-3.7758073"><ele>1035.0</ele><time>2026-04-04T09:00:43.386Z</time></trkpt><trkpt lat="40.7813282" lon="-3.7759122"><ele>1035.0</ele><time>2026-04-04T09:00:44.386Z</time></trkpt><trkpt lat="40.7813056" lon="-3.7760175"><ele>1035.0</ele><time>2026-04-04T09:00:45.387Z</time></trkpt><trkpt lat="40.7812886" lon="-3.7761263"><ele>1035.0</ele><time>2026-04-04T09:00:46.387Z</time></trkpt><trkpt lat="40.7812671" lon="-3.7762386"><ele>1035.0</ele><time>2026-04-04T09:00:47.386Z</time></trkpt><trkpt lat="40.781248" lon="-3.7763464"><ele>1035.0</ele><time>2026-04-04T09:00:48.387Z</time></trkpt><trkpt lat="40.781225" lon="-3.7764567"><ele>1036.0</ele><time>2026-04-04T09:00:49.387Z</time></trkpt><trkpt lat="40.781206" lon="-3.7765541"><ele>1037.0</ele><time>2026-04-04T09:00:50.386Z</time></trkpt><trkpt lat="40.7811859" lon="-3.7766447"><ele>1038.0</ele><time>2026-04-04T09:00:51.386Z</time></trkpt><trkpt lat="40.7811697" lon="-3.7767445"><ele>1039.0</ele><time>2026-04-04T09:00:52.387Z</time></trkpt><trkpt lat="40.7811587" lon="-3.7768546"><ele>1040.0</ele><time>2026-04-04T09:00:53.386Z</time></trkpt><trkpt lat="40.7811544" lon="-3.7769696"><ele>1041.0</ele><time>2026-04-04T09:00:54.387Z</time></trkpt><trkpt lat="40.7811509" lon="-3.7770921"><ele>1041.5</ele><time>2026-04-04T09:00:55.387Z</time></trkpt><trkpt lat="40.7811556" lon="-3.7772058"><ele>1042.0</ele><time>2026-04-04T09:00:56.387Z</time></trkpt><trkpt lat="40.7811739" lon="-3.7773125"><ele>1042.5</ele><time>2026-04-04T09:00:57.386Z</time></trkpt><trkpt lat="40.7811967" lon="-3.7774081"><ele>1043.0</ele><time>2026-04-04T09:00:58.386Z</time></trkpt><trkpt lat="40.7812062" lon="-3.7775151"><ele>1043.5</ele><time>2026-04-04T09:00:59.387Z</time></trkpt><trkpt lat="40.7812072" lon="-3.7776349"><ele>1044.0</ele><time>2026-04-04T09:01:00.387Z</time></trkpt><trkpt lat="40.7812" lon="-3.7777653"><ele>1044.0</ele><time>2026-04-04T09:01:01.387Z</time></trkpt><trkpt lat="40.7811896" lon="-3.7778902"><ele>1044.0</ele><time>2026-04-04T09:01:02.387Z</time></trkpt><trkpt lat="40.781177" lon="-3.7780152"><ele>1044.0</ele><time>2026-04-04T09:01:03.387Z</time></trkpt><trkpt lat="40.7811648" lon="-3.7781308"><ele>1044.0</ele><time>2026-04-04T09:01:04.386Z</time></trkpt><trkpt lat="40.7811534" lon="-3.7782408"><ele>1044.0</ele><time>2026-04-04T09:01:05.387Z</time></trkpt><trkpt lat="40.7811475" lon="-3.7783474"><ele>1044.0</ele><time>2026-04-04T09:01:06.387Z</time></trkpt><trkpt lat="40.7811488" lon="-3.7784572"><ele>1043.4</ele><time>2026-04-04T09:01:07.387Z</time></trkpt><trkpt lat="40.7811595" lon="-3.778577"><ele>1042.8000000000002</ele><time>2026-04-04T09:01:08.387Z</time></trkpt><trkpt lat="40.7811834" lon="-3.7786882"><ele>1042.1999999999998</ele><time>2026-04-04T09:01:09.386Z</time></trkpt><trkpt lat="40.7812197" lon="-3.7787956"><ele>1041.6</ele><time>2026-04-04T09:01:10.387Z</time></trkpt><trkpt lat="40.781264" lon="-3.7788994"><ele>1041.0</ele><time>2026-04-04T09:01:11.387Z</time></trkpt><trkpt lat="40.7813272" lon="-3.779"><ele>1041.0</ele><time>2026-04-04T09:01:12.386Z</time></trkpt><trkpt lat="40.781394" lon="-3.7790998"><ele>1041.0</ele><time>2026-04-04T09:01:13.387Z</time></trkpt><trkpt lat="40.7814611" lon="-3.7791907"><ele>1041.0</ele><time>2026-04-04T09:01:14.386Z</time></trkpt><trkpt lat="40.7815251" lon="-3.7792813"><ele>1041.0</ele><time>2026-04-04T09:01:15.387Z</time></trkpt><trkpt lat="40.781589" lon="-3.7793623"><ele>1041.0</ele><time>2026-04-04T09:01:16.387Z</time></trkpt><trkpt lat="40.7816486" lon="-3.7794431"><ele>1039.8333333333333</ele><time>2026-04-04T09:01:17.387Z</time></trkpt><trkpt lat="40.781705" lon="-3.7795284"><ele>1038.6666666666667</ele><time>2026-04-04T09:01:18.387Z</time></trkpt><trkpt lat="40.7817571" lon="-3.7796171"><ele>1037.5</ele><time>2026-04-04T09:01:19.386Z</time></trkpt><trkpt lat="40.7817941" lon="-3.7797158"><ele>1036.3333333333335</ele><time>2026-04-04T09:01:20.386Z</time></trkpt><trkpt lat="40.7818212" lon="-3.7798166"><ele>1035.1666666666667</ele><time>2026-04-04T09:01:21.387Z</time></trkpt><trkpt lat="40.781833" lon="-3.7799196"><ele>1034.0</ele><time>2026-04-04T09:01:22.387Z</time></trkpt><trkpt lat="40.7818297" lon="-3.7800182"><ele>1034.0</ele><time>2026-04-04T09:01:23.387Z</time></trkpt><trkpt lat="40.7818215" lon="-3.7801263"><ele>1034.0</ele><time>2026-04-04T09:01:24.387Z</time></trkpt><trkpt lat="40.7818057" lon="-3.7802434"><ele>1034.0</ele><time>2026-04-04T09:01:25.387Z</time></trkpt><trkpt lat="40.7817798" lon="-3.7803548"><ele>1034.0</ele><time>2026-04-04T09:01:26.387Z</time></trkpt><trkpt lat="40.7817382" lon="-3.7804691"><ele>1034.0</ele><time>2026-04-04T09:01:27.387Z</time></trkpt><trkpt lat="40.7816876" lon="-3.7805875"><ele>1033.8</ele><time>2026-04-04T09:01:28.387Z</time></trkpt><trkpt lat="40.781632" lon="-3.7807072"><ele>1033.6000000000001</ele><time>2026-04-04T09:01:29.387Z</time></trkpt><trkpt lat="40.781582" lon="-3.7808314"><ele>1033.4</ele><time>2026-04-04T09:01:30.387Z</time></trkpt><trkpt lat="40.7815333" lon="-3.780958"><ele>1033.2</ele><time>2026-04-04T09:01:31.387Z</time></trkpt><trkpt lat="40.7814792" lon="-3.7810887"><ele>1033.0</ele><time>2026-04-04T09:01:32.387Z</time></trkpt><trkpt lat="40.7814153" lon="-3.7812164"><ele>1032.4</ele><time>2026-04-04T09:01:33.387Z</time></trkpt><trkpt lat="40.781349" lon="-3.7813377"><ele>1031.8</ele><time>2026-04-04T09:01:34.386Z</time></trkpt><trkpt lat="40.7812809" lon="-3.7814524"><ele>1031.2</ele><time>2026-04-04T09:01:35.387Z</time></trkpt><trkpt lat="40.7812143" lon="-3.7815597"><ele>1030.6</ele><time>2026-04-04T09:01:36.387Z</time></trkpt><trkpt lat="40.7811524" lon="-3.7816679"><ele>1030.0</ele><time>2026-04-04T09:01:37.386Z</time></trkpt><trkpt lat="40.7810994" lon="-3.7817757"><ele>1029.2</ele><time>2026-04-04T09:01:38.387Z</time></trkpt><trkpt lat="40.7810612" lon="-3.781895"><ele>1028.4</ele><time>2026-04-04T09:01:39.387Z</time></trkpt><trkpt lat="40.7810265" lon="-3.7820242"><ele>1027.6</ele><time>2026-04-04T09:01:40.387Z</time></trkpt><trkpt lat="40.7809971" lon="-3.78216"><ele>1026.8</ele><time>2026-04-04T09:01:41.387Z</time></trkpt><trkpt lat="40.7809703" lon="-3.7822952"><ele>1026.0</ele><time>2026-04-04T09:01:42.386Z</time></trkpt><trkpt lat="40.7809459" lon="-3.7824319"><ele>1025.2</ele><time>2026-04-04T09:01:43.386Z</time></trkpt><trkpt lat="40.78092" lon="-3.7825594"><ele>1024.3999999999999</ele><time>2026-04-04T09:01:44.387Z</time></trkpt><trkpt lat="40.7808981" lon="-3.7826833"><ele>1023.6</ele><time>2026-04-04T09:01:45.387Z</time></trkpt><trkpt lat="40.7808778" lon="-3.7828067"><ele>1022.8</ele><time>2026-04-04T09:01:46.387Z</time></trkpt><trkpt lat="40.7808615" lon="-3.7829389"><ele>1022.0</ele><time>2026-04-04T09:01:47.386Z</time></trkpt><trkpt lat="40.7808561" lon="-3.7830715"><ele>1021.8</ele><time>2026-04-04T09:01:48.387Z</time></trkpt><trkpt lat="40.7808602" lon="-3.783206"><ele>1021.6</ele><time>2026-04-04T09:01:49.387Z</time></trkpt><trkpt lat="40.7808715" lon="-3.7833427"><ele>1021.3999999999999</ele><time>2026-04-04T09:01:50.387Z</time></trkpt><trkpt lat="40.7808831" lon="-3.7834841"><ele>1021.1999999999999</ele><time>2026-04-04T09:01:51.386Z</time></trkpt><trkpt lat="40.7809043" lon="-3.7836294"><ele>1021.0</ele><time>2026-04-04T09:01:52.386Z</time></trkpt><trkpt lat="40.7809303" lon="-3.7837668"><ele>1021.0</ele><time>2026-04-04T09:01:53.387Z</time></trkpt><trkpt lat="40.7809495" lon="-3.7839073"><ele>1021.0</ele><time>2026-04-04T09:01:54.387Z</time></trkpt><trkpt lat="40.7809581" lon="-3.7840547"><ele>1021.0</ele><time>2026-04-04T09:01:55.386Z</time></trkpt><trkpt lat="40.780961" lon="-3.7842091"><ele>1021.0</ele><time>2026-04-04T09:01:56.387Z</time></trkpt><trkpt lat="40.7809495" lon="-3.7843637"><ele>1021.5</ele><time>2026-04-04T09:01:57.387Z</time></trkpt><trkpt lat="40.7809325" lon="-3.7845182"><ele>1022.0</ele><time>2026-04-04T09:01:58.387Z</time></trkpt><trkpt lat="40.7809267" lon="-3.7846701"><ele>1022.5</ele><time>2026-04-04T09:01:59.386Z</time></trkpt><trkpt lat="40.7809288" lon="-3.7848225"><ele>1023.0</ele><time>2026-04-04T09:02:00.387Z</time></trkpt><trkpt lat="40.7809382" lon="-3.7849786"><ele>1023.0</ele><time>2026-04-04T09:02:01.387Z</time></trkpt><trkpt lat="40.7809459" lon="-3.7851267"><ele>1023.0</ele><time>2026-04-04T09:02:02.387Z</time></trkpt><trkpt lat="40.7809501" lon="-3.7852686"><ele>1023.0</ele><time>2026-04-04T09:02:03.386Z</time></trkpt><trkpt lat="40.7809434" lon="-3.7854112"><ele>1023.0</ele><time>2026-04-04T09:02:04.386Z</time></trkpt><trkpt lat="40.7809296" lon="-3.7855583"><ele>1023.0</ele><time>2026-04-04T09:02:05.386Z</time></trkpt><trkpt lat="40.7809134" lon="-3.7857021"><ele>1023.4</ele><time>2026-04-04T09:02:06.386Z</time></trkpt><trkpt lat="40.7808884" lon="-3.7858463"><ele>1023.8</ele><time>2026-04-04T09:02:07.387Z</time></trkpt><trkpt lat="40.7808568" lon="-3.7859863"><ele>1024.2</ele><time>2026-04-04T09:02:08.387Z</time></trkpt><trkpt lat="40.7808261" lon="-3.7861128"><ele>1024.6</ele><time>2026-04-04T09:02:09.386Z</time></trkpt><trkpt lat="40.7808014" lon="-3.7862348"><ele>1025.0</ele><time>2026-04-04T09:02:10.387Z</time></trkpt><trkpt lat="40.7807819" lon="-3.7863562"><ele>1025.2</ele><time>2026-04-04T09:02:11.387Z</time></trkpt><trkpt lat="40.7807797" lon="-3.7864736"><ele>1025.4</ele><time>2026-04-04T09:02:12.386Z</time></trkpt><trkpt lat="40.7808019" lon="-3.7865887"><ele>1025.6</ele><time>2026-04-04T09:02:13.386Z</time></trkpt><trkpt lat="40.7808351" lon="-3.7867042"><ele>1025.8</ele><time>2026-04-04T09:02:14.386Z</time></trkpt><trkpt lat="40.7808655" lon="-3.7868195"><ele>1026.0</ele><time>2026-04-04T09:02:15.387Z</time></trkpt><trkpt lat="40.7808897" lon="-3.786943"><ele>1026.0</ele><time>2026-04-04T09:02:16.387Z</time></trkpt><trkpt lat="40.780903" lon="-3.7870822"><ele>1026.0</ele><time>2026-04-04T09:02:17.386Z</time></trkpt><trkpt lat="40.7809158" lon="-3.7872164"><ele>1026.0</ele><time>2026-04-04T09:02:18.387Z</time></trkpt><trkpt lat="40.7809374" lon="-3.787343"><ele>1026.0</ele><time>2026-04-04T09:02:19.387Z</time></trkpt><trkpt lat="40.7809703" lon="-3.7874588"><ele>1026.0</ele><time>2026-04-04T09:02:20.387Z</time></trkpt><trkpt lat="40.7810193" lon="-3.7875726"><ele>1027.5</ele><time>2026-04-04T09:02:21.387Z</time></trkpt><trkpt lat="40.7810624" lon="-3.7876872"><ele>1029.0</ele><time>2026-04-04T09:02:22.386Z</time></trkpt><trkpt lat="40.7810976" lon="-3.7877986"><ele>1030.5</ele><time>2026-04-04T09:02:23.386Z</time></trkpt><trkpt lat="40.7811134" lon="-3.7879129"><ele>1032.0</ele><time>2026-04-04T09:02:24.387Z</time></trkpt><trkpt lat="40.7811098" lon="-3.7880244"><ele>1033.5</ele><time>2026-04-04T09:02:25.387Z</time></trkpt><trkpt lat="40.7810823" lon="-3.7881352"><ele>1035.0</ele><time>2026-04-04T09:02:26.386Z</time></trkpt><trkpt lat="40.7810469" lon="-3.7882452"><ele>1034.8</ele><time>2026-04-04T09:02:27.387Z</time></trkpt><trkpt lat="40.7810115" lon="-3.7883644"><ele>1034.6</ele><time>2026-04-04T09:02:28.387Z</time></trkpt><trkpt lat="40.7809766" lon="-3.7884919"><ele>1034.4</ele><time>2026-04-04T09:02:29.387Z</time></trkpt><trkpt lat="40.780956" lon="-3.7886275"><ele>1034.2</ele><time>2026-04-04T09:02:30.387Z</time></trkpt><trkpt lat="40.7809413" lon="-3.7887768"><ele>1034.0</ele><time>2026-04-04T09:02:31.387Z</time></trkpt><trkpt lat="40.7809155" lon="-3.7889287"><ele>1034.0</ele><time>2026-04-04T09:02:32.386Z</time></trkpt><trkpt lat="40.7808923" lon="-3.7890806"><ele>1034.0</ele><time>2026-04-04T09:02:33.387Z</time></trkpt><trkpt lat="40.7808653" lon="-3.7892196"><ele>1034.0</ele><time>2026-04-04T09:02:34.387Z</time></trkpt><trkpt lat="40.7808386" lon="-3.7893611"><ele>1034.0</ele><time>2026-04-04T09:02:35.387Z</time></trkpt><trkpt lat="40.7808073" lon="-3.7894959"><ele>1034.0</ele><time>2026-04-04T09:02:36.387Z</time></trkpt><trkpt lat="40.7807869" lon="-3.7896375"><ele>1034.2</ele><time>2026-04-04T09:02:37.388Z</time></trkpt><trkpt lat="40.7807691" lon="-3.7897678"><ele>1034.4</ele><time>2026-04-04T09:02:38.388Z</time></trkpt><trkpt lat="40.7807567" lon="-3.7899073"><ele>1034.6</ele><time>2026-04-04T09:02:39.388Z</time></trkpt><trkpt lat="40.7807426" lon="-3.7900388"><ele>1034.8</ele><time>2026-04-04T09:02:40.388Z</time></trkpt><trkpt lat="40.7807286" lon="-3.7901827"><ele>1035.0</ele><time>2026-04-04T09:02:41.388Z</time></trkpt><trkpt lat="40.7807262" lon="-3.7903238"><ele>1035.4</ele><time>2026-04-04T09:02:42.388Z</time></trkpt><trkpt lat="40.7807371" lon="-3.7904668"><ele>1035.8</ele><time>2026-04-04T09:02:43.387Z</time></trkpt><trkpt lat="40.7807501" lon="-3.7906054"><ele>1036.2</ele><time>2026-04-04T09:02:44.387Z</time></trkpt><trkpt lat="40.7807568" lon="-3.7907494"><ele>1036.6</ele><time>2026-04-04T09:02:45.388Z</time></trkpt><trkpt lat="40.7807563" lon="-3.7908891"><ele>1037.0</ele><time>2026-04-04T09:02:46.387Z</time></trkpt><trkpt lat="40.7807545" lon="-3.791029"><ele>1037.0</ele><time>2026-04-04T09:02:47.388Z</time></trkpt><trkpt lat="40.7807522" lon="-3.7911619"><ele>1037.0</ele><time>2026-04-04T09:02:48.387Z</time></trkpt><trkpt lat="40.7807483" lon="-3.7912923"><ele>1037.0</ele><time>2026-04-04T09:02:49.388Z</time></trkpt><trkpt lat="40.7807361" lon="-3.791408"><ele>1037.0</ele><time>2026-04-04T09:02:50.387Z</time></trkpt><trkpt lat="40.7807051" lon="-3.791505"><ele>1037.0</ele><time>2026-04-04T09:02:51.388Z</time></trkpt><trkpt lat="40.7806537" lon="-3.7915825"><ele>1037.0</ele><time>2026-04-04T09:02:52.387Z</time></trkpt><trkpt lat="40.7805993" lon="-3.7916619"><ele>1037.0</ele><time>2026-04-04T09:02:53.388Z</time></trkpt><trkpt lat="40.7805397" lon="-3.7917384"><ele>1037.0</ele><time>2026-04-04T09:02:54.387Z</time></trkpt><trkpt lat="40.780474" lon="-3.7918209"><ele>1037.0</ele><time>2026-04-04T09:02:55.388Z</time></trkpt><trkpt lat="40.7804231" lon="-3.7918984"><ele>1037.0</ele><time>2026-04-04T09:02:56.388Z</time></trkpt><trkpt lat="40.7803901" lon="-3.7919823"><ele>1037.0</ele><time>2026-04-04T09:02:57.388Z</time></trkpt><trkpt lat="40.7803699" lon="-3.7920748"><ele>1037.0</ele><time>2026-04-04T09:02:58.388Z</time></trkpt><trkpt lat="40.7803528" lon="-3.7921654"><ele>1036.8333333333335</ele><time>2026-04-04T09:02:59.388Z</time></trkpt><trkpt lat="40.7803259" lon="-3.7922602"><ele>1036.6666666666667</ele><time>2026-04-04T09:03:00.388Z</time></trkpt><trkpt lat="40.7802928" lon="-3.7923501"><ele>1036.5</ele><time>2026-04-04T09:03:01.388Z</time></trkpt><trkpt lat="40.7802565" lon="-3.7924397"><ele>1036.3333333333333</ele><time>2026-04-04T09:03:02.388Z</time></trkpt><trkpt lat="40.7802122" lon="-3.7925384"><ele>1036.1666666666665</ele><time>2026-04-04T09:03:03.388Z</time></trkpt><trkpt lat="40.780159" lon="-3.7926321"><ele>1036.0</ele><time>2026-04-04T09:03:04.388Z</time></trkpt><trkpt lat="40.7801077" lon="-3.7927307"><ele>1036.0</ele><time>2026-04-04T09:03:05.387Z</time></trkpt><trkpt lat="40.7800551" lon="-3.7928318"><ele>1036.0</ele><time>2026-04-04T09:03:06.387Z</time></trkpt><trkpt lat="40.7800185" lon="-3.7929372"><ele>1036.0</ele><time>2026-04-04T09:03:07.388Z</time></trkpt><trkpt lat="40.7799983" lon="-3.7930476"><ele>1036.0</ele><time>2026-04-04T09:03:08.388Z</time></trkpt><trkpt lat="40.7799855" lon="-3.7931538"><ele>1036.0</ele><time>2026-04-04T09:03:09.388Z</time></trkpt><trkpt lat="40.7799753" lon="-3.7932659"><ele>1036.0</ele><time>2026-04-04T09:03:10.388Z</time></trkpt><trkpt lat="40.7799516" lon="-3.7933618"><ele>1036.0</ele><time>2026-04-04T09:03:11.388Z</time></trkpt><trkpt lat="40.7799256" lon="-3.7934706"><ele>1036.0</ele><time>2026-04-04T09:03:12.388Z</time></trkpt><trkpt lat="40.7799105" lon="-3.7935809"><ele>1036.0</ele><time>2026-04-04T09:03:13.387Z</time></trkpt><trkpt lat="40.7799142" lon="-3.7937001"><ele>1036.0</ele><time>2026-04-04T09:03:14.388Z</time></trkpt><trkpt lat="40.779913" lon="-3.7938292"><ele>1036.0</ele><time>2026-04-04T09:03:15.387Z</time></trkpt><trkpt lat="40.7799003" lon="-3.7939704"><ele>1036.3999999999999</ele><time>2026-04-04T09:03:16.388Z</time></trkpt><trkpt lat="40.7798708" lon="-3.7941115"><ele>1036.8</ele><time>2026-04-04T09:03:17.388Z</time></trkpt><trkpt lat="40.7798416" lon="-3.7942548"><ele>1037.1999999999998</ele><time>2026-04-04T09:03:18.388Z</time></trkpt><trkpt lat="40.7798193" lon="-3.7943908"><ele>1037.6</ele><time>2026-04-04T09:03:19.388Z</time></trkpt><trkpt lat="40.7798091" lon="-3.7945166"><ele>1038.0</ele><time>2026-04-04T09:03:20.388Z</time></trkpt><trkpt lat="40.7798113" lon="-3.7946327"><ele>1038.0</ele><time>2026-04-04T09:03:21.388Z</time></trkpt><trkpt lat="40.779821" lon="-3.7947385"><ele>1038.0</ele><time>2026-04-04T09:03:22.388Z</time></trkpt><trkpt lat="40.77983" lon="-3.7948387"><ele>1038.0</ele><time>2026-04-04T09:03:23.388Z</time></trkpt><trkpt lat="40.7798142" lon="-3.7949382"><ele>1038.0</ele><time>2026-04-04T09:03:24.387Z</time></trkpt><trkpt lat="40.7797814" lon="-3.7950277"><ele>1038.0</ele><time>2026-04-04T09:03:25.388Z</time></trkpt><trkpt lat="40.7797288" lon="-3.795122"><ele>1038.0</ele><time>2026-04-04T09:03:26.388Z</time></trkpt><trkpt lat="40.7796739" lon="-3.7952265"><ele>1038.0</ele><time>2026-04-04T09:03:27.388Z</time></trkpt><trkpt lat="40.7796306" lon="-3.7953405"><ele>1038.0</ele><time>2026-04-04T09:03:28.388Z</time></trkpt><trkpt lat="40.7795969" lon="-3.7954547"><ele>1038.0</ele><time>2026-04-04T09:03:29.387Z</time></trkpt><trkpt lat="40.7795698" lon="-3.7955559"><ele>1038.0</ele><time>2026-04-04T09:03:30.388Z</time></trkpt><trkpt lat="40.7795507" lon="-3.7956615"><ele>1038.0</ele><time>2026-04-04T09:03:31.388Z</time></trkpt><trkpt lat="40.7795482" lon="-3.7957838"><ele>1038.0</ele><time>2026-04-04T09:03:32.388Z</time></trkpt><trkpt lat="40.7795563" lon="-3.7959097"><ele>1038.2</ele><time>2026-04-04T09:03:33.387Z</time></trkpt><trkpt lat="40.7795691" lon="-3.7960454"><ele>1038.4</ele><time>2026-04-04T09:03:34.388Z</time></trkpt><trkpt lat="40.7795872" lon="-3.7961659"><ele>1038.6000000000001</ele><time>2026-04-04T09:03:35.388Z</time></trkpt><trkpt lat="40.7796061" lon="-3.7962879"><ele>1038.8</ele><time>2026-04-04T09:03:36.388Z</time></trkpt><trkpt lat="40.7796289" lon="-3.7964043"><ele>1039.0</ele><time>2026-04-04T09:03:37.388Z</time></trkpt><trkpt lat="40.7796638" lon="-3.7965034"><ele>1039.0</ele><time>2026-04-04T09:03:38.388Z</time></trkpt><trkpt lat="40.7797114" lon="-3.796584"><ele>1039.0</ele><time>2026-04-04T09:03:39.387Z</time></trkpt><trkpt lat="40.7797668" lon="-3.7966432"><ele>1039.0</ele><time>2026-04-04T09:03:40.388Z</time></trkpt><trkpt lat="40.7798267" lon="-3.7966883"><ele>1039.0</ele><time>2026-04-04T09:03:41.388Z</time></trkpt><trkpt lat="40.7798898" lon="-3.7967226"><ele>1039.0</ele><time>2026-04-04T09:03:42.388Z</time></trkpt><trkpt lat="40.7799573" lon="-3.7967546"><ele>1039.0</ele><time>2026-04-04T09:03:43.388Z</time></trkpt><trkpt lat="40.7800604" lon="-3.7968144"><ele>1039.1666666666665</ele><time>2026-04-04T09:03:45.388Z</time></trkpt><trkpt lat="40.780103" lon="-3.7969322"><ele>1039.3333333333333</ele><time>2026-04-04T09:03:47.388Z</time></trkpt><trkpt lat="40.7800685" lon="-3.7970867"><ele>1039.5</ele><time>2026-04-04T09:03:49.388Z</time></trkpt><trkpt lat="40.7800388" lon="-3.7971606"><ele>1039.6666666666667</ele><time>2026-04-04T09:03:50.388Z</time></trkpt><trkpt lat="40.7799934" lon="-3.7972316"><ele>1039.8333333333335</ele><time>2026-04-04T09:03:51.388Z</time></trkpt><trkpt lat="40.7799514" lon="-3.7973147"><ele>1040.0</ele><time>2026-04-04T09:03:52.387Z</time></trkpt><trkpt lat="40.779918" lon="-3.7974086"><ele>1040.0</ele><time>2026-04-04T09:03:53.387Z</time></trkpt><trkpt lat="40.7799077" lon="-3.797523"><ele>1040.0</ele><time>2026-04-04T09:03:54.388Z</time></trkpt><trkpt lat="40.7799175" lon="-3.7976449"><ele>1040.0</ele><time>2026-04-04T09:03:55.387Z</time></trkpt><trkpt lat="40.7799293" lon="-3.797765"><ele>1040.0</ele><time>2026-04-04T09:03:56.388Z</time></trkpt><trkpt lat="40.7799384" lon="-3.7978759"><ele>1040.0</ele><time>2026-04-04T09:03:57.388Z</time></trkpt><trkpt lat="40.7799444" lon="-3.79799"><ele>1040.0</ele><time>2026-04-04T09:03:58.388Z</time></trkpt><trkpt lat="40.7799491" lon="-3.7981052"><ele>1040.8</ele><time>2026-04-04T09:03:59.388Z</time></trkpt><trkpt lat="40.7799571" lon="-3.7982277"><ele>1041.6</ele><time>2026-04-04T09:04:00.388Z</time></trkpt><trkpt lat="40.7799644" lon="-3.7983518"><ele>1042.4</ele><time>2026-04-04T09:04:01.388Z</time></trkpt><trkpt lat="40.7799783" lon="-3.7984782"><ele>1043.2</ele><time>2026-04-04T09:04:02.388Z</time></trkpt><trkpt lat="40.7799985" lon="-3.7985968"><ele>1044.0</ele><time>2026-04-04T09:04:03.388Z</time></trkpt><trkpt lat="40.7800274" lon="-3.7987049"><ele>1044.1666666666667</ele><time>2026-04-04T09:04:04.387Z</time></trkpt><trkpt lat="40.7800701" lon="-3.7988084"><ele>1044.3333333333333</ele><time>2026-04-04T09:04:05.388Z</time></trkpt><trkpt lat="40.7801201" lon="-3.7989055"><ele>1044.5</ele><time>2026-04-04T09:04:06.388Z</time></trkpt><trkpt lat="40.7801578" lon="-3.799006"><ele>1044.6666666666665</ele><time>2026-04-04T09:04:07.388Z</time></trkpt><trkpt lat="40.7801715" lon="-3.7991145"><ele>1044.8333333333333</ele><time>2026-04-04T09:04:08.388Z</time></trkpt><trkpt lat="40.7801545" lon="-3.7992357"><ele>1045.0</ele><time>2026-04-04T09:04:09.388Z</time></trkpt><trkpt lat="40.7801238" lon="-3.7993633"><ele>1045.8</ele><time>2026-04-04T09:04:10.387Z</time></trkpt><trkpt lat="40.7800863" lon="-3.7994824"><ele>1046.6</ele><time>2026-04-04T09:04:11.388Z</time></trkpt><trkpt lat="40.7800541" lon="-3.7995916"><ele>1047.4</ele><time>2026-04-04T09:04:12.388Z</time></trkpt><trkpt lat="40.7800256" lon="-3.7996986"><ele>1048.2</ele><time>2026-04-04T09:04:13.388Z</time></trkpt><trkpt lat="40.7800009" lon="-3.7998175"><ele>1049.0</ele><time>2026-04-04T09:04:14.388Z</time></trkpt><trkpt lat="40.7799796" lon="-3.7999487"><ele>1049.0</ele><time>2026-04-04T09:04:15.388Z</time></trkpt><trkpt lat="40.779949" lon="-3.8000863"><ele>1049.0</ele><time>2026-04-04T09:04:16.388Z</time></trkpt><trkpt lat="40.7799106" lon="-3.8002251"><ele>1049.0</ele><time>2026-04-04T09:04:17.387Z</time></trkpt><trkpt lat="40.7798591" lon="-3.8003529"><ele>1049.0</ele><time>2026-04-04T09:04:18.388Z</time></trkpt><trkpt lat="40.7797986" lon="-3.8004687"><ele>1049.0</ele><time>2026-04-04T09:04:19.388Z</time></trkpt><trkpt lat="40.7797371" lon="-3.8005708"><ele>1048.0</ele><time>2026-04-04T09:04:20.388Z</time></trkpt><trkpt lat="40.7796731" lon="-3.8006504"><ele>1047.0</ele><time>2026-04-04T09:04:21.387Z</time></trkpt><trkpt lat="40.7796036" lon="-3.8006976"><ele>1046.0</ele><time>2026-04-04T09:04:22.388Z</time></trkpt><trkpt lat="40.7795264" lon="-3.8007383"><ele>1045.0</ele><time>2026-04-04T09:04:23.388Z</time></trkpt><trkpt lat="40.7794353" lon="-3.8007812"><ele>1044.0</ele><time>2026-04-04T09:04:24.388Z</time></trkpt><trkpt lat="40.779341" lon="-3.800839"><ele>1044.0</ele><time>2026-04-04T09:04:25.387Z</time></trkpt><trkpt lat="40.7792449" lon="-3.8008985"><ele>1044.0</ele><time>2026-04-04T09:04:26.387Z</time></trkpt><trkpt lat="40.7791611" lon="-3.8009545"><ele>1044.0</ele><time>2026-04-04T09:04:27.388Z</time></trkpt><trkpt lat="40.7790889" lon="-3.8009939"><ele>1044.0</ele><time>2026-04-04T09:04:28.387Z</time></trkpt><trkpt lat="40.7790176" lon="-3.80103"><ele>1044.0</ele><time>2026-04-04T09:04:29.387Z</time></trkpt><trkpt lat="40.7789642" lon="-3.801149"><ele>1044.6666666666667</ele><time>2026-04-04T09:04:31.388Z</time></trkpt><trkpt lat="40.7789617" lon="-3.8012985"><ele>1045.3333333333333</ele><time>2026-04-04T09:04:33.388Z</time></trkpt><trkpt lat="40.7789766" lon="-3.8013808"><ele>1046.0</ele><time>2026-04-04T09:04:34.388Z</time></trkpt><trkpt lat="40.7789925" lon="-3.8014653"><ele>1046.6666666666665</ele><time>2026-04-04T09:04:35.388Z</time></trkpt><trkpt lat="40.7789955" lon="-3.8015524"><ele>1047.3333333333333</ele><time>2026-04-04T09:04:36.387Z</time></trkpt><trkpt lat="40.7789738" lon="-3.8016543"><ele>1048.0</ele><time>2026-04-04T09:04:37.388Z</time></trkpt><trkpt lat="40.7789223" lon="-3.8017567"><ele>1048.5</ele><time>2026-04-04T09:04:38.388Z</time></trkpt><trkpt lat="40.7788633" lon="-3.801862"><ele>1049.0</ele><time>2026-04-04T09:04:39.388Z</time></trkpt><trkpt lat="40.7788185" lon="-3.8019656"><ele>1049.5</ele><time>2026-04-04T09:04:40.388Z</time></trkpt><trkpt lat="40.7787822" lon="-3.8020635"><ele>1050.0</ele><time>2026-04-04T09:04:41.387Z</time></trkpt><trkpt lat="40.7787562" lon="-3.8021689"><ele>1050.5</ele><time>2026-04-04T09:04:42.388Z</time></trkpt><trkpt lat="40.778737" lon="-3.8022833"><ele>1051.0</ele><time>2026-04-04T09:04:43.388Z</time></trkpt><trkpt lat="40.7787208" lon="-3.8024053"><ele>1051.0</ele><time>2026-04-04T09:04:44.388Z</time></trkpt><trkpt lat="40.7787048" lon="-3.8025212"><ele>1051.0</ele><time>2026-04-04T09:04:45.388Z</time></trkpt><trkpt lat="40.7786876" lon="-3.8026461"><ele>1051.0</ele><time>2026-04-04T09:04:46.388Z</time></trkpt><trkpt lat="40.7786814" lon="-3.8027825"><ele>1051.0</ele><time>2026-04-04T09:04:47.387Z</time></trkpt><trkpt lat="40.7786706" lon="-3.8029151"><ele>1051.0</ele><time>2026-04-04T09:04:48.388Z</time></trkpt><trkpt lat="40.7786546" lon="-3.8030453"><ele>1050.6</ele><time>2026-04-04T09:04:49.387Z</time></trkpt><trkpt lat="40.7786303" lon="-3.8031742"><ele>1050.1999999999998</ele><time>2026-04-04T09:04:50.388Z</time></trkpt><trkpt lat="40.7786025" lon="-3.8033044"><ele>1049.8000000000002</ele><time>2026-04-04T09:04:51.388Z</time></trkpt><trkpt lat="40.7785698" lon="-3.8034337"><ele>1049.4</ele><time>2026-04-04T09:04:52.388Z</time></trkpt><trkpt lat="40.7785339" lon="-3.8035654"><ele>1049.0</ele><time>2026-04-04T09:04:53.388Z</time></trkpt><trkpt lat="40.7784968" lon="-3.8037007"><ele>1049.0</ele><time>2026-04-04T09:04:54.388Z</time></trkpt><trkpt lat="40.7784488" lon="-3.8038348"><ele>1049.0</ele><time>2026-04-04T09:04:55.387Z</time></trkpt><trkpt lat="40.7783962" lon="-3.8039675"><ele>1049.0</ele><time>2026-04-04T09:04:56.388Z</time></trkpt><trkpt lat="40.7783429" lon="-3.804093"><ele>1049.0</ele><time>2026-04-04T09:04:57.388Z</time></trkpt><trkpt lat="40.7782926" lon="-3.8042089"><ele>1049.0</ele><time>2026-04-04T09:04:58.387Z</time></trkpt><trkpt lat="40.7782433" lon="-3.8043176"><ele>1049.4</ele><time>2026-04-04T09:04:59.387Z</time></trkpt><trkpt lat="40.7781985" lon="-3.8044179"><ele>1049.8000000000002</ele><time>2026-04-04T09:05:00.387Z</time></trkpt><trkpt lat="40.778155" lon="-3.8045189"><ele>1050.1999999999998</ele><time>2026-04-04T09:05:01.388Z</time></trkpt><trkpt lat="40.7781089" lon="-3.8046272"><ele>1050.6</ele><time>2026-04-04T09:05:02.388Z</time></trkpt><trkpt lat="40.7780656" lon="-3.804738"><ele>1051.0</ele><time>2026-04-04T09:05:03.387Z</time></trkpt><trkpt lat="40.7780201" lon="-3.8048499"><ele>1051.0</ele><time>2026-04-04T09:05:04.387Z</time></trkpt><trkpt lat="40.7779728" lon="-3.8049677"><ele>1051.0</ele><time>2026-04-04T09:05:05.388Z</time></trkpt><trkpt lat="40.7779218" lon="-3.8050985"><ele>1051.0</ele><time>2026-04-04T09:05:06.387Z</time></trkpt><trkpt lat="40.7778684" lon="-3.8052343"><ele>1051.0</ele><time>2026-04-04T09:05:07.388Z</time></trkpt><trkpt lat="40.7778209" lon="-3.8053716"><ele>1051.0</ele><time>2026-04-04T09:05:08.388Z</time></trkpt><trkpt lat="40.7777713" lon="-3.8055042"><ele>1051.25</ele><time>2026-04-04T09:05:09.388Z</time></trkpt><trkpt lat="40.7777185" lon="-3.8056373"><ele>1051.5</ele><time>2026-04-04T09:05:10.388Z</time></trkpt><trkpt lat="40.777666" lon="-3.8057746"><ele>1051.75</ele><time>2026-04-04T09:05:11.387Z</time></trkpt><trkpt lat="40.7776096" lon="-3.8059115"><ele>1052.0</ele><time>2026-04-04T09:05:12.387Z</time></trkpt><trkpt lat="40.7775549" lon="-3.8060465"><ele>1052.0</ele><time>2026-04-04T09:05:13.388Z</time></trkpt><trkpt lat="40.777501" lon="-3.8061749"><ele>1052.0</ele><time>2026-04-04T09:05:14.387Z</time></trkpt><trkpt lat="40.7774527" lon="-3.8063007"><ele>1052.0</ele><time>2026-04-04T09:05:15.387Z</time></trkpt><trkpt lat="40.7774064" lon="-3.806433"><ele>1052.0</ele><time>2026-04-04T09:05:16.388Z</time></trkpt><trkpt lat="40.7773543" lon="-3.8065609"><ele>1052.0</ele><time>2026-04-04T09:05:17.388Z</time></trkpt><trkpt lat="40.7773011" lon="-3.8066841"><ele>1052.0</ele><time>2026-04-04T09:05:18.388Z</time></trkpt><trkpt lat="40.7772523" lon="-3.806806"><ele>1052.0</ele><time>2026-04-04T09:05:19.388Z</time></trkpt><trkpt lat="40.7772047" lon="-3.8069254"><ele>1052.0</ele><time>2026-04-04T09:05:20.388Z</time></trkpt><trkpt lat="40.7771629" lon="-3.8070509"><ele>1052.0</ele><time>2026-04-04T09:05:21.388Z</time></trkpt><trkpt lat="40.7771247" lon="-3.8071727"><ele>1052.0</ele><time>2026-04-04T09:05:22.387Z</time></trkpt><trkpt lat="40.7770859" lon="-3.807311"><ele>1052.8</ele><time>2026-04-04T09:05:23.388Z</time></trkpt><trkpt lat="40.7770435" lon="-3.8074508"><ele>1053.6</ele><time>2026-04-04T09:05:24.388Z</time></trkpt><trkpt lat="40.7770026" lon="-3.807587"><ele>1054.3999999999999</ele><time>2026-04-04T09:05:25.388Z</time></trkpt><trkpt lat="40.776964" lon="-3.8077223"><ele>1055.2</ele><time>2026-04-04T09:05:26.388Z</time></trkpt><trkpt lat="40.7769228" lon="-3.8078608"><ele>1056.0</ele><time>2026-04-04T09:05:27.388Z</time></trkpt><trkpt lat="40.7768824" lon="-3.8080016"><ele>1055.75</ele><time>2026-04-04T09:05:28.388Z</time></trkpt><trkpt lat="40.7768502" lon="-3.8081499"><ele>1055.5</ele><time>2026-04-04T09:05:29.388Z</time></trkpt><trkpt lat="40.7768321" lon="-3.8083001"><ele>1055.25</ele><time>2026-04-04T09:05:30.388Z</time></trkpt><trkpt lat="40.7768111" lon="-3.808444"><ele>1055.0</ele><time>2026-04-04T09:05:31.387Z</time></trkpt><trkpt lat="40.7767728" lon="-3.808581"><ele>1055.5</ele><time>2026-04-04T09:05:32.387Z</time></trkpt><trkpt lat="40.7767228" lon="-3.808721"><ele>1056.0</ele><time>2026-04-04T09:05:33.388Z</time></trkpt><trkpt lat="40.7766671" lon="-3.8088604"><ele>1056.5</ele><time>2026-04-04T09:05:34.388Z</time></trkpt><trkpt lat="40.7766042" lon="-3.8089899"><ele>1057.0</ele><time>2026-04-04T09:05:35.388Z</time></trkpt><trkpt lat="40.7765392" lon="-3.8091101"><ele>1057.0</ele><time>2026-04-04T09:05:36.388Z</time></trkpt><trkpt lat="40.7764753" lon="-3.8092319"><ele>1057.0</ele><time>2026-04-04T09:05:37.388Z</time></trkpt><trkpt lat="40.7764017" lon="-3.809342"><ele>1057.0</ele><time>2026-04-04T09:05:38.388Z</time></trkpt><trkpt lat="40.7763195" lon="-3.8094442"><ele>1057.0</ele><time>2026-04-04T09:05:39.388Z</time></trkpt><trkpt lat="40.776241" lon="-3.8095464"><ele>1057.0</ele><time>2026-04-04T09:05:40.388Z</time></trkpt><trkpt lat="40.7761616" lon="-3.809656"><ele>1057.0</ele><time>2026-04-04T09:05:41.387Z</time></trkpt><trkpt lat="40.776095" lon="-3.8097752"><ele>1057.0</ele><time>2026-04-04T09:05:42.388Z</time></trkpt><trkpt lat="40.776038" lon="-3.8098983"><ele>1057.0</ele><time>2026-04-04T09:05:43.388Z</time></trkpt><trkpt lat="40.7759831" lon="-3.8100233"><ele>1057.0</ele><time>2026-04-04T09:05:44.388Z</time></trkpt><trkpt lat="40.7759236" lon="-3.8101471"><ele>1057.0</ele><time>2026-04-04T09:05:45.387Z</time></trkpt><trkpt lat="40.7758611" lon="-3.8102685"><ele>1057.6</ele><time>2026-04-04T09:05:46.388Z</time></trkpt><trkpt lat="40.7758008" lon="-3.8103908"><ele>1058.2</ele><time>2026-04-04T09:05:47.388Z</time></trkpt><trkpt lat="40.7757379" lon="-3.8105093"><ele>1058.8</ele><time>2026-04-04T09:05:48.388Z</time></trkpt><trkpt lat="40.7756684" lon="-3.8106195"><ele>1059.4</ele><time>2026-04-04T09:05:49.388Z</time></trkpt><trkpt lat="40.7755954" lon="-3.8107117"><ele>1060.0</ele><time>2026-04-04T09:05:50.388Z</time></trkpt><trkpt lat="40.7755172" lon="-3.8107809"><ele>1060.0</ele><time>2026-04-04T09:05:51.387Z</time></trkpt><trkpt lat="40.7754359" lon="-3.8108417"><ele>1060.0</ele><time>2026-04-04T09:05:52.388Z</time></trkpt><trkpt lat="40.7753486" lon="-3.8109049"><ele>1060.0</ele><time>2026-04-04T09:05:53.387Z</time></trkpt><trkpt lat="40.7752593" lon="-3.8109717"><ele>1060.0</ele><time>2026-04-04T09:05:54.387Z</time></trkpt><trkpt lat="40.7751682" lon="-3.8110405"><ele>1060.0</ele><time>2026-04-04T09:05:55.387Z</time></trkpt><trkpt lat="40.7750815" lon="-3.8111059"><ele>1060.4</ele><time>2026-04-04T09:05:56.388Z</time></trkpt><trkpt lat="40.774994" lon="-3.8111665"><ele>1060.8</ele><time>2026-04-04T09:05:57.387Z</time></trkpt><trkpt lat="40.7749118" lon="-3.8112299"><ele>1061.2</ele><time>2026-04-04T09:05:58.388Z</time></trkpt><trkpt lat="40.7748299" lon="-3.8112927"><ele>1061.6</ele><time>2026-04-04T09:05:59.387Z</time></trkpt><trkpt lat="40.7747491" lon="-3.8113527"><ele>1062.0</ele><time>2026-04-04T09:06:00.387Z</time></trkpt><trkpt lat="40.7746714" lon="-3.8114103"><ele>1062.0</ele><time>2026-04-04T09:06:01.388Z</time></trkpt><trkpt lat="40.7746021" lon="-3.8114583"><ele>1062.0</ele><time>2026-04-04T09:06:02.388Z</time></trkpt><trkpt lat="40.7745438" lon="-3.8115058"><ele>1062.0</ele><time>2026-04-04T09:06:03.388Z</time></trkpt><trkpt lat="40.7744443" lon="-3.81158"><ele>1062.0</ele><time>2026-04-04T09:06:05.388Z</time></trkpt><trkpt lat="40.774359" lon="-3.8116441"><ele>1062.0</ele><time>2026-04-04T09:06:07.388Z</time></trkpt><trkpt lat="40.7742695" lon="-3.811703"><ele>1062.4</ele><time>2026-04-04T09:06:09.388Z</time></trkpt><trkpt lat="40.7742016" lon="-3.8117573"><ele>1062.8000000000002</ele><time>2026-04-04T09:06:11.387Z</time></trkpt><trkpt lat="40.7742123" lon="-3.8118627"><ele>1063.2</ele><time>2026-04-04T09:06:14.387Z</time></trkpt><trkpt lat="40.7742928" lon="-3.8119296"><ele>1063.6000000000001</ele><time>2026-04-04T09:06:17.388Z</time></trkpt><trkpt lat="40.7743713" lon="-3.8119902"><ele>1064.0</ele><time>2026-04-04T09:06:19.387Z</time></trkpt><trkpt lat="40.7744694" lon="-3.8120657"><ele>1064.0</ele><time>2026-04-04T09:06:21.387Z</time></trkpt><trkpt lat="40.7745606" lon="-3.8121708"><ele>1064.0</ele><time>2026-04-04T09:06:23.388Z</time></trkpt><trkpt lat="40.7745994" lon="-3.8122414"><ele>1064.0</ele><time>2026-04-04T09:06:24.388Z</time></trkpt><trkpt lat="40.7746351" lon="-3.8123248"><ele>1064.0</ele><time>2026-04-04T09:06:25.387Z</time></trkpt><trkpt lat="40.7746595" lon="-3.812412"><ele>1064.0</ele><time>2026-04-04T09:06:26.388Z</time></trkpt><trkpt lat="40.7746757" lon="-3.8124963"><ele>1064.0</ele><time>2026-04-04T09:06:27.388Z</time></trkpt><trkpt lat="40.7746801" lon="-3.8125878"><ele>1064.1666666666667</ele><time>2026-04-04T09:06:28.388Z</time></trkpt><trkpt lat="40.7746871" lon="-3.8126947"><ele>1064.3333333333335</ele><time>2026-04-04T09:06:29.388Z</time></trkpt><trkpt lat="40.7746906" lon="-3.812819"><ele>1064.5</ele><time>2026-04-04T09:06:30.388Z</time></trkpt><trkpt lat="40.7746975" lon="-3.8129347"><ele>1064.6666666666667</ele><time>2026-04-04T09:06:31.387Z</time></trkpt><trkpt lat="40.7747001" lon="-3.8130551"><ele>1064.8333333333333</ele><time>2026-04-04T09:06:32.388Z</time></trkpt><trkpt lat="40.7746968" lon="-3.8131692"><ele>1065.0</ele><time>2026-04-04T09:06:33.387Z</time></trkpt><trkpt lat="40.7746976" lon="-3.8132768"><ele>1065.0</ele><time>2026-04-04T09:06:34.388Z</time></trkpt><trkpt lat="40.7746968" lon="-3.8133857"><ele>1065.0</ele><time>2026-04-04T09:06:35.388Z</time></trkpt><trkpt lat="40.7746969" lon="-3.8134966"><ele>1065.0</ele><time>2026-04-04T09:06:36.388Z</time></trkpt><trkpt lat="40.7746962" lon="-3.8136064"><ele>1065.0</ele><time>2026-04-04T09:06:37.388Z</time></trkpt><trkpt lat="40.7746956" lon="-3.8137188"><ele>1065.0</ele><time>2026-04-04T09:06:38.388Z</time></trkpt><trkpt lat="40.7746975" lon="-3.8138348"><ele>1065.0</ele><time>2026-04-04T09:06:39.387Z</time></trkpt><trkpt lat="40.774696" lon="-3.8139507"><ele>1065.1666666666667</ele><time>2026-04-04T09:06:40.387Z</time></trkpt><trkpt lat="40.7746927" lon="-3.8140544"><ele>1065.3333333333333</ele><time>2026-04-04T09:06:41.387Z</time></trkpt><trkpt lat="40.7746882" lon="-3.8141575"><ele>1065.5</ele><time>2026-04-04T09:06:42.388Z</time></trkpt><trkpt lat="40.7746868" lon="-3.8142652"><ele>1065.6666666666665</ele><time>2026-04-04T09:06:43.388Z</time></trkpt><trkpt lat="40.7746868" lon="-3.8143788"><ele>1065.8333333333333</ele><time>2026-04-04T09:06:44.387Z</time></trkpt><trkpt lat="40.7746909" lon="-3.8144942"><ele>1066.0</ele><time>2026-04-04T09:06:45.387Z</time></trkpt><trkpt lat="40.7746983" lon="-3.8146108"><ele>1066.6666666666665</ele><time>2026-04-04T09:06:46.388Z</time></trkpt><trkpt lat="40.774708" lon="-3.8147254"><ele>1067.3333333333333</ele><time>2026-04-04T09:06:47.388Z</time></trkpt><trkpt lat="40.774713" lon="-3.8148322"><ele>1068.0</ele><time>2026-04-04T09:06:48.388Z</time></trkpt><trkpt lat="40.7747171" lon="-3.8149371"><ele>1068.6666666666667</ele><time>2026-04-04T09:06:49.387Z</time></trkpt><trkpt lat="40.7747174" lon="-3.8150469"><ele>1069.3333333333335</ele><time>2026-04-04T09:06:50.388Z</time></trkpt><trkpt lat="40.7747108" lon="-3.8151486"><ele>1070.0</ele><time>2026-04-04T09:06:51.387Z</time></trkpt><trkpt lat="40.7747119" lon="-3.8152445"><ele>1070.1666666666667</ele><time>2026-04-04T09:06:52.388Z</time></trkpt><trkpt lat="40.774713" lon="-3.8153387"><ele>1070.3333333333335</ele><time>2026-04-04T09:06:53.388Z</time></trkpt><trkpt lat="40.7747167" lon="-3.8154406"><ele>1070.5</ele><time>2026-04-04T09:06:54.388Z</time></trkpt><trkpt lat="40.7747184" lon="-3.8155451"><ele>1070.6666666666667</ele><time>2026-04-04T09:06:55.388Z</time></trkpt><trkpt lat="40.7747173" lon="-3.815653"><ele>1070.8333333333333</ele><time>2026-04-04T09:06:56.388Z</time></trkpt><trkpt lat="40.7747148" lon="-3.8157561"><ele>1071.0</ele><time>2026-04-04T09:06:57.388Z</time></trkpt><trkpt lat="40.7747105" lon="-3.8158602"><ele>1071.0</ele><time>2026-04-04T09:06:58.387Z</time></trkpt><trkpt lat="40.7747049" lon="-3.8159687"><ele>1071.0</ele><time>2026-04-04T09:06:59.388Z</time></trkpt><trkpt lat="40.774697" lon="-3.8160718"><ele>1071.0</ele><time>2026-04-04T09:07:00.388Z</time></trkpt><trkpt lat="40.774684" lon="-3.8161713"><ele>1071.0</ele><time>2026-04-04T09:07:01.388Z</time></trkpt><trkpt lat="40.7746719" lon="-3.8162733"><ele>1071.0</ele><time>2026-04-04T09:07:02.388Z</time></trkpt><trkpt lat="40.7746597" lon="-3.8163773"><ele>1071.0</ele><time>2026-04-04T09:07:03.388Z</time></trkpt><trkpt lat="40.7746453" lon="-3.8164838"><ele>1071.0</ele><time>2026-04-04T09:07:04.388Z</time></trkpt><trkpt lat="40.7746305" lon="-3.8165836"><ele>1071.0</ele><time>2026-04-04T09:07:05.388Z</time></trkpt><trkpt lat="40.7746154" lon="-3.8166815"><ele>1071.0</ele><time>2026-04-04T09:07:06.388Z</time></trkpt><trkpt lat="40.7745993" lon="-3.816771"><ele>1071.0</ele><time>2026-04-04T09:07:07.388Z</time></trkpt><trkpt lat="40.7745816" lon="-3.81686"><ele>1071.0</ele><time>2026-04-04T09:07:08.388Z</time></trkpt><trkpt lat="40.774563" lon="-3.8169418"><ele>1071.0</ele><time>2026-04-04T09:07:09.387Z</time></trkpt><trkpt lat="40.7745465" lon="-3.817024"><ele>1071.0</ele><time>2026-04-04T09:07:10.388Z</time></trkpt><trkpt lat="40.7745283" lon="-3.8171038"><ele>1071.3333333333333</ele><time>2026-04-04T09:07:11.387Z</time></trkpt><trkpt lat="40.7744975" lon="-3.8172618"><ele>1071.6666666666667</ele><time>2026-04-04T09:07:13.387Z</time></trkpt><trkpt lat="40.7744659" lon="-3.8174188"><ele>1072.0</ele><time>2026-04-04T09:07:15.387Z</time></trkpt><trkpt lat="40.7744453" lon="-3.8174979"><ele>1072.3333333333335</ele><time>2026-04-04T09:07:16.387Z</time></trkpt><trkpt lat="40.7744295" lon="-3.8175805"><ele>1072.6666666666667</ele><time>2026-04-04T09:07:17.388Z</time></trkpt><trkpt lat="40.7744187" lon="-3.8176711"><ele>1073.0</ele><time>2026-04-04T09:07:18.388Z</time></trkpt><trkpt lat="40.7744057" lon="-3.8177634"><ele>1073.6666666666667</ele><time>2026-04-04T09:07:19.388Z</time></trkpt><trkpt lat="40.7743937" lon="-3.8178618"><ele>1074.3333333333335</ele><time>2026-04-04T09:07:20.388Z</time></trkpt><trkpt lat="40.7743845" lon="-3.8179615"><ele>1075.0</ele><time>2026-04-04T09:07:21.388Z</time></trkpt><trkpt lat="40.774371" lon="-3.8180764"><ele>1075.6666666666667</ele><time>2026-04-04T09:07:22.388Z</time></trkpt><trkpt lat="40.7743531" lon="-3.8182027"><ele>1076.3333333333333</ele><time>2026-04-04T09:07:23.388Z</time></trkpt><trkpt lat="40.7743381" lon="-3.8183227"><ele>1077.0</ele><time>2026-04-04T09:07:24.387Z</time></trkpt><trkpt lat="40.7743347" lon="-3.8184313"><ele>1076.0</ele><time>2026-04-04T09:07:25.388Z</time></trkpt><trkpt lat="40.7743301" lon="-3.8185389"><ele>1075.0</ele><time>2026-04-04T09:07:26.388Z</time></trkpt><trkpt lat="40.7743198" lon="-3.8186324"><ele>1074.0</ele><time>2026-04-04T09:07:27.387Z</time></trkpt><trkpt lat="40.7743001" lon="-3.8187132"><ele>1073.0</ele><time>2026-04-04T09:07:28.387Z</time></trkpt><trkpt lat="40.7742815" lon="-3.8187969"><ele>1072.0</ele><time>2026-04-04T09:07:29.388Z</time></trkpt><trkpt lat="40.7742696" lon="-3.8188846"><ele>1071.0</ele><time>2026-04-04T09:07:30.387Z</time></trkpt><trkpt lat="40.7742723" lon="-3.8189746"><ele>1070.0</ele><time>2026-04-04T09:07:31.387Z</time></trkpt><trkpt lat="40.7742893" lon="-3.8190621"><ele>1070.0</ele><time>2026-04-04T09:07:32.388Z</time></trkpt><trkpt lat="40.7743199" lon="-3.8191378"><ele>1070.0</ele><time>2026-04-04T09:07:33.388Z</time></trkpt><trkpt lat="40.774354" lon="-3.8192164"><ele>1070.0</ele><time>2026-04-04T09:07:34.388Z</time></trkpt><trkpt lat="40.7743755" lon="-3.8193019"><ele>1070.0</ele><time>2026-04-04T09:07:35.387Z</time></trkpt><trkpt lat="40.7743886" lon="-3.819396"><ele>1070.0</ele><time>2026-04-04T09:07:36.388Z</time></trkpt><trkpt lat="40.7744014" lon="-3.8194881"><ele>1070.0</ele><time>2026-04-04T09:07:37.387Z</time></trkpt><trkpt lat="40.7744187" lon="-3.8195755"><ele>1070.0</ele><time>2026-04-04T09:07:38.388Z</time></trkpt><trkpt lat="40.7744356" lon="-3.8197136"><ele>1071.0</ele><time>2026-04-04T09:07:40.388Z</time></trkpt><trkpt lat="40.7744324" lon="-3.8198011"><ele>1072.0</ele><time>2026-04-04T09:07:42.387Z</time></trkpt><trkpt lat="40.7743902" lon="-3.8198964"><ele>1073.0</ele><time>2026-04-04T09:07:44.388Z</time></trkpt><trkpt lat="40.7743587" lon="-3.8199939"><ele>1074.0</ele><time>2026-04-04T09:07:46.388Z</time></trkpt><trkpt lat="40.7743664" lon="-3.820094"><ele>1075.0</ele><time>2026-04-04T09:07:48.388Z</time></trkpt><trkpt lat="40.7744273" lon="-3.8201751"><ele>1076.0</ele><time>2026-04-04T09:07:50.387Z</time></trkpt><trkpt lat="40.7744941" lon="-3.8202034"><ele>1076.0</ele><time>2026-04-04T09:07:52.388Z</time></trkpt><trkpt lat="40.7745637" lon="-3.820223"><ele>1076.0</ele><time>2026-04-04T09:07:54.387Z</time></trkpt><trkpt lat="40.7746261" lon="-3.8202443"><ele>1076.0</ele><time>2026-04-04T09:07:57.388Z</time></trkpt><trkpt lat="40.7745495" lon="-3.8202489"><ele>1076.0</ele><time>2026-04-04T09:08:04.387Z</time></trkpt><trkpt lat="40.7744775" lon="-3.8202101"><ele>1076.0</ele><time>2026-04-04T09:08:06.387Z</time></trkpt><trkpt lat="40.7743906" lon="-3.8201173"><ele>1076.0</ele><time>2026-04-04T09:08:08.388Z</time></trkpt><trkpt lat="40.7743506" lon="-3.820005"><ele>1076.0</ele><time>2026-04-04T09:08:10.387Z</time></trkpt><trkpt lat="40.7743833" lon="-3.8198794"><ele>1076.0</ele><time>2026-04-04T09:08:12.388Z</time></trkpt><trkpt lat="40.7744243" lon="-3.8197815"><ele>1076.0</ele><time>2026-04-04T09:08:14.388Z</time></trkpt><trkpt lat="40.7744216" lon="-3.819662"><ele>1076.0</ele><time>2026-04-04T09:08:16.387Z</time></trkpt><trkpt lat="40.7744006" lon="-3.8195276"><ele>1076.0</ele><time>2026-04-04T09:08:18.388Z</time></trkpt><trkpt lat="40.7743736" lon="-3.8193731"><ele>1075.0</ele><time>2026-04-04T09:08:20.388Z</time></trkpt><trkpt lat="40.7743525" lon="-3.8192913"><ele>1074.0</ele><time>2026-04-04T09:08:21.388Z</time></trkpt><trkpt lat="40.7743245" lon="-3.8192084"><ele>1073.0</ele><time>2026-04-04T09:08:22.387Z</time></trkpt><trkpt lat="40.7742983" lon="-3.8191235"><ele>1072.0</ele><time>2026-04-04T09:08:23.387Z</time></trkpt><trkpt lat="40.7742648" lon="-3.8189789"><ele>1071.0</ele><time>2026-04-04T09:08:25.388Z</time></trkpt><trkpt lat="40.77426" lon="-3.8188231"><ele>1070.0</ele><time>2026-04-04T09:08:27.388Z</time></trkpt><trkpt lat="40.7742773" lon="-3.8187124"><ele>1070.0</ele><time>2026-04-04T09:08:29.388Z</time></trkpt><trkpt lat="40.7743065" lon="-3.8186196"><ele>1070.0</ele><time>2026-04-04T09:08:45.388Z</time></trkpt><trkpt lat="40.7743042" lon="-3.81849"><ele>1070.0</ele><time>2026-04-04T09:08:47.388Z</time></trkpt><trkpt lat="40.7743101" lon="-3.8183356"><ele>1070.0</ele><time>2026-04-04T09:08:49.388Z</time></trkpt><trkpt lat="40.774326" lon="-3.8182462"><ele>1070.0</ele><time>2026-04-04T09:08:50.388Z</time></trkpt><trkpt lat="40.7743434" lon="-3.8181489"><ele>1070.0</ele><time>2026-04-04T09:08:51.388Z</time></trkpt><trkpt lat="40.7743643" lon="-3.8180496"><ele>1070.5</ele><time>2026-04-04T09:08:52.388Z</time></trkpt><trkpt lat="40.7743897" lon="-3.8179462"><ele>1071.0</ele><time>2026-04-04T09:08:53.387Z</time></trkpt><trkpt lat="40.7744075" lon="-3.8178469"><ele>1071.5</ele><time>2026-04-04T09:08:54.388Z</time></trkpt><trkpt lat="40.7744238" lon="-3.8177534"><ele>1072.0</ele><time>2026-04-04T09:08:55.388Z</time></trkpt><trkpt lat="40.77444" lon="-3.8176634"><ele>1072.5</ele><time>2026-04-04T09:08:56.388Z</time></trkpt><trkpt lat="40.7744581" lon="-3.8175642"><ele>1073.0</ele><time>2026-04-04T09:08:57.388Z</time></trkpt><trkpt lat="40.7744752" lon="-3.8174555"><ele>1073.0</ele><time>2026-04-04T09:08:58.388Z</time></trkpt><trkpt lat="40.7744896" lon="-3.8173357"><ele>1073.0</ele><time>2026-04-04T09:08:59.388Z</time></trkpt><trkpt lat="40.7745066" lon="-3.8172112"><ele>1073.0</ele><time>2026-04-04T09:09:00.388Z</time></trkpt><trkpt lat="40.7745308" lon="-3.8170915"><ele>1073.0</ele><time>2026-04-04T09:09:01.388Z</time></trkpt><trkpt lat="40.774556" lon="-3.8169699"><ele>1073.0</ele><time>2026-04-04T09:09:02.388Z</time></trkpt><trkpt lat="40.7745836" lon="-3.8168413"><ele>1072.6</ele><time>2026-04-04T09:09:03.388Z</time></trkpt><trkpt lat="40.774606" lon="-3.8167152"><ele>1072.1999999999998</ele><time>2026-04-04T09:09:04.388Z</time></trkpt><trkpt lat="40.7746251" lon="-3.8165883"><ele>1071.8</ele><time>2026-04-04T09:09:05.388Z</time></trkpt><trkpt lat="40.7746423" lon="-3.8164651"><ele>1071.3999999999999</ele><time>2026-04-04T09:09:06.388Z</time></trkpt><trkpt lat="40.7746515" lon="-3.8163419"><ele>1071.0</ele><time>2026-04-04T09:09:07.388Z</time></trkpt><trkpt lat="40.7746626" lon="-3.8162235"><ele>1071.0</ele><time>2026-04-04T09:09:08.388Z</time></trkpt><trkpt lat="40.7746754" lon="-3.8160967"><ele>1071.0</ele><time>2026-04-04T09:09:09.387Z</time></trkpt><trkpt lat="40.7746889" lon="-3.8159688"><ele>1071.0</ele><time>2026-04-04T09:09:10.388Z</time></trkpt><trkpt lat="40.774697" lon="-3.8158468"><ele>1071.0</ele><time>2026-04-04T09:09:11.388Z</time></trkpt><trkpt lat="40.7747007" lon="-3.8157357"><ele>1071.0</ele><time>2026-04-04T09:09:12.387Z</time></trkpt><trkpt lat="40.7746996" lon="-3.8156307"><ele>1071.0</ele><time>2026-04-04T09:09:13.388Z</time></trkpt><trkpt lat="40.7746998" lon="-3.8155268"><ele>1071.0</ele><time>2026-04-04T09:09:14.388Z</time></trkpt><trkpt lat="40.7747005" lon="-3.8154189"><ele>1071.0</ele><time>2026-04-04T09:09:15.388Z</time></trkpt><trkpt lat="40.7747017" lon="-3.8153022"><ele>1071.0</ele><time>2026-04-04T09:09:16.388Z</time></trkpt><trkpt lat="40.7747049" lon="-3.815182"><ele>1071.0</ele><time>2026-04-04T09:09:17.388Z</time></trkpt><trkpt lat="40.7747068" lon="-3.8150566"><ele>1071.0</ele><time>2026-04-04T09:09:18.388Z</time></trkpt><trkpt lat="40.7747022" lon="-3.8149169"><ele>1070.75</ele><time>2026-04-04T09:09:19.388Z</time></trkpt><trkpt lat="40.7746983" lon="-3.8147578"><ele>1070.5</ele><time>2026-04-04T09:09:20.388Z</time></trkpt><trkpt lat="40.774693" lon="-3.814577"><ele>1070.25</ele><time>2026-04-04T09:09:21.388Z</time></trkpt><trkpt lat="40.7746932" lon="-3.8143851"><ele>1070.0</ele><time>2026-04-04T09:09:22.387Z</time></trkpt><trkpt lat="40.774692" lon="-3.8141945"><ele>1069.0</ele><time>2026-04-04T09:09:23.387Z</time></trkpt><trkpt lat="40.7746928" lon="-3.8140051"><ele>1068.0</ele><time>2026-04-04T09:09:24.388Z</time></trkpt><trkpt lat="40.7746967" lon="-3.8138137"><ele>1067.0</ele><time>2026-04-04T09:09:25.388Z</time></trkpt><trkpt lat="40.7746994" lon="-3.8136152"><ele>1066.0</ele><time>2026-04-04T09:09:26.387Z</time></trkpt><trkpt lat="40.7747036" lon="-3.8134124"><ele>1065.75</ele><time>2026-04-04T09:09:27.388Z</time></trkpt><trkpt lat="40.7747021" lon="-3.8132096"><ele>1065.5</ele><time>2026-04-04T09:09:28.387Z</time></trkpt><trkpt lat="40.7746963" lon="-3.8130155"><ele>1065.25</ele><time>2026-04-04T09:09:29.388Z</time></trkpt><trkpt lat="40.7746893" lon="-3.8128304"><ele>1065.0</ele><time>2026-04-04T09:09:30.388Z</time></trkpt><trkpt lat="40.7746842" lon="-3.8126636"><ele>1064.8</ele><time>2026-04-04T09:09:31.388Z</time></trkpt><trkpt lat="40.7746769" lon="-3.8125143"><ele>1064.6</ele><time>2026-04-04T09:09:32.387Z</time></trkpt><trkpt lat="40.7746625" lon="-3.8123797"><ele>1064.4</ele><time>2026-04-04T09:09:33.387Z</time></trkpt><trkpt lat="40.7746282" lon="-3.8122537"><ele>1064.2</ele><time>2026-04-04T09:09:34.388Z</time></trkpt><trkpt lat="40.7745692" lon="-3.8121396"><ele>1064.0</ele><time>2026-04-04T09:09:35.388Z</time></trkpt><trkpt lat="40.7744843" lon="-3.8120443"><ele>1064.0</ele><time>2026-04-04T09:09:36.387Z</time></trkpt><trkpt lat="40.7743835" lon="-3.8119684"><ele>1064.0</ele><time>2026-04-04T09:09:37.388Z</time></trkpt><trkpt lat="40.7742778" lon="-3.8119049"><ele>1064.0</ele><time>2026-04-04T09:09:38.388Z</time></trkpt><trkpt lat="40.7741689" lon="-3.8118679"><ele>1064.0</ele><time>2026-04-04T09:09:39.388Z</time></trkpt><trkpt lat="40.7740552" lon="-3.8118553"><ele>1061.75</ele><time>2026-04-04T09:09:40.387Z</time></trkpt><trkpt lat="40.7739426" lon="-3.8118814"><ele>1059.5</ele><time>2026-04-04T09:09:41.388Z</time></trkpt><trkpt lat="40.7738195" lon="-3.8119315"><ele>1057.25</ele><time>2026-04-04T09:09:42.388Z</time></trkpt><trkpt lat="40.7736837" lon="-3.8119822"><ele>1055.0</ele><time>2026-04-04T09:09:43.388Z</time></trkpt><trkpt lat="40.7735342" lon="-3.8120206"><ele>1053.3333333333335</ele><time>2026-04-04T09:09:44.388Z</time></trkpt><trkpt lat="40.773379" lon="-3.8120538"><ele>1051.6666666666667</ele><time>2026-04-04T09:09:45.388Z</time></trkpt><trkpt lat="40.7732144" lon="-3.812066"><ele>1050.0</ele><time>2026-04-04T09:09:46.388Z</time></trkpt><trkpt lat="40.7730442" lon="-3.8120546"><ele>1050.0</ele><time>2026-04-04T09:09:47.388Z</time></trkpt><trkpt lat="40.7728796" lon="-3.8120127"><ele>1050.0</ele><time>2026-04-04T09:09:48.388Z</time></trkpt><trkpt lat="40.7727215" lon="-3.8119634"><ele>1050.0</ele><time>2026-04-04T09:09:49.388Z</time></trkpt><trkpt lat="40.7725594" lon="-3.8119122"><ele>1049.3333333333333</ele><time>2026-04-04T09:09:50.388Z</time></trkpt><trkpt lat="40.7724016" lon="-3.8118664"><ele>1048.6666666666665</ele><time>2026-04-04T09:09:51.387Z</time></trkpt><trkpt lat="40.7722384" lon="-3.8118318"><ele>1048.0</ele><time>2026-04-04T09:09:52.387Z</time></trkpt><trkpt lat="40.7720811" lon="-3.8117999"><ele>1048.0</ele><time>2026-04-04T09:09:53.388Z</time></trkpt><trkpt lat="40.7719433" lon="-3.8117785"><ele>1048.0</ele><time>2026-04-04T09:09:54.388Z</time></trkpt><trkpt lat="40.7718133" lon="-3.8117835"><ele>1048.0</ele><time>2026-04-04T09:09:55.388Z</time></trkpt><trkpt lat="40.7716967" lon="-3.8118059"><ele>1048.0</ele><time>2026-04-04T09:09:56.388Z</time></trkpt><trkpt lat="40.7715899" lon="-3.811833"><ele>1047.6666666666665</ele><time>2026-04-04T09:09:57.388Z</time></trkpt><trkpt lat="40.7714985" lon="-3.8118669"><ele>1047.3333333333333</ele><time>2026-04-04T09:09:58.388Z</time></trkpt><trkpt lat="40.7714164" lon="-3.8118995"><ele>1047.0</ele><time>2026-04-04T09:09:59.388Z</time></trkpt><trkpt lat="40.771336" lon="-3.8119344"><ele>1046.6666666666667</ele><time>2026-04-04T09:10:00.387Z</time></trkpt><trkpt lat="40.7712599" lon="-3.811961"><ele>1046.3333333333335</ele><time>2026-04-04T09:10:01.388Z</time></trkpt><trkpt lat="40.7711853" lon="-3.8119702"><ele>1046.0</ele><time>2026-04-04T09:10:02.388Z</time></trkpt><trkpt lat="40.7711069" lon="-3.8119409"><ele>1046.0</ele><time>2026-04-04T09:10:03.388Z</time></trkpt><trkpt lat="40.7710371" lon="-3.811869"><ele>1046.0</ele><time>2026-04-04T09:10:04.388Z</time></trkpt><trkpt lat="40.7709841" lon="-3.8117783"><ele>1046.0</ele><time>2026-04-04T09:10:05.388Z</time></trkpt><trkpt lat="40.7709276" lon="-3.8116765"><ele>1046.0</ele><time>2026-04-04T09:10:06.388Z</time></trkpt><trkpt lat="40.7708597" lon="-3.8115782"><ele>1046.0</ele><time>2026-04-04T09:10:07.387Z</time></trkpt><trkpt lat="40.770777" lon="-3.8114887"><ele>1043.5</ele><time>2026-04-04T09:10:08.387Z</time></trkpt><trkpt lat="40.7706769" lon="-3.8114131"><ele>1041.0</ele><time>2026-04-04T09:10:09.387Z</time></trkpt><trkpt lat="40.7705711" lon="-3.8113348"><ele>1038.5</ele><time>2026-04-04T09:10:10.388Z</time></trkpt><trkpt lat="40.7704671" lon="-3.8112528"><ele>1036.0</ele><time>2026-04-04T09:10:11.388Z</time></trkpt><trkpt lat="40.7703652" lon="-3.8111774"><ele>1036.0</ele><time>2026-04-04T09:10:12.388Z</time></trkpt><trkpt lat="40.7702674" lon="-3.8111022"><ele>1036.0</ele><time>2026-04-04T09:10:13.388Z</time></trkpt><trkpt lat="40.7701803" lon="-3.811043"><ele>1036.0</ele><time>2026-04-04T09:10:14.388Z</time></trkpt><trkpt lat="40.77009" lon="-3.8110303"><ele>1036.0</ele><time>2026-04-04T09:10:15.388Z</time></trkpt><trkpt lat="40.7700009" lon="-3.8110584"><ele>1036.0</ele><time>2026-04-04T09:10:16.388Z</time></trkpt><trkpt lat="40.769919" lon="-3.8111151"><ele>1034.3999999999999</ele><time>2026-04-04T09:10:17.388Z</time></trkpt><trkpt lat="40.7698507" lon="-3.8112012"><ele>1032.8</ele><time>2026-04-04T09:10:18.387Z</time></trkpt><trkpt lat="40.7697859" lon="-3.8113048"><ele>1031.1999999999998</ele><time>2026-04-04T09:10:19.388Z</time></trkpt><trkpt lat="40.7697351" lon="-3.8114183"><ele>1029.6</ele><time>2026-04-04T09:10:20.388Z</time></trkpt><trkpt lat="40.7696956" lon="-3.8115392"><ele>1028.0</ele><time>2026-04-04T09:10:21.387Z</time></trkpt><trkpt lat="40.7696624" lon="-3.8116618"><ele>1028.0</ele><time>2026-04-04T09:10:22.387Z</time></trkpt><trkpt lat="40.7696372" lon="-3.811781"><ele>1028.0</ele><time>2026-04-04T09:10:23.388Z</time></trkpt><trkpt lat="40.7696092" lon="-3.8118936"><ele>1028.0</ele><time>2026-04-04T09:10:24.387Z</time></trkpt><trkpt lat="40.7695777" lon="-3.8120081"><ele>1028.0</ele><time>2026-04-04T09:10:25.388Z</time></trkpt><trkpt lat="40.7695335" lon="-3.8121229"><ele>1028.0</ele><time>2026-04-04T09:10:26.388Z</time></trkpt><trkpt lat="40.7694876" lon="-3.8122476"><ele>1028.75</ele><time>2026-04-04T09:10:27.387Z</time></trkpt><trkpt lat="40.769438" lon="-3.8123779"><ele>1029.5</ele><time>2026-04-04T09:10:28.387Z</time></trkpt><trkpt lat="40.7693808" lon="-3.8125017"><ele>1030.25</ele><time>2026-04-04T09:10:29.388Z</time></trkpt><trkpt lat="40.7693119" lon="-3.8126269"><ele>1031.0</ele><time>2026-04-04T09:10:30.387Z</time></trkpt><trkpt lat="40.7692327" lon="-3.8127422"><ele>1028.0</ele><time>2026-04-04T09:10:31.388Z</time></trkpt><trkpt lat="40.7691345" lon="-3.8128506"><ele>1025.0</ele><time>2026-04-04T09:10:32.388Z</time></trkpt><trkpt lat="40.769029" lon="-3.8129506"><ele>1022.0</ele><time>2026-04-04T09:10:33.388Z</time></trkpt><trkpt lat="40.7689288" lon="-3.8130457"><ele>1019.0</ele><time>2026-04-04T09:10:34.388Z</time></trkpt><trkpt lat="40.7688252" lon="-3.8131277"><ele>1019.0</ele><time>2026-04-04T09:10:35.387Z</time></trkpt><trkpt lat="40.7687232" lon="-3.8131994"><ele>1019.0</ele><time>2026-04-04T09:10:36.387Z</time></trkpt><trkpt lat="40.7686206" lon="-3.8132665"><ele>1019.0</ele><time>2026-04-04T09:10:37.388Z</time></trkpt><trkpt lat="40.7685162" lon="-3.8133367"><ele>1019.0</ele><time>2026-04-04T09:10:38.388Z</time></trkpt><trkpt lat="40.7684272" lon="-3.8134137"><ele>1018.5000000000001</ele><time>2026-04-04T09:10:39.388Z</time></trkpt><trkpt lat="40.7683585" lon="-3.8135036"><ele>1018.0</ele><time>2026-04-04T09:10:40.388Z</time></trkpt><trkpt lat="40.7683157" lon="-3.8135964"><ele>1017.5</ele><time>2026-04-04T09:10:41.388Z</time></trkpt><trkpt lat="40.7683008" lon="-3.8136913"><ele>1017.0</ele><time>2026-04-04T09:10:42.388Z</time></trkpt><trkpt lat="40.7683032" lon="-3.8137882"><ele>1016.5000000000001</ele><time>2026-04-04T09:10:43.388Z</time></trkpt><trkpt lat="40.7683159" lon="-3.8138945"><ele>1016.0</ele><time>2026-04-04T09:10:44.388Z</time></trkpt><trkpt lat="40.7683251" lon="-3.8140244"><ele>1016.0</ele><time>2026-04-04T09:10:45.387Z</time></trkpt><trkpt lat="40.768318" lon="-3.8141653"><ele>1015.9999999999999</ele><time>2026-04-04T09:10:46.387Z</time></trkpt><trkpt lat="40.7683074" lon="-3.8143063"><ele>1015.9999999999999</ele><time>2026-04-04T09:10:47.388Z</time></trkpt><trkpt lat="40.7683014" lon="-3.8144515"><ele>1016.0</ele><time>2026-04-04T09:10:48.388Z</time></trkpt><trkpt lat="40.7683062" lon="-3.8145787"><ele>1016.0</ele><time>2026-04-04T09:10:49.387Z</time></trkpt><trkpt lat="40.7683249" lon="-3.8146994"><ele>1016.5999999999999</ele><time>2026-04-04T09:10:50.388Z</time></trkpt><trkpt lat="40.7683716" lon="-3.8147968"><ele>1017.1999999999999</ele><time>2026-04-04T09:10:51.387Z</time></trkpt><trkpt lat="40.7684324" lon="-3.8148817"><ele>1017.8000000000001</ele><time>2026-04-04T09:10:52.388Z</time></trkpt><trkpt lat="40.768514" lon="-3.8149626"><ele>1018.4000000000001</ele><time>2026-04-04T09:10:53.388Z</time></trkpt><trkpt lat="40.7686105" lon="-3.815026"><ele>1019.0</ele><time>2026-04-04T09:10:54.388Z</time></trkpt><trkpt lat="40.768711" lon="-3.815076"><ele>1020.6</ele><time>2026-04-04T09:10:55.388Z</time></trkpt><trkpt lat="40.7688187" lon="-3.8151211"><ele>1022.2</ele><time>2026-04-04T09:10:56.388Z</time></trkpt><trkpt lat="40.7689337" lon="-3.8151562"><ele>1023.8000000000001</ele><time>2026-04-04T09:10:57.388Z</time></trkpt><trkpt lat="40.769048" lon="-3.8151868"><ele>1025.4</ele><time>2026-04-04T09:10:58.387Z</time></trkpt><trkpt lat="40.7691447" lon="-3.8152239"><ele>1027.0</ele><time>2026-04-04T09:10:59.388Z</time></trkpt><trkpt lat="40.7692268" lon="-3.8152716"><ele>1027.0</ele><time>2026-04-04T09:11:00.388Z</time></trkpt><trkpt lat="40.7692998" lon="-3.8153329"><ele>1027.0</ele><time>2026-04-04T09:11:01.387Z</time></trkpt><trkpt lat="40.7693472" lon="-3.8154086"><ele>1027.0</ele><time>2026-04-04T09:11:02.388Z</time></trkpt><trkpt lat="40.7693642" lon="-3.8154921"><ele>1027.0</ele><time>2026-04-04T09:11:03.388Z</time></trkpt><trkpt lat="40.7693452" lon="-3.8155738"><ele>1027.0</ele><time>2026-04-04T09:11:04.388Z</time></trkpt><trkpt lat="40.769306" lon="-3.815668"><ele>1027.0</ele><time>2026-04-04T09:11:05.388Z</time></trkpt><trkpt lat="40.769264" lon="-3.8157752"><ele>1027.0</ele><time>2026-04-04T09:11:06.388Z</time></trkpt><trkpt lat="40.7692128" lon="-3.8158901"><ele>1027.0</ele><time>2026-04-04T09:11:07.387Z</time></trkpt><trkpt lat="40.7691666" lon="-3.8160135"><ele>1027.0</ele><time>2026-04-04T09:11:08.388Z</time></trkpt><trkpt lat="40.7691279" lon="-3.8161329"><ele>1027.0</ele><time>2026-04-04T09:11:09.388Z</time></trkpt><trkpt lat="40.7691146" lon="-3.8162507"><ele>1027.0</ele><time>2026-04-04T09:11:10.388Z</time></trkpt><trkpt lat="40.7691316" lon="-3.816371"><ele>1027.6</ele><time>2026-04-04T09:11:11.387Z</time></trkpt><trkpt lat="40.769162" lon="-3.8164966"><ele>1028.2</ele><time>2026-04-04T09:11:12.388Z</time></trkpt><trkpt lat="40.7691923" lon="-3.8166244"><ele>1028.8</ele><time>2026-04-04T09:11:13.388Z</time></trkpt><trkpt lat="40.7692166" lon="-3.8167451"><ele>1029.4</ele><time>2026-04-04T09:11:14.388Z</time></trkpt><trkpt lat="40.7692177" lon="-3.8168618"><ele>1030.0</ele><time>2026-04-04T09:11:15.388Z</time></trkpt><trkpt lat="40.7691844" lon="-3.8169715"><ele>1030.8</ele><time>2026-04-04T09:11:16.388Z</time></trkpt><trkpt lat="40.7691363" lon="-3.8170773"><ele>1031.6</ele><time>2026-04-04T09:11:17.388Z</time></trkpt><trkpt lat="40.7690773" lon="-3.8171843"><ele>1032.4</ele><time>2026-04-04T09:11:18.388Z</time></trkpt><trkpt lat="40.7689958" lon="-3.8172837"><ele>1033.2</ele><time>2026-04-04T09:11:19.387Z</time></trkpt><trkpt lat="40.7689019" lon="-3.817387"><ele>1034.0</ele><time>2026-04-04T09:11:20.388Z</time></trkpt><trkpt lat="40.7688108" lon="-3.8175039"><ele>1034.0</ele><time>2026-04-04T09:11:21.388Z</time></trkpt><trkpt lat="40.7687169" lon="-3.8176218"><ele>1034.0</ele><time>2026-04-04T09:11:22.387Z</time></trkpt><trkpt lat="40.7686165" lon="-3.8177328"><ele>1034.0</ele><time>2026-04-04T09:11:23.388Z</time></trkpt><trkpt lat="40.768514" lon="-3.8178473"><ele>1034.0</ele><time>2026-04-04T09:11:24.388Z</time></trkpt><trkpt lat="40.7684207" lon="-3.8179711"><ele>1033.8</ele><time>2026-04-04T09:11:25.388Z</time></trkpt><trkpt lat="40.7683427" lon="-3.8180913"><ele>1033.6000000000001</ele><time>2026-04-04T09:11:26.388Z</time></trkpt><trkpt lat="40.7682718" lon="-3.8181982"><ele>1033.4</ele><time>2026-04-04T09:11:27.388Z</time></trkpt><trkpt lat="40.7682126" lon="-3.8182976"><ele>1033.2</ele><time>2026-04-04T09:11:28.388Z</time></trkpt><trkpt lat="40.7681691" lon="-3.8183756"><ele>1033.0</ele><time>2026-04-04T09:11:29.388Z</time></trkpt><trkpt lat="40.7680975" lon="-3.8185013"><ele>1032.4</ele><time>2026-04-04T09:11:31.387Z</time></trkpt><trkpt lat="40.7680058" lon="-3.8185987"><ele>1031.8</ele><time>2026-04-04T09:11:33.388Z</time></trkpt><trkpt lat="40.7678861" lon="-3.8186575"><ele>1031.2</ele><time>2026-04-04T09:11:35.388Z</time></trkpt><trkpt lat="40.7678237" lon="-3.8186772"><ele>1030.6</ele><time>2026-04-04T09:11:36.388Z</time></trkpt><trkpt lat="40.7677538" lon="-3.8186831"><ele>1030.0</ele><time>2026-04-04T09:11:37.388Z</time></trkpt><trkpt lat="40.7676773" lon="-3.8186827"><ele>1029.2</ele><time>2026-04-04T09:11:38.388Z</time></trkpt><trkpt lat="40.7676046" lon="-3.8186782"><ele>1028.4</ele><time>2026-04-04T09:11:39.388Z</time></trkpt><trkpt lat="40.76754" lon="-3.8186771"><ele>1027.6</ele><time>2026-04-04T09:11:40.388Z</time></trkpt><trkpt lat="40.7674174" lon="-3.8186922"><ele>1026.8</ele><time>2026-04-04T09:11:42.387Z</time></trkpt><trkpt lat="40.7673145" lon="-3.8187281"><ele>1026.0</ele><time>2026-04-04T09:11:44.388Z</time></trkpt><trkpt lat="40.7672059" lon="-3.8187826"><ele>1026.0</ele><time>2026-04-04T09:11:46.388Z</time></trkpt><trkpt lat="40.7671176" lon="-3.8188281"><ele>1026.0</ele><time>2026-04-04T09:11:48.388Z</time></trkpt><trkpt lat="40.7670923" lon="-3.8189083"><ele>1026.0</ele><time>2026-04-04T09:11:50.387Z</time></trkpt><trkpt lat="40.7671054" lon="-3.8189955"><ele>1026.0</ele><time>2026-04-04T09:11:52.388Z</time></trkpt><trkpt lat="40.767141" lon="-3.8190941"><ele>1026.0</ele><time>2026-04-04T09:11:54.387Z</time></trkpt><trkpt lat="40.7671519" lon="-3.8192123"><ele>1026.0</ele><time>2026-04-04T09:11:56.388Z</time></trkpt><trkpt lat="40.7671233" lon="-3.8193166"><ele>1026.0</ele><time>2026-04-04T09:11:58.388Z</time></trkpt><trkpt lat="40.76704" lon="-3.8193901"><ele>1026.0</ele><time>2026-04-04T09:12:00.387Z</time></trkpt><trkpt lat="40.7669727" lon="-3.819435"><ele>1026.0</ele><time>2026-04-04T09:12:01.388Z</time></trkpt><trkpt lat="40.7668949" lon="-3.8194633"><ele>1026.0</ele><time>2026-04-04T09:12:02.387Z</time></trkpt><trkpt lat="40.7668259" lon="-3.8194795"><ele>1026.0</ele><time>2026-04-04T09:12:03.388Z</time></trkpt><trkpt lat="40.7667505" lon="-3.819493"><ele>1026.0</ele><time>2026-04-04T09:12:04.388Z</time></trkpt><trkpt lat="40.7666706" lon="-3.8195126"><ele>1026.0</ele><time>2026-04-04T09:12:05.387Z</time></trkpt><trkpt lat="40.7665837" lon="-3.8195487"><ele>1026.0</ele><time>2026-04-04T09:12:06.388Z</time></trkpt><trkpt lat="40.7664963" lon="-3.8195987"><ele>1026.0</ele><time>2026-04-04T09:12:07.388Z</time></trkpt><trkpt lat="40.7664047" lon="-3.8196556"><ele>1026.0</ele><time>2026-04-04T09:12:08.388Z</time></trkpt><trkpt lat="40.7663156" lon="-3.819717"><ele>1026.0</ele><time>2026-04-04T09:12:09.388Z</time></trkpt><trkpt lat="40.7662308" lon="-3.8197906"><ele>1026.0</ele><time>2026-04-04T09:12:10.389Z</time></trkpt><trkpt lat="40.7661465" lon="-3.819878"><ele>1026.0</ele><time>2026-04-04T09:12:11.389Z</time></trkpt><trkpt lat="40.7660639" lon="-3.8199661"><ele>1026.0</ele><time>2026-04-04T09:12:12.389Z</time></trkpt><trkpt lat="40.7659705" lon="-3.8200497"><ele>1026.0</ele><time>2026-04-04T09:12:13.389Z</time></trkpt><trkpt lat="40.7658739" lon="-3.8201283"><ele>1026.0</ele><time>2026-04-04T09:12:14.389Z</time></trkpt><trkpt lat="40.7657633" lon="-3.8201897"><ele>1025.25</ele><time>2026-04-04T09:12:15.389Z</time></trkpt><trkpt lat="40.7656451" lon="-3.8202493"><ele>1024.5</ele><time>2026-04-04T09:12:16.389Z</time></trkpt><trkpt lat="40.7655227" lon="-3.820311"><ele>1023.75</ele><time>2026-04-04T09:12:17.389Z</time></trkpt><trkpt lat="40.7653966" lon="-3.8203685"><ele>1023.0</ele><time>2026-04-04T09:12:18.389Z</time></trkpt><trkpt lat="40.7652759" lon="-3.8204208"><ele>1021.4</ele><time>2026-04-04T09:12:19.389Z</time></trkpt><trkpt lat="40.7651633" lon="-3.8204653"><ele>1019.8</ele><time>2026-04-04T09:12:20.388Z</time></trkpt><trkpt lat="40.7650557" lon="-3.8205095"><ele>1018.2</ele><time>2026-04-04T09:12:21.388Z</time></trkpt><trkpt lat="40.7649533" lon="-3.8205513"><ele>1016.6</ele><time>2026-04-04T09:12:22.389Z</time></trkpt><trkpt lat="40.7648581" lon="-3.8205943"><ele>1015.0</ele><time>2026-04-04T09:12:23.389Z</time></trkpt><trkpt lat="40.7647673" lon="-3.8206364"><ele>1014.9999999999999</ele><time>2026-04-04T09:12:24.388Z</time></trkpt><trkpt lat="40.7646812" lon="-3.8206777"><ele>1015.0</ele><time>2026-04-04T09:12:25.389Z</time></trkpt><trkpt lat="40.7645999" lon="-3.8207212"><ele>1015.0</ele><time>2026-04-04T09:12:26.388Z</time></trkpt><trkpt lat="40.7645193" lon="-3.8207725"><ele>1015.0</ele><time>2026-04-04T09:12:27.389Z</time></trkpt><trkpt lat="40.7644386" lon="-3.8208119"><ele>1014.9999999999999</ele><time>2026-04-04T09:12:28.389Z</time></trkpt><trkpt lat="40.7643541" lon="-3.8208381"><ele>1015.0</ele><time>2026-04-04T09:12:29.389Z</time></trkpt><trkpt lat="40.764272" lon="-3.8208455"><ele>1014.1666666666666</ele><time>2026-04-04T09:12:30.389Z</time></trkpt><trkpt lat="40.7641876" lon="-3.820854"><ele>1013.3333333333333</ele><time>2026-04-04T09:12:31.388Z</time></trkpt><trkpt lat="40.7641015" lon="-3.8208658"><ele>1012.5</ele><time>2026-04-04T09:12:32.389Z</time></trkpt><trkpt lat="40.7640131" lon="-3.8208909"><ele>1011.6666666666667</ele><time>2026-04-04T09:12:33.389Z</time></trkpt><trkpt lat="40.7639237" lon="-3.8209253"><ele>1010.8333333333334</ele><time>2026-04-04T09:12:34.389Z</time></trkpt><trkpt lat="40.7638341" lon="-3.8209625"><ele>1010.0</ele><time>2026-04-04T09:12:35.389Z</time></trkpt><trkpt lat="40.7637454" lon="-3.8210056"><ele>1009.8</ele><time>2026-04-04T09:12:36.388Z</time></trkpt><trkpt lat="40.7636631" lon="-3.8210582"><ele>1009.6</ele><time>2026-04-04T09:12:37.389Z</time></trkpt><trkpt lat="40.7635826" lon="-3.8211199"><ele>1009.4000000000001</ele><time>2026-04-04T09:12:38.389Z</time></trkpt><trkpt lat="40.7635064" lon="-3.8211874"><ele>1009.2</ele><time>2026-04-04T09:12:39.389Z</time></trkpt><trkpt lat="40.7634272" lon="-3.8212496"><ele>1009.0</ele><time>2026-04-04T09:12:40.388Z</time></trkpt><trkpt lat="40.7633484" lon="-3.8213144"><ele>1007.8000000000001</ele><time>2026-04-04T09:12:41.389Z</time></trkpt><trkpt lat="40.7632713" lon="-3.8213703"><ele>1006.6000000000001</ele><time>2026-04-04T09:12:42.388Z</time></trkpt><trkpt lat="40.7631948" lon="-3.8214308"><ele>1005.4</ele><time>2026-04-04T09:12:43.389Z</time></trkpt><trkpt lat="40.7631225" lon="-3.8215117"><ele>1004.2</ele><time>2026-04-04T09:12:44.389Z</time></trkpt><trkpt lat="40.7630495" lon="-3.8216088"><ele>1003.0</ele><time>2026-04-04T09:12:45.389Z</time></trkpt><trkpt lat="40.7629784" lon="-3.8217063"><ele>1003.0</ele><time>2026-04-04T09:12:46.389Z</time></trkpt><trkpt lat="40.7629151" lon="-3.8218099"><ele>1003.0</ele><time>2026-04-04T09:12:47.389Z</time></trkpt><trkpt lat="40.7628548" lon="-3.8219129"><ele>1003.0</ele><time>2026-04-04T09:12:48.389Z</time></trkpt><trkpt lat="40.762801" lon="-3.8220125"><ele>1003.0</ele><time>2026-04-04T09:12:49.389Z</time></trkpt><trkpt lat="40.762751" lon="-3.8221092"><ele>1003.0</ele><time>2026-04-04T09:12:50.388Z</time></trkpt><trkpt lat="40.7626947" lon="-3.822185"><ele>1002.4999999999999</ele><time>2026-04-04T09:12:51.389Z</time></trkpt><trkpt lat="40.7626318" lon="-3.8222421"><ele>1002.0</ele><time>2026-04-04T09:12:52.389Z</time></trkpt><trkpt lat="40.7625614" lon="-3.8222923"><ele>1001.5</ele><time>2026-04-04T09:12:53.388Z</time></trkpt><trkpt lat="40.7624781" lon="-3.8223412"><ele>1001.0</ele><time>2026-04-04T09:12:54.388Z</time></trkpt><trkpt lat="40.762388" lon="-3.8223873"><ele>1000.4999999999999</ele><time>2026-04-04T09:12:55.389Z</time></trkpt><trkpt lat="40.7622954" lon="-3.8224435"><ele>1000.0</ele><time>2026-04-04T09:12:56.389Z</time></trkpt><trkpt lat="40.7622046" lon="-3.8225046"><ele>1000.0</ele><time>2026-04-04T09:12:57.389Z</time></trkpt><trkpt lat="40.7621238" lon="-3.8225736"><ele>1000.0</ele><time>2026-04-04T09:12:58.389Z</time></trkpt><trkpt lat="40.7620538" lon="-3.8226464"><ele>1000.0</ele><time>2026-04-04T09:12:59.389Z</time></trkpt><trkpt lat="40.7619891" lon="-3.8227228"><ele>1000.0</ele><time>2026-04-04T09:13:00.388Z</time></trkpt><trkpt lat="40.7619278" lon="-3.8228023"><ele>1000.0</ele><time>2026-04-04T09:13:01.389Z</time></trkpt><trkpt lat="40.7618625" lon="-3.8228881"><ele>999.4</ele><time>2026-04-04T09:13:02.388Z</time></trkpt><trkpt lat="40.7618008" lon="-3.8229798"><ele>998.8</ele><time>2026-04-04T09:13:03.389Z</time></trkpt><trkpt lat="40.7617399" lon="-3.8230751"><ele>998.2</ele><time>2026-04-04T09:13:04.388Z</time></trkpt><trkpt lat="40.7616761" lon="-3.8231722"><ele>997.6</ele><time>2026-04-04T09:13:05.389Z</time></trkpt><trkpt lat="40.7616128" lon="-3.823266"><ele>997.0</ele><time>2026-04-04T09:13:06.388Z</time></trkpt><trkpt lat="40.7615485" lon="-3.8233657"><ele>997.0</ele><time>2026-04-04T09:13:07.388Z</time></trkpt><trkpt lat="40.7614851" lon="-3.8234649"><ele>997.0</ele><time>2026-04-04T09:13:08.389Z</time></trkpt><trkpt lat="40.7614249" lon="-3.8235709"><ele>997.0</ele><time>2026-04-04T09:13:09.389Z</time></trkpt><trkpt lat="40.7613561" lon="-3.8236578"><ele>997.0</ele><time>2026-04-04T09:13:10.389Z</time></trkpt><trkpt lat="40.7612856" lon="-3.8237439"><ele>997.0</ele><time>2026-04-04T09:13:11.389Z</time></trkpt><trkpt lat="40.7612103" lon="-3.8238232"><ele>996.6666666666666</ele><time>2026-04-04T09:13:12.388Z</time></trkpt><trkpt lat="40.7611352" lon="-3.8238918"><ele>996.3333333333333</ele><time>2026-04-04T09:13:13.388Z</time></trkpt><trkpt lat="40.7610562" lon="-3.8239454"><ele>996.0</ele><time>2026-04-04T09:13:14.389Z</time></trkpt><trkpt lat="40.7609803" lon="-3.823988"><ele>995.6666666666667</ele><time>2026-04-04T09:13:15.388Z</time></trkpt><trkpt lat="40.7609115" lon="-3.8240318"><ele>995.3333333333334</ele><time>2026-04-04T09:13:16.388Z</time></trkpt><trkpt lat="40.7608498" lon="-3.8240677"><ele>995.0</ele><time>2026-04-04T09:13:17.388Z</time></trkpt><trkpt lat="40.76075" lon="-3.824137"><ele>995.0</ele><time>2026-04-04T09:13:19.388Z</time></trkpt><trkpt lat="40.760643" lon="-3.8241843"><ele>995.0</ele><time>2026-04-04T09:13:21.388Z</time></trkpt><trkpt lat="40.7605204" lon="-3.824171"><ele>995.0</ele><time>2026-04-04T09:13:23.388Z</time></trkpt><trkpt lat="40.7604485" lon="-3.8241525"><ele>995.0</ele><time>2026-04-04T09:13:24.388Z</time></trkpt><trkpt lat="40.7603763" lon="-3.8241363"><ele>995.0</ele><time>2026-04-04T09:13:25.389Z</time></trkpt><trkpt lat="40.7602917" lon="-3.8241189"><ele>994.2</ele><time>2026-04-04T09:13:26.389Z</time></trkpt><trkpt lat="40.7601924" lon="-3.8240965"><ele>993.4</ele><time>2026-04-04T09:13:27.389Z</time></trkpt><trkpt lat="40.7600903" lon="-3.8240742"><ele>992.5999999999999</ele><time>2026-04-04T09:13:28.389Z</time></trkpt><trkpt lat="40.7599898" lon="-3.8240484"><ele>991.8</ele><time>2026-04-04T09:13:29.389Z</time></trkpt><trkpt lat="40.7598846" lon="-3.8240095"><ele>991.0</ele><time>2026-04-04T09:13:30.389Z</time></trkpt><trkpt lat="40.7597736" lon="-3.8239676"><ele>991.0</ele><time>2026-04-04T09:13:31.389Z</time></trkpt><trkpt lat="40.7596598" lon="-3.8239222"><ele>991.0</ele><time>2026-04-04T09:13:32.389Z</time></trkpt><trkpt lat="40.7595428" lon="-3.8238723"><ele>991.0</ele><time>2026-04-04T09:13:33.389Z</time></trkpt><trkpt lat="40.7594303" lon="-3.8238261"><ele>991.0</ele><time>2026-04-04T09:13:34.388Z</time></trkpt><trkpt lat="40.7593141" lon="-3.8237832"><ele>990.5</ele><time>2026-04-04T09:13:35.389Z</time></trkpt><trkpt lat="40.7591963" lon="-3.823741"><ele>990.0</ele><time>2026-04-04T09:13:36.388Z</time></trkpt><trkpt lat="40.7590721" lon="-3.8237114"><ele>989.5</ele><time>2026-04-04T09:13:37.389Z</time></trkpt><trkpt lat="40.7589579" lon="-3.8236828"><ele>989.0</ele><time>2026-04-04T09:13:38.389Z</time></trkpt><trkpt lat="40.7588509" lon="-3.8236578"><ele>989.0</ele><time>2026-04-04T09:13:39.389Z</time></trkpt><trkpt lat="40.7587502" lon="-3.8236368"><ele>989.0000000000001</ele><time>2026-04-04T09:13:40.389Z</time></trkpt><trkpt lat="40.7586536" lon="-3.823617"><ele>989.0000000000001</ele><time>2026-04-04T09:13:41.389Z</time></trkpt><trkpt lat="40.758563" lon="-3.8235948"><ele>989.0</ele><time>2026-04-04T09:13:42.388Z</time></trkpt><trkpt lat="40.7584942" lon="-3.8235754"><ele>989.0</ele><time>2026-04-04T09:13:43.388Z</time></trkpt><trkpt lat="40.758403" lon="-3.8235728"><ele>988.0</ele><time>2026-04-04T09:13:45.389Z</time></trkpt><trkpt lat="40.7583575" lon="-3.8236435"><ele>987.0000000000001</ele><time>2026-04-04T09:13:48.389Z</time></trkpt><trkpt lat="40.7583934" lon="-3.8237562"><ele>986.0000000000001</ele><time>2026-04-04T09:13:51.389Z</time></trkpt><trkpt lat="40.7584372" lon="-3.8239008"><ele>985.0</ele><time>2026-04-04T09:13:53.389Z</time></trkpt><trkpt lat="40.7584582" lon="-3.8240449"><ele>984.0</ele><time>2026-04-04T09:13:55.388Z</time></trkpt><trkpt lat="40.7584494" lon="-3.8242002"><ele>984.0</ele><time>2026-04-04T09:13:57.388Z</time></trkpt><trkpt lat="40.7584249" lon="-3.8243339"><ele>984.0</ele><time>2026-04-04T09:13:59.388Z</time></trkpt><trkpt lat="40.7584237" lon="-3.8244725"><ele>984.0</ele><time>2026-04-04T09:14:01.389Z</time></trkpt><trkpt lat="40.7583917" lon="-3.8245803"><ele>984.0</ele><time>2026-04-04T09:14:03.388Z</time></trkpt><trkpt lat="40.7583372" lon="-3.8246622"><ele>984.0</ele><time>2026-04-04T09:14:05.388Z</time></trkpt><trkpt lat="40.7583054" lon="-3.8247349"><ele>984.0</ele><time>2026-04-04T09:14:07.389Z</time></trkpt><trkpt lat="40.7583027" lon="-3.8248291"><ele>984.0</ele><time>2026-04-04T09:14:10.389Z</time></trkpt><trkpt lat="40.758314" lon="-3.824914"><ele>984.0</ele><time>2026-04-04T09:14:14.389Z</time></trkpt><trkpt lat="40.7583127" lon="-3.8250376"><ele>984.0</ele><time>2026-04-04T09:14:18.389Z</time></trkpt><trkpt lat="40.7583195" lon="-3.8251481"><ele>984.0</ele><time>2026-04-04T09:14:21.389Z</time></trkpt><trkpt lat="40.7583567" lon="-3.8252247"><ele>984.0</ele><time>2026-04-04T09:14:23.388Z</time></trkpt><trkpt lat="40.7584014" lon="-3.8253401"><ele>984.0</ele><time>2026-04-04T09:14:25.388Z</time></trkpt><trkpt lat="40.7584249" lon="-3.8254926"><ele>983.8333333333334</ele><time>2026-04-04T09:14:27.389Z</time></trkpt><trkpt lat="40.7584263" lon="-3.8255812"><ele>983.6666666666667</ele><time>2026-04-04T09:14:28.388Z</time></trkpt><trkpt lat="40.7584355" lon="-3.8256847"><ele>983.5</ele><time>2026-04-04T09:14:29.389Z</time></trkpt><trkpt lat="40.7584528" lon="-3.8257964"><ele>983.3333333333334</ele><time>2026-04-04T09:14:30.388Z</time></trkpt><trkpt lat="40.7584716" lon="-3.8259"><ele>983.1666666666667</ele><time>2026-04-04T09:14:31.389Z</time></trkpt><trkpt lat="40.7584923" lon="-3.8259842"><ele>983.0</ele><time>2026-04-04T09:14:32.388Z</time></trkpt><trkpt lat="40.7585219" lon="-3.8261312"><ele>982.8</ele><time>2026-04-04T09:14:34.389Z</time></trkpt><trkpt lat="40.7585467" lon="-3.8262601"><ele>982.5999999999999</ele><time>2026-04-04T09:14:36.389Z</time></trkpt><trkpt lat="40.7585824" lon="-3.8263938"><ele>982.4000000000001</ele><time>2026-04-04T09:14:38.388Z</time></trkpt><trkpt lat="40.7586131" lon="-3.8265098"><ele>982.2</ele><time>2026-04-04T09:14:40.389Z</time></trkpt><trkpt lat="40.7586372" lon="-3.8266382"><ele>982.0</ele><time>2026-04-04T09:14:42.388Z</time></trkpt><trkpt lat="40.7586721" lon="-3.8267898"><ele>981.1666666666666</ele><time>2026-04-04T09:14:44.389Z</time></trkpt><trkpt lat="40.7586961" lon="-3.8269138"><ele>980.3333333333333</ele><time>2026-04-04T09:14:46.389Z</time></trkpt><trkpt lat="40.7587174" lon="-3.8270042"><ele>979.5</ele><time>2026-04-04T09:14:48.389Z</time></trkpt><trkpt lat="40.758714" lon="-3.8270883"><ele>978.6666666666667</ele><time>2026-04-04T09:14:50.388Z</time></trkpt><trkpt lat="40.7586733" lon="-3.8271696"><ele>977.8333333333334</ele><time>2026-04-04T09:14:52.388Z</time></trkpt><trkpt lat="40.7586079" lon="-3.8272304"><ele>977.0</ele><time>2026-04-04T09:14:54.389Z</time></trkpt><trkpt lat="40.7585154" lon="-3.8272596"><ele>976.5000000000001</ele><time>2026-04-04T09:14:56.389Z</time></trkpt><trkpt lat="40.7584151" lon="-3.8272746"><ele>976.0</ele><time>2026-04-04T09:14:58.389Z</time></trkpt><trkpt lat="40.7583201" lon="-3.8272948"><ele>975.5</ele><time>2026-04-04T09:15:00.388Z</time></trkpt><trkpt lat="40.758238" lon="-3.8273067"><ele>975.0</ele><time>2026-04-04T09:15:02.389Z</time></trkpt><trkpt lat="40.7581622" lon="-3.8273719"><ele>974.5000000000001</ele><time>2026-04-04T09:15:05.389Z</time></trkpt><trkpt lat="40.7581305" lon="-3.8274486"><ele>974.0</ele><time>2026-04-04T09:15:07.389Z</time></trkpt><trkpt lat="40.7580646" lon="-3.827536"><ele>974.0000000000001</ele><time>2026-04-04T09:15:10.389Z</time></trkpt><trkpt lat="40.7580073" lon="-3.8275912"><ele>974.0</ele><time>2026-04-04T09:15:12.388Z</time></trkpt><trkpt lat="40.7579455" lon="-3.8276585"><ele>974.0</ele><time>2026-04-04T09:15:15.389Z</time></trkpt><trkpt lat="40.757907" lon="-3.827741"><ele>974.0</ele><time>2026-04-04T09:15:18.388Z</time></trkpt><trkpt lat="40.7578725" lon="-3.8278297"><ele>974.0000000000001</ele><time>2026-04-04T09:15:22.388Z</time></trkpt><trkpt lat="40.7578605" lon="-3.82795"><ele>974.0</ele><time>2026-04-04T09:15:25.389Z</time></trkpt><trkpt lat="40.7578451" lon="-3.8280621"><ele>973.8000000000001</ele><time>2026-04-04T09:15:27.388Z</time></trkpt><trkpt lat="40.7577907" lon="-3.8281346"><ele>973.6000000000001</ele><time>2026-04-04T09:15:29.388Z</time></trkpt><trkpt lat="40.7577212" lon="-3.8282032"><ele>973.4</ele><time>2026-04-04T09:15:32.389Z</time></trkpt><trkpt lat="40.7576296" lon="-3.8281972"><ele>973.2</ele><time>2026-04-04T09:15:34.389Z</time></trkpt><trkpt lat="40.7575258" lon="-3.8282317"><ele>973.0</ele><time>2026-04-04T09:15:36.389Z</time></trkpt><trkpt lat="40.7574498" lon="-3.8282981"><ele>973.0</ele><time>2026-04-04T09:15:38.388Z</time></trkpt><trkpt lat="40.7573564" lon="-3.8283558"><ele>973.0</ele><time>2026-04-04T09:15:40.389Z</time></trkpt><trkpt lat="40.7572446" lon="-3.8283614"><ele>973.0</ele><time>2026-04-04T09:15:42.389Z</time></trkpt><trkpt lat="40.7571438" lon="-3.8283939"><ele>973.0</ele><time>2026-04-04T09:15:44.388Z</time></trkpt><trkpt lat="40.7570328" lon="-3.8284603"><ele>973.0</ele><time>2026-04-04T09:15:46.389Z</time></trkpt><trkpt lat="40.7569285" lon="-3.8285131"><ele>974.2</ele><time>2026-04-04T09:15:48.389Z</time></trkpt><trkpt lat="40.7568293" lon="-3.828578"><ele>975.4</ele><time>2026-04-04T09:15:50.389Z</time></trkpt><trkpt lat="40.7567173" lon="-3.8286295"><ele>976.6000000000001</ele><time>2026-04-04T09:15:52.388Z</time></trkpt><trkpt lat="40.7566271" lon="-3.8286647"><ele>977.8000000000001</ele><time>2026-04-04T09:15:54.388Z</time></trkpt><trkpt lat="40.756544" lon="-3.8287133"><ele>979.0</ele><time>2026-04-04T09:15:56.388Z</time></trkpt><trkpt lat="40.7564772" lon="-3.8287986"><ele>978.9999999999999</ele><time>2026-04-04T09:15:58.388Z</time></trkpt><trkpt lat="40.7564221" lon="-3.828896"><ele>979.0</ele><time>2026-04-04T09:16:00.389Z</time></trkpt><trkpt lat="40.7563628" lon="-3.828986"><ele>979.0</ele><time>2026-04-04T09:16:02.389Z</time></trkpt><trkpt lat="40.7563046" lon="-3.8290622"><ele>979.0</ele><time>2026-04-04T09:16:04.389Z</time></trkpt><trkpt lat="40.7562433" lon="-3.8291261"><ele>978.9999999999999</ele><time>2026-04-04T09:16:06.389Z</time></trkpt><trkpt lat="40.756159" lon="-3.8291776"><ele>979.0</ele><time>2026-04-04T09:16:08.389Z</time></trkpt><trkpt lat="40.7560555" lon="-3.8291808"><ele>977.3333333333333</ele><time>2026-04-04T09:16:10.388Z</time></trkpt><trkpt lat="40.7559688" lon="-3.829173"><ele>975.6666666666666</ele><time>2026-04-04T09:16:12.389Z</time></trkpt><trkpt lat="40.75589" lon="-3.8291706"><ele>974.0</ele><time>2026-04-04T09:16:14.389Z</time></trkpt><trkpt lat="40.7558083" lon="-3.8292145"><ele>972.3333333333333</ele><time>2026-04-04T09:16:16.389Z</time></trkpt><trkpt lat="40.7557119" lon="-3.829242"><ele>970.6666666666666</ele><time>2026-04-04T09:16:18.388Z</time></trkpt><trkpt lat="40.7556354" lon="-3.8292147"><ele>969.0</ele><time>2026-04-04T09:16:20.389Z</time></trkpt><trkpt lat="40.7555464" lon="-3.8292086"><ele>969.0</ele><time>2026-04-04T09:16:22.388Z</time></trkpt><trkpt lat="40.7554673" lon="-3.8292603"><ele>969.0000000000001</ele><time>2026-04-04T09:16:24.389Z</time></trkpt><trkpt lat="40.7554224" lon="-3.8293699"><ele>969.0000000000001</ele><time>2026-04-04T09:16:26.389Z</time></trkpt><trkpt lat="40.7553792" lon="-3.8294798"><ele>969.0</ele><time>2026-04-04T09:16:28.388Z</time></trkpt><trkpt lat="40.7553518" lon="-3.8296009"><ele>969.0</ele><time>2026-04-04T09:16:30.389Z</time></trkpt><trkpt lat="40.7553286" lon="-3.8297326"><ele>970.2</ele><time>2026-04-04T09:16:32.388Z</time></trkpt><trkpt lat="40.7553228" lon="-3.8298819"><ele>971.4000000000001</ele><time>2026-04-04T09:16:34.388Z</time></trkpt><trkpt lat="40.7553182" lon="-3.830018"><ele>972.6</ele><time>2026-04-04T09:16:36.388Z</time></trkpt><trkpt lat="40.7553157" lon="-3.830152"><ele>973.8</ele><time>2026-04-04T09:16:38.389Z</time></trkpt><trkpt lat="40.7553036" lon="-3.8302888"><ele>975.0</ele><time>2026-04-04T09:16:40.389Z</time></trkpt><trkpt lat="40.7552922" lon="-3.8304267"><ele>975.6</ele><time>2026-04-04T09:16:42.388Z</time></trkpt><trkpt lat="40.755268" lon="-3.8305613"><ele>976.2</ele><time>2026-04-04T09:16:44.388Z</time></trkpt><trkpt lat="40.7552008" lon="-3.8306646"><ele>976.8</ele><time>2026-04-04T09:16:46.389Z</time></trkpt><trkpt lat="40.7551255" lon="-3.8307665"><ele>977.4</ele><time>2026-04-04T09:16:48.389Z</time></trkpt><trkpt lat="40.7550872" lon="-3.8309072"><ele>978.0</ele><time>2026-04-04T09:16:50.389Z</time></trkpt><trkpt lat="40.75507" lon="-3.8309941"><ele>979.0</ele><time>2026-04-04T09:16:51.388Z</time></trkpt><trkpt lat="40.7550576" lon="-3.8310778"><ele>980.0</ele><time>2026-04-04T09:16:52.389Z</time></trkpt><trkpt lat="40.7550198" lon="-3.831215"><ele>981.0</ele><time>2026-04-04T09:16:54.389Z</time></trkpt><trkpt lat="40.7549802" lon="-3.8313468"><ele>982.0</ele><time>2026-04-04T09:16:56.389Z</time></trkpt><trkpt lat="40.754979" lon="-3.831444"><ele>983.0</ele><time>2026-04-04T09:16:59.389Z</time></trkpt><trkpt lat="40.7549592" lon="-3.8315378"><ele>984.0</ele><time>2026-04-04T09:23:33.389Z</time></trkpt><trkpt lat="40.7549415" lon="-3.831618"><ele>984.0</ele><time>2026-04-04T09:23:36.389Z</time></trkpt><trkpt lat="40.7549477" lon="-3.831703"><ele>984.0</ele><time>2026-04-04T09:25:12.388Z</time></trkpt><trkpt lat="40.7549584" lon="-3.8317913"><ele>984.0</ele><time>2026-04-04T09:25:15.388Z</time></trkpt><trkpt lat="40.7549772" lon="-3.8319128"><ele>984.0</ele><time>2026-04-04T09:25:18.387Z</time></trkpt><trkpt lat="40.7549736" lon="-3.8320263"><ele>984.0</ele><time>2026-04-04T09:25:20.388Z</time></trkpt><trkpt lat="40.7549602" lon="-3.8321386"><ele>984.0</ele><time>2026-04-04T09:25:22.388Z</time></trkpt><trkpt lat="40.7549369" lon="-3.8322469"><ele>983.1666666666666</ele><time>2026-04-04T09:25:24.388Z</time></trkpt><trkpt lat="40.754917" lon="-3.8323312"><ele>982.3333333333333</ele><time>2026-04-04T09:25:26.387Z</time></trkpt><trkpt lat="40.7548981" lon="-3.8324218"><ele>981.5</ele><time>2026-04-04T09:25:28.388Z</time></trkpt><trkpt lat="40.7548745" lon="-3.8325087"><ele>980.6666666666666</ele><time>2026-04-04T09:25:30.388Z</time></trkpt><trkpt lat="40.7548456" lon="-3.832595"><ele>979.8333333333333</ele><time>2026-04-04T09:25:32.388Z</time></trkpt><trkpt lat="40.7548421" lon="-3.8327139"><ele>979.0</ele><time>2026-04-04T09:25:35.388Z</time></trkpt><trkpt lat="40.7548773" lon="-3.832828"><ele>977.6666666666666</ele><time>2026-04-04T09:25:38.388Z</time></trkpt><trkpt lat="40.7549251" lon="-3.8329054"><ele>976.3333333333333</ele><time>2026-04-04T09:25:40.388Z</time></trkpt><trkpt lat="40.7549714" lon="-3.8329986"><ele>975.0</ele><time>2026-04-04T09:25:42.388Z</time></trkpt><trkpt lat="40.7550119" lon="-3.8331051"><ele>973.6666666666667</ele><time>2026-04-04T09:25:45.388Z</time></trkpt><trkpt lat="40.7549941" lon="-3.833213"><ele>972.3333333333334</ele><time>2026-04-04T09:25:48.388Z</time></trkpt><trkpt lat="40.7549626" lon="-3.8333127"><ele>971.0</ele><time>2026-04-04T09:25:50.388Z</time></trkpt><trkpt lat="40.7549323" lon="-3.833442"><ele>971.0000000000001</ele><time>2026-04-04T09:25:52.388Z</time></trkpt><trkpt lat="40.7549198" lon="-3.833543"><ele>971.0</ele><time>2026-04-04T09:25:54.388Z</time></trkpt><trkpt lat="40.7549131" lon="-3.8336404"><ele>971.0</ele><time>2026-04-04T09:25:56.387Z</time></trkpt><trkpt lat="40.7549121" lon="-3.8337626"><ele>971.0</ele><time>2026-04-04T09:25:59.387Z</time></trkpt><trkpt lat="40.7549153" lon="-3.8338514"><ele>971.0000000000001</ele><time>2026-04-04T09:26:01.388Z</time></trkpt><trkpt lat="40.7549079" lon="-3.8339473"><ele>971.0</ele><time>2026-04-04T09:26:04.387Z</time></trkpt><trkpt lat="40.754897" lon="-3.834042"><ele>971.0000000000001</ele><time>2026-04-04T09:26:07.388Z</time></trkpt><trkpt lat="40.7548822" lon="-3.8341514"><ele>971.0</ele><time>2026-04-04T09:26:10.388Z</time></trkpt><trkpt lat="40.7548899" lon="-3.834262"><ele>971.0</ele><time>2026-04-04T09:26:13.388Z</time></trkpt><trkpt lat="40.75487" lon="-3.8343631"><ele>971.0</ele><time>2026-04-04T09:26:16.388Z</time></trkpt><trkpt lat="40.7548508" lon="-3.8344634"><ele>971.0000000000001</ele><time>2026-04-04T09:26:19.388Z</time></trkpt><trkpt lat="40.7548503" lon="-3.8345705"><ele>971.0</ele><time>2026-04-04T09:26:22.387Z</time></trkpt><trkpt lat="40.7548312" lon="-3.8346748"><ele>971.3333333333334</ele><time>2026-04-04T09:26:26.388Z</time></trkpt><trkpt lat="40.7548149" lon="-3.834782"><ele>971.6666666666667</ele><time>2026-04-04T09:26:31.387Z</time></trkpt><trkpt lat="40.7548016" lon="-3.8348913"><ele>972.0</ele><time>2026-04-04T09:26:35.387Z</time></trkpt><trkpt lat="40.7547977" lon="-3.8349886"><ele>972.3333333333333</ele><time>2026-04-04T09:26:37.388Z</time></trkpt><trkpt lat="40.7547766" lon="-3.8351105"><ele>972.6666666666666</ele><time>2026-04-04T09:26:39.388Z</time></trkpt><trkpt lat="40.7547488" lon="-3.8352122"><ele>973.0</ele><time>2026-04-04T09:26:41.387Z</time></trkpt><trkpt lat="40.7547098" lon="-3.8352847"><ele>973.0</ele><time>2026-04-04T09:26:43.388Z</time></trkpt><trkpt lat="40.754686" lon="-3.8353849"><ele>973.0</ele><time>2026-04-04T09:26:45.387Z</time></trkpt><trkpt lat="40.7546854" lon="-3.8354819"><ele>973.0</ele><time>2026-04-04T09:26:47.388Z</time></trkpt><trkpt lat="40.7546954" lon="-3.8355749"><ele>973.0</ele><time>2026-04-04T09:26:49.387Z</time></trkpt><trkpt lat="40.7546743" lon="-3.8356576"><ele>973.0</ele><time>2026-04-04T09:26:51.388Z</time></trkpt><trkpt lat="40.7546706" lon="-3.8357575"><ele>973.0</ele><time>2026-04-04T09:26:54.388Z</time></trkpt><trkpt lat="40.7546724" lon="-3.8358486"><ele>973.0</ele><time>2026-04-04T09:26:58.388Z</time></trkpt><trkpt lat="40.7546499" lon="-3.8359516"><ele>971.9999999999999</ele><time>2026-04-04T09:27:01.388Z</time></trkpt><trkpt lat="40.7546262" lon="-3.8360569"><ele>971.0</ele><time>2026-04-04T09:27:04.388Z</time></trkpt><trkpt lat="40.7545757" lon="-3.8361413"><ele>970.0</ele><time>2026-04-04T09:27:07.387Z</time></trkpt><trkpt lat="40.7545487" lon="-3.8362209"><ele>969.0</ele><time>2026-04-04T09:27:10.388Z</time></trkpt><trkpt lat="40.7545541" lon="-3.836324"><ele>967.9999999999999</ele><time>2026-04-04T09:27:13.388Z</time></trkpt><trkpt lat="40.7545282" lon="-3.836417"><ele>967.0</ele><time>2026-04-04T09:27:17.388Z</time></trkpt><trkpt lat="40.7545106" lon="-3.8365086"><ele>966.9999999999999</ele><time>2026-04-04T09:27:28.388Z</time></trkpt><trkpt lat="40.7545195" lon="-3.8366122"><ele>967.0</ele><time>2026-04-04T09:27:32.388Z</time></trkpt><trkpt lat="40.7545184" lon="-3.8367053"><ele>967.0</ele><time>2026-04-04T09:27:36.388Z</time></trkpt><trkpt lat="40.754517" lon="-3.8367959"><ele>967.0</ele><time>2026-04-04T09:27:40.388Z</time></trkpt><trkpt lat="40.7545193" lon="-3.8368938"><ele>966.9999999999999</ele><time>2026-04-04T09:27:44.388Z</time></trkpt><trkpt lat="40.7545726" lon="-3.8369826"><ele>967.0</ele><time>2026-04-04T09:27:47.388Z</time></trkpt><trkpt lat="40.7546211" lon="-3.8370848"><ele>966.0</ele><time>2026-04-04T09:27:51.388Z</time></trkpt><trkpt lat="40.754643" lon="-3.8371875"><ele>965.0</ele><time>2026-04-04T09:27:54.387Z</time></trkpt><trkpt lat="40.754626" lon="-3.8372779"><ele>964.0</ele><time>2026-04-04T09:27:56.387Z</time></trkpt><trkpt lat="40.7546128" lon="-3.8373815"><ele>963.0</ele><time>2026-04-04T09:27:59.388Z</time></trkpt><trkpt lat="40.754595" lon="-3.8374613"><ele>962.0</ele><time>2026-04-04T09:28:02.388Z</time></trkpt><trkpt lat="40.754593" lon="-3.8375614"><ele>961.0</ele><time>2026-04-04T09:28:06.388Z</time></trkpt><trkpt lat="40.7546069" lon="-3.8376479"><ele>960.0</ele><time>2026-04-04T09:28:09.388Z</time></trkpt><trkpt lat="40.7545912" lon="-3.8377347"><ele>960.0</ele><time>2026-04-04T09:28:12.388Z</time></trkpt><trkpt lat="40.7545937" lon="-3.8378181"><ele>960.0</ele><time>2026-04-04T09:28:14.388Z</time></trkpt><trkpt lat="40.7545977" lon="-3.8379188"><ele>960.0</ele><time>2026-04-04T09:28:17.388Z</time></trkpt><trkpt lat="40.7546082" lon="-3.8380085"><ele>960.0</ele><time>2026-04-04T09:28:48.388Z</time></trkpt><trkpt lat="40.7546336" lon="-3.8380873"><ele>960.0</ele><time>2026-04-04T09:28:53.388Z</time></trkpt><trkpt lat="40.7546374" lon="-3.8381718"><ele>960.0</ele><time>2026-04-04T09:29:10.388Z</time></trkpt><trkpt lat="40.7546461" lon="-3.8382685"><ele>960.0</ele><time>2026-04-04T09:29:12.388Z</time></trkpt><trkpt lat="40.7546458" lon="-3.8383771"><ele>960.0</ele><time>2026-04-04T09:29:14.388Z</time></trkpt><trkpt lat="40.7546579" lon="-3.8384634"><ele>960.0</ele><time>2026-04-04T09:29:16.388Z</time></trkpt><trkpt lat="40.7546609" lon="-3.8385851"><ele>960.0</ele><time>2026-04-04T09:29:19.388Z</time></trkpt><trkpt lat="40.7546576" lon="-3.8386768"><ele>960.0</ele><time>2026-04-04T09:29:21.388Z</time></trkpt><trkpt lat="40.7546498" lon="-3.8387683"><ele>960.0</ele><time>2026-04-04T09:29:23.388Z</time></trkpt><trkpt lat="40.7546367" lon="-3.8388841"><ele>960.0</ele><time>2026-04-04T09:29:25.388Z</time></trkpt><trkpt lat="40.754634" lon="-3.8389956"><ele>961.3333333333334</ele><time>2026-04-04T09:29:28.387Z</time></trkpt><trkpt lat="40.7546433" lon="-3.8390905"><ele>962.6666666666667</ele><time>2026-04-04T09:29:31.388Z</time></trkpt><trkpt lat="40.7546472" lon="-3.8392547"><ele>964.0</ele><time>2026-04-04T09:29:45.388Z</time></trkpt><trkpt lat="40.7546208" lon="-3.8393582"><ele>965.3333333333334</ele><time>2026-04-04T09:29:48.387Z</time></trkpt><trkpt lat="40.7545806" lon="-3.8394432"><ele>966.6666666666667</ele><time>2026-04-04T09:29:52.388Z</time></trkpt><trkpt lat="40.7545445" lon="-3.8395487"><ele>968.0</ele><time>2026-04-04T09:29:56.387Z</time></trkpt><trkpt lat="40.7545054" lon="-3.8396276"><ele>968.4</ele><time>2026-04-04T09:29:58.388Z</time></trkpt><trkpt lat="40.7544473" lon="-3.8396878"><ele>968.8</ele><time>2026-04-04T09:30:00.388Z</time></trkpt><trkpt lat="40.7543878" lon="-3.8397348"><ele>969.2</ele><time>2026-04-04T09:30:02.387Z</time></trkpt><trkpt lat="40.7542405" lon="-3.839668"><ele>969.6</ele><time>2026-04-04T09:31:08.501Z</time></trkpt><trkpt lat="40.7541612" lon="-3.839585"><ele>970.0</ele><time>2026-04-04T09:31:11.364Z</time></trkpt><trkpt lat="40.75407" lon="-3.8395212"><ele>965.4</ele><time>2026-04-04T09:31:13.421Z</time></trkpt><trkpt lat="40.7539699" lon="-3.8395267"><ele>960.8</ele><time>2026-04-04T09:31:17.473Z</time></trkpt><trkpt lat="40.753898" lon="-3.8395376"><ele>956.2</ele><time>2026-04-04T09:31:19.528Z</time></trkpt><trkpt lat="40.7538356" lon="-3.8396077"><ele>951.6</ele><time>2026-04-04T09:31:22.478Z</time></trkpt><trkpt lat="40.7537515" lon="-3.8396751"><ele>947.0</ele><time>2026-04-04T09:31:25.496Z</time></trkpt><trkpt lat="40.7536216" lon="-3.8396509"><ele>947.0000000000001</ele><time>2026-04-04T09:31:28.387Z</time></trkpt><trkpt lat="40.7535805" lon="-3.8395846"><ele>947.0</ele><time>2026-04-04T09:31:29.388Z</time></trkpt><trkpt lat="40.7535398" lon="-3.8395157"><ele>947.0</ele><time>2026-04-04T09:31:30.388Z</time></trkpt><trkpt lat="40.7534714" lon="-3.8393878"><ele>947.0</ele><time>2026-04-04T09:31:32.388Z</time></trkpt><trkpt lat="40.7534132" lon="-3.8392599"><ele>947.0000000000001</ele><time>2026-04-04T09:31:34.388Z</time></trkpt><trkpt lat="40.7533642" lon="-3.8392002"><ele>947.0</ele><time>2026-04-04T09:31:35.388Z</time></trkpt><trkpt lat="40.7533038" lon="-3.8391523"><ele>945.8571428571428</ele><time>2026-04-04T09:31:36.387Z</time></trkpt><trkpt lat="40.7532396" lon="-3.8391112"><ele>944.7142857142856</ele><time>2026-04-04T09:31:37.388Z</time></trkpt><trkpt lat="40.753185" lon="-3.8390648"><ele>943.5714285714286</ele><time>2026-04-04T09:31:38.387Z</time></trkpt><trkpt lat="40.7531277" lon="-3.8390119"><ele>942.4285714285713</ele><time>2026-04-04T09:31:39.388Z</time></trkpt><trkpt lat="40.7530696" lon="-3.8389621"><ele>941.2857142857142</ele><time>2026-04-04T09:31:40.388Z</time></trkpt><trkpt lat="40.7530173" lon="-3.8389055"><ele>940.1428571428571</ele><time>2026-04-04T09:31:41.387Z</time></trkpt><trkpt lat="40.7529642" lon="-3.8388369"><ele>939.0</ele><time>2026-04-04T09:31:42.388Z</time></trkpt><trkpt lat="40.7529051" lon="-3.8387674"><ele>939.0</ele><time>2026-04-04T09:31:43.387Z</time></trkpt><trkpt lat="40.7528444" lon="-3.8387119"><ele>939.0</ele><time>2026-04-04T09:31:44.388Z</time></trkpt><trkpt lat="40.7527801" lon="-3.8386568"><ele>939.0</ele><time>2026-04-04T09:31:45.387Z</time></trkpt><trkpt lat="40.7527249" lon="-3.8385881"><ele>939.0</ele><time>2026-04-04T09:31:46.388Z</time></trkpt><trkpt lat="40.75268" lon="-3.8385079"><ele>939.0</ele><time>2026-04-04T09:31:47.388Z</time></trkpt><trkpt lat="40.7526394" lon="-3.8384298"><ele>939.0</ele><time>2026-04-04T09:31:48.388Z</time></trkpt><trkpt lat="40.7525941" lon="-3.8383574"><ele>939.0</ele><time>2026-04-04T09:31:49.388Z</time></trkpt><trkpt lat="40.7525425" lon="-3.8382986"><ele>938.3333333333334</ele><time>2026-04-04T09:31:50.388Z</time></trkpt><trkpt lat="40.7524902" lon="-3.8382512"><ele>937.6666666666667</ele><time>2026-04-04T09:31:51.387Z</time></trkpt><trkpt lat="40.7524412" lon="-3.8381989"><ele>937.0</ele><time>2026-04-04T09:31:52.388Z</time></trkpt><trkpt lat="40.7523944" lon="-3.8381375"><ele>936.3333333333334</ele><time>2026-04-04T09:31:53.388Z</time></trkpt><trkpt lat="40.752349" lon="-3.8380777"><ele>935.6666666666667</ele><time>2026-04-04T09:31:54.388Z</time></trkpt><trkpt lat="40.7522786" lon="-3.8379594"><ele>935.0</ele><time>2026-04-04T09:31:56.388Z</time></trkpt><trkpt lat="40.7522473" lon="-3.8378238"><ele>935.0</ele><time>2026-04-04T09:31:58.388Z</time></trkpt><trkpt lat="40.7522137" lon="-3.8377232"><ele>935.0</ele><time>2026-04-04T09:32:00.387Z</time></trkpt><trkpt lat="40.7521755" lon="-3.8375971"><ele>935.0</ele><time>2026-04-04T09:32:03.388Z</time></trkpt><trkpt lat="40.752142" lon="-3.837468"><ele>935.0</ele><time>2026-04-04T09:32:05.388Z</time></trkpt><trkpt lat="40.7521269" lon="-3.8373278"><ele>935.0</ele><time>2026-04-04T09:32:07.388Z</time></trkpt><trkpt lat="40.7520903" lon="-3.8372028"><ele>935.2</ele><time>2026-04-04T09:32:09.388Z</time></trkpt><trkpt lat="40.7520213" lon="-3.8370822"><ele>935.4</ele><time>2026-04-04T09:32:11.388Z</time></trkpt><trkpt lat="40.7519777" lon="-3.8369502"><ele>935.5999999999999</ele><time>2026-04-04T09:32:13.388Z</time></trkpt><trkpt lat="40.7519117" lon="-3.8368779"><ele>935.8</ele><time>2026-04-04T09:32:15.388Z</time></trkpt><trkpt lat="40.751816" lon="-3.8368021"><ele>936.0</ele><time>2026-04-04T09:32:17.388Z</time></trkpt><trkpt lat="40.7517602" lon="-3.8367536"><ele>935.4</ele><time>2026-04-04T09:32:18.388Z</time></trkpt><trkpt lat="40.7516994" lon="-3.8366821"><ele>934.8</ele><time>2026-04-04T09:32:19.388Z</time></trkpt><trkpt lat="40.7516367" lon="-3.8365956"><ele>934.1999999999999</ele><time>2026-04-04T09:32:20.388Z</time></trkpt><trkpt lat="40.7515751" lon="-3.8365031"><ele>933.5999999999999</ele><time>2026-04-04T09:32:21.387Z</time></trkpt><trkpt lat="40.7515105" lon="-3.8364037"><ele>933.0</ele><time>2026-04-04T09:32:22.388Z</time></trkpt><trkpt lat="40.7514398" lon="-3.836313"><ele>933.0</ele><time>2026-04-04T09:32:23.388Z</time></trkpt><trkpt lat="40.7513629" lon="-3.8362313"><ele>933.0</ele><time>2026-04-04T09:32:24.387Z</time></trkpt><trkpt lat="40.7512847" lon="-3.8361564"><ele>933.0</ele><time>2026-04-04T09:32:25.388Z</time></trkpt><trkpt lat="40.7512073" lon="-3.8360817"><ele>933.0</ele><time>2026-04-04T09:32:26.388Z</time></trkpt><trkpt lat="40.7511444" lon="-3.8360007"><ele>933.0</ele><time>2026-04-04T09:32:27.387Z</time></trkpt><trkpt lat="40.7510917" lon="-3.8359076"><ele>932.8333333333334</ele><time>2026-04-04T09:32:28.387Z</time></trkpt><trkpt lat="40.7510439" lon="-3.8358147"><ele>932.6666666666667</ele><time>2026-04-04T09:32:29.387Z</time></trkpt><trkpt lat="40.750995" lon="-3.8357405"><ele>932.5</ele><time>2026-04-04T09:32:30.388Z</time></trkpt><trkpt lat="40.7509283" lon="-3.8356904"><ele>932.3333333333334</ele><time>2026-04-04T09:32:31.387Z</time></trkpt><trkpt lat="40.7508437" lon="-3.8356568"><ele>932.1666666666667</ele><time>2026-04-04T09:32:32.388Z</time></trkpt><trkpt lat="40.7507621" lon="-3.8356148"><ele>932.0</ele><time>2026-04-04T09:32:33.387Z</time></trkpt><trkpt lat="40.7506867" lon="-3.835559"><ele>931.6666666666667</ele><time>2026-04-04T09:32:34.387Z</time></trkpt><trkpt lat="40.7506248" lon="-3.8354893"><ele>931.3333333333334</ele><time>2026-04-04T09:32:35.388Z</time></trkpt><trkpt lat="40.7505796" lon="-3.8354055"><ele>931.0</ele><time>2026-04-04T09:32:36.387Z</time></trkpt><trkpt lat="40.7505361" lon="-3.835311"><ele>930.6666666666667</ele><time>2026-04-04T09:32:37.388Z</time></trkpt><trkpt lat="40.7504882" lon="-3.8352351"><ele>930.3333333333334</ele><time>2026-04-04T09:32:38.387Z</time></trkpt><trkpt lat="40.750433" lon="-3.8351697"><ele>930.0</ele><time>2026-04-04T09:32:39.388Z</time></trkpt><trkpt lat="40.7503783" lon="-3.8351168"><ele>929.8333333333334</ele><time>2026-04-04T09:32:40.387Z</time></trkpt><trkpt lat="40.7503126" lon="-3.8349997"><ele>929.6666666666667</ele><time>2026-04-04T09:32:42.387Z</time></trkpt><trkpt lat="40.7502966" lon="-3.8349091"><ele>929.5</ele><time>2026-04-04T09:32:43.388Z</time></trkpt><trkpt lat="40.7502894" lon="-3.8348184"><ele>929.3333333333334</ele><time>2026-04-04T09:32:44.388Z</time></trkpt><trkpt lat="40.7502684" lon="-3.8347341"><ele>929.1666666666667</ele><time>2026-04-04T09:32:45.388Z</time></trkpt><trkpt lat="40.7502211" lon="-3.8346638"><ele>929.0</ele><time>2026-04-04T09:32:46.387Z</time></trkpt><trkpt lat="40.7500854" lon="-3.8346255"><ele>928.8333333333334</ele><time>2026-04-04T09:32:48.387Z</time></trkpt><trkpt lat="40.7500097" lon="-3.8346432"><ele>928.6666666666667</ele><time>2026-04-04T09:32:49.387Z</time></trkpt><trkpt lat="40.7499272" lon="-3.8346447"><ele>928.5</ele><time>2026-04-04T09:32:50.388Z</time></trkpt><trkpt lat="40.7498364" lon="-3.834631"><ele>928.3333333333333</ele><time>2026-04-04T09:32:51.388Z</time></trkpt><trkpt lat="40.7497525" lon="-3.8345837"><ele>928.1666666666666</ele><time>2026-04-04T09:32:52.388Z</time></trkpt><trkpt lat="40.7496636" lon="-3.8345236"><ele>928.0</ele><time>2026-04-04T09:32:53.388Z</time></trkpt><trkpt lat="40.7495815" lon="-3.8344596"><ele>927.9999999999999</ele><time>2026-04-04T09:32:54.387Z</time></trkpt><trkpt lat="40.7495" lon="-3.8344093"><ele>928.0</ele><time>2026-04-04T09:32:55.388Z</time></trkpt><trkpt lat="40.7494222" lon="-3.8343739"><ele>928.0</ele><time>2026-04-04T09:32:56.388Z</time></trkpt><trkpt lat="40.7493463" lon="-3.8343632"><ele>928.0</ele><time>2026-04-04T09:32:57.388Z</time></trkpt><trkpt lat="40.7492789" lon="-3.8343682"><ele>927.9999999999999</ele><time>2026-04-04T09:32:58.387Z</time></trkpt><trkpt lat="40.7492078" lon="-3.8343725"><ele>928.0</ele><time>2026-04-04T09:32:59.388Z</time></trkpt><trkpt lat="40.7491404" lon="-3.8343376"><ele>928.4999999999999</ele><time>2026-04-04T09:33:00.388Z</time></trkpt><trkpt lat="40.7490708" lon="-3.8342818"><ele>929.0</ele><time>2026-04-04T09:33:01.388Z</time></trkpt><trkpt lat="40.7489969" lon="-3.8342338"><ele>929.5</ele><time>2026-04-04T09:33:02.388Z</time></trkpt><trkpt lat="40.7489163" lon="-3.8341993"><ele>930.0</ele><time>2026-04-04T09:33:03.388Z</time></trkpt><trkpt lat="40.7488273" lon="-3.8341817"><ele>930.4999999999999</ele><time>2026-04-04T09:33:04.388Z</time></trkpt><trkpt lat="40.7487438" lon="-3.8341888"><ele>931.0</ele><time>2026-04-04T09:33:05.387Z</time></trkpt><trkpt lat="40.7486651" lon="-3.8342177"><ele>930.9999999999999</ele><time>2026-04-04T09:33:06.388Z</time></trkpt><trkpt lat="40.7485828" lon="-3.8342394"><ele>931.0</ele><time>2026-04-04T09:33:07.388Z</time></trkpt><trkpt lat="40.7485073" lon="-3.8342418"><ele>931.0</ele><time>2026-04-04T09:33:08.388Z</time></trkpt><trkpt lat="40.7484315" lon="-3.8342326"><ele>931.0</ele><time>2026-04-04T09:33:09.388Z</time></trkpt><trkpt lat="40.7483466" lon="-3.8342263"><ele>930.9999999999999</ele><time>2026-04-04T09:33:10.388Z</time></trkpt><trkpt lat="40.7482678" lon="-3.8342246"><ele>931.0</ele><time>2026-04-04T09:33:11.388Z</time></trkpt><trkpt lat="40.7481917" lon="-3.8342175"><ele>929.8333333333333</ele><time>2026-04-04T09:33:12.388Z</time></trkpt><trkpt lat="40.7481182" lon="-3.8342187"><ele>928.6666666666666</ele><time>2026-04-04T09:33:13.388Z</time></trkpt><trkpt lat="40.7480353" lon="-3.8342424"><ele>927.5</ele><time>2026-04-04T09:33:14.388Z</time></trkpt><trkpt lat="40.7479579" lon="-3.8342877"><ele>926.3333333333333</ele><time>2026-04-04T09:33:15.387Z</time></trkpt><trkpt lat="40.747873" lon="-3.834337"><ele>925.1666666666666</ele><time>2026-04-04T09:33:16.387Z</time></trkpt><trkpt lat="40.7477943" lon="-3.834381"><ele>924.0</ele><time>2026-04-04T09:33:17.388Z</time></trkpt><trkpt lat="40.7477216" lon="-3.8344089"><ele>923.8333333333334</ele><time>2026-04-04T09:33:18.388Z</time></trkpt><trkpt lat="40.7476537" lon="-3.8344076"><ele>923.6666666666667</ele><time>2026-04-04T09:33:19.388Z</time></trkpt><trkpt lat="40.7475852" lon="-3.8343872"><ele>923.5</ele><time>2026-04-04T09:33:20.388Z</time></trkpt><trkpt lat="40.747503" lon="-3.8343637"><ele>923.3333333333334</ele><time>2026-04-04T09:33:21.388Z</time></trkpt><trkpt lat="40.7474194" lon="-3.834333"><ele>923.1666666666667</ele><time>2026-04-04T09:33:22.388Z</time></trkpt><trkpt lat="40.7473256" lon="-3.8343045"><ele>923.0</ele><time>2026-04-04T09:33:23.388Z</time></trkpt><trkpt lat="40.7472459" lon="-3.8342903"><ele>923.0000000000001</ele><time>2026-04-04T09:33:24.388Z</time></trkpt><trkpt lat="40.747161" lon="-3.834278"><ele>923.0</ele><time>2026-04-04T09:33:25.387Z</time></trkpt><trkpt lat="40.7470713" lon="-3.8342698"><ele>923.0</ele><time>2026-04-04T09:33:26.387Z</time></trkpt><trkpt lat="40.7469796" lon="-3.8342877"><ele>923.0</ele><time>2026-04-04T09:33:27.387Z</time></trkpt><trkpt lat="40.7468929" lon="-3.8343167"><ele>923.0000000000001</ele><time>2026-04-04T09:33:28.388Z</time></trkpt><trkpt lat="40.7468121" lon="-3.8343405"><ele>923.0</ele><time>2026-04-04T09:33:29.388Z</time></trkpt><trkpt lat="40.7467369" lon="-3.8343498"><ele>922.5999999999999</ele><time>2026-04-04T09:33:30.388Z</time></trkpt><trkpt lat="40.7466571" lon="-3.8343327"><ele>922.1999999999999</ele><time>2026-04-04T09:33:31.387Z</time></trkpt><trkpt lat="40.7465779" lon="-3.8343017"><ele>921.8</ele><time>2026-04-04T09:33:32.388Z</time></trkpt><trkpt lat="40.7464718" lon="-3.8343187"><ele>921.4</ele><time>2026-04-04T09:33:34.387Z</time></trkpt><trkpt lat="40.7463716" lon="-3.8344103"><ele>921.0</ele><time>2026-04-04T09:33:36.388Z</time></trkpt><trkpt lat="40.7463097" lon="-3.8344441"><ele>920.8333333333334</ele><time>2026-04-04T09:33:37.388Z</time></trkpt><trkpt lat="40.7462457" lon="-3.8344454"><ele>920.6666666666667</ele><time>2026-04-04T09:33:38.388Z</time></trkpt><trkpt lat="40.7461694" lon="-3.8344344"><ele>920.5</ele><time>2026-04-04T09:33:39.388Z</time></trkpt><trkpt lat="40.7460875" lon="-3.8344418"><ele>920.3333333333334</ele><time>2026-04-04T09:33:40.388Z</time></trkpt><trkpt lat="40.7460058" lon="-3.8344673"><ele>920.1666666666667</ele><time>2026-04-04T09:33:41.388Z</time></trkpt><trkpt lat="40.7459269" lon="-3.8344946"><ele>920.0</ele><time>2026-04-04T09:33:42.388Z</time></trkpt><trkpt lat="40.7458532" lon="-3.8345236"><ele>919.1666666666667</ele><time>2026-04-04T09:33:43.388Z</time></trkpt><trkpt lat="40.7457684" lon="-3.8345573"><ele>918.3333333333334</ele><time>2026-04-04T09:33:44.388Z</time></trkpt><trkpt lat="40.7456814" lon="-3.8345847"><ele>917.5</ele><time>2026-04-04T09:33:45.387Z</time></trkpt><trkpt lat="40.7455964" lon="-3.8345972"><ele>916.6666666666667</ele><time>2026-04-04T09:33:46.388Z</time></trkpt><trkpt lat="40.7455176" lon="-3.8346081"><ele>915.8333333333334</ele><time>2026-04-04T09:33:47.387Z</time></trkpt><trkpt lat="40.7454464" lon="-3.8346317"><ele>915.0</ele><time>2026-04-04T09:33:48.388Z</time></trkpt><trkpt lat="40.7453734" lon="-3.8346535"><ele>915.0</ele><time>2026-04-04T09:33:49.388Z</time></trkpt><trkpt lat="40.7453075" lon="-3.8346715"><ele>915.0</ele><time>2026-04-04T09:33:50.388Z</time></trkpt><trkpt lat="40.7452359" lon="-3.8346887"><ele>915.0</ele><time>2026-04-04T09:33:51.388Z</time></trkpt><trkpt lat="40.7451638" lon="-3.834717"><ele>915.0</ele><time>2026-04-04T09:33:52.388Z</time></trkpt><trkpt lat="40.7450846" lon="-3.834759"><ele>915.0</ele><time>2026-04-04T09:33:53.388Z</time></trkpt><trkpt lat="40.7450051" lon="-3.834795"><ele>915.0</ele><time>2026-04-04T09:33:54.388Z</time></trkpt><trkpt lat="40.7449292" lon="-3.8348305"><ele>914.6666666666666</ele><time>2026-04-04T09:33:55.388Z</time></trkpt><trkpt lat="40.7448506" lon="-3.8348606"><ele>914.3333333333333</ele><time>2026-04-04T09:33:56.388Z</time></trkpt><trkpt lat="40.7447677" lon="-3.8348865"><ele>914.0</ele><time>2026-04-04T09:33:57.388Z</time></trkpt><trkpt lat="40.7446798" lon="-3.8349046"><ele>913.6666666666666</ele><time>2026-04-04T09:33:58.387Z</time></trkpt><trkpt lat="40.7445889" lon="-3.8349156"><ele>913.3333333333333</ele><time>2026-04-04T09:33:59.388Z</time></trkpt><trkpt lat="40.7444895" lon="-3.8349192"><ele>913.0</ele><time>2026-04-04T09:34:00.387Z</time></trkpt><trkpt lat="40.7443939" lon="-3.8349242"><ele>911.9999999999999</ele><time>2026-04-04T09:34:01.388Z</time></trkpt><trkpt lat="40.7443074" lon="-3.8349175"><ele>911.0</ele><time>2026-04-04T09:34:02.388Z</time></trkpt><trkpt lat="40.7442297" lon="-3.8348933"><ele>910.0</ele><time>2026-04-04T09:34:03.387Z</time></trkpt><trkpt lat="40.7441471" lon="-3.8348696"><ele>909.0</ele><time>2026-04-04T09:34:04.388Z</time></trkpt><trkpt lat="40.7440763" lon="-3.8348373"><ele>907.9999999999999</ele><time>2026-04-04T09:34:05.388Z</time></trkpt><trkpt lat="40.7440052" lon="-3.8348305"><ele>907.0</ele><time>2026-04-04T09:34:06.388Z</time></trkpt><trkpt lat="40.7439246" lon="-3.8348517"><ele>907.0</ele><time>2026-04-04T09:34:07.388Z</time></trkpt><trkpt lat="40.7438328" lon="-3.8348851"><ele>907.0</ele><time>2026-04-04T09:34:08.388Z</time></trkpt><trkpt lat="40.7437427" lon="-3.8349109"><ele>907.0</ele><time>2026-04-04T09:34:09.388Z</time></trkpt><trkpt lat="40.7436478" lon="-3.8349238"><ele>907.0</ele><time>2026-04-04T09:34:10.388Z</time></trkpt><trkpt lat="40.7435561" lon="-3.8349295"><ele>907.0</ele><time>2026-04-04T09:34:11.388Z</time></trkpt><trkpt lat="40.7434676" lon="-3.8349557"><ele>906.8333333333333</ele><time>2026-04-04T09:34:12.387Z</time></trkpt><trkpt lat="40.7433863" lon="-3.8349958"><ele>906.6666666666666</ele><time>2026-04-04T09:34:13.387Z</time></trkpt><trkpt lat="40.7433042" lon="-3.8350466"><ele>906.5</ele><time>2026-04-04T09:34:14.388Z</time></trkpt><trkpt lat="40.7432268" lon="-3.8351022"><ele>906.3333333333333</ele><time>2026-04-04T09:34:15.387Z</time></trkpt><trkpt lat="40.7431423" lon="-3.8351477"><ele>906.1666666666666</ele><time>2026-04-04T09:34:16.388Z</time></trkpt><trkpt lat="40.743062" lon="-3.8351824"><ele>906.0</ele><time>2026-04-04T09:34:17.388Z</time></trkpt><trkpt lat="40.7429808" lon="-3.8352069"><ele>905.5</ele><time>2026-04-04T09:34:18.388Z</time></trkpt><trkpt lat="40.7429054" lon="-3.8352266"><ele>905.0</ele><time>2026-04-04T09:34:19.387Z</time></trkpt><trkpt lat="40.7428307" lon="-3.8352588"><ele>904.5</ele><time>2026-04-04T09:34:20.387Z</time></trkpt><trkpt lat="40.7427535" lon="-3.8353039"><ele>904.0</ele><time>2026-04-04T09:34:21.387Z</time></trkpt><trkpt lat="40.7426755" lon="-3.8353555"><ele>903.5</ele><time>2026-04-04T09:34:22.388Z</time></trkpt><trkpt lat="40.7426001" lon="-3.8354069"><ele>903.0</ele><time>2026-04-04T09:34:23.387Z</time></trkpt><trkpt lat="40.7425228" lon="-3.8354524"><ele>902.8571428571429</ele><time>2026-04-04T09:34:24.388Z</time></trkpt><trkpt lat="40.7424542" lon="-3.8354964"><ele>902.7142857142858</ele><time>2026-04-04T09:34:25.388Z</time></trkpt><trkpt lat="40.74239" lon="-3.8355456"><ele>902.5714285714286</ele><time>2026-04-04T09:34:26.388Z</time></trkpt><trkpt lat="40.7423369" lon="-3.8356037"><ele>902.4285714285714</ele><time>2026-04-04T09:34:27.388Z</time></trkpt><trkpt lat="40.7422934" lon="-3.8356712"><ele>902.2857142857143</ele><time>2026-04-04T09:34:28.388Z</time></trkpt><trkpt lat="40.7422564" lon="-3.8357488"><ele>902.1428571428571</ele><time>2026-04-04T09:34:29.387Z</time></trkpt><trkpt lat="40.7422376" lon="-3.835841"><ele>902.0</ele><time>2026-04-04T09:34:30.388Z</time></trkpt><trkpt lat="40.7422429" lon="-3.8359283"><ele>901.5000000000001</ele><time>2026-04-04T09:34:31.388Z</time></trkpt><trkpt lat="40.7422349" lon="-3.8360683"><ele>901.0</ele><time>2026-04-04T09:34:33.388Z</time></trkpt><trkpt lat="40.7421847" lon="-3.8361578"><ele>900.5</ele><time>2026-04-04T09:34:35.388Z</time></trkpt><trkpt lat="40.7421103" lon="-3.836215"><ele>900.0</ele><time>2026-04-04T09:34:37.388Z</time></trkpt><trkpt lat="40.7420364" lon="-3.8362473"><ele>899.5000000000001</ele><time>2026-04-04T09:34:39.388Z</time></trkpt><trkpt lat="40.7419545" lon="-3.8362908"><ele>899.0</ele><time>2026-04-04T09:34:41.388Z</time></trkpt><trkpt lat="40.7419123" lon="-3.8363646"><ele>899.1666666666667</ele><time>2026-04-04T09:34:43.388Z</time></trkpt><trkpt lat="40.7418563" lon="-3.8364164"><ele>899.3333333333334</ele><time>2026-04-04T09:34:46.388Z</time></trkpt><trkpt lat="40.7417741" lon="-3.8364075"><ele>899.5</ele><time>2026-04-04T09:35:52.388Z</time></trkpt><trkpt lat="40.7417227" lon="-3.8363154"><ele>899.6666666666667</ele><time>2026-04-04T09:35:53.388Z</time></trkpt><trkpt lat="40.7416836" lon="-3.8362084"><ele>899.8333333333334</ele><time>2026-04-04T09:35:54.388Z</time></trkpt><trkpt lat="40.7416556" lon="-3.8360709"><ele>900.0</ele><time>2026-04-04T09:35:55.388Z</time></trkpt><trkpt lat="40.7416349" lon="-3.8359348"><ele>900.0</ele><time>2026-04-04T09:35:56.388Z</time></trkpt><trkpt lat="40.7416054" lon="-3.835787"><ele>900.0</ele><time>2026-04-04T09:35:57.388Z</time></trkpt><trkpt lat="40.7415648" lon="-3.8356494"><ele>900.0</ele><time>2026-04-04T09:35:58.388Z</time></trkpt><trkpt lat="40.7415093" lon="-3.8355373"><ele>900.0</ele><time>2026-04-04T09:35:59.388Z</time></trkpt><trkpt lat="40.7414402" lon="-3.8354685"><ele>900.0</ele><time>2026-04-04T09:36:00.388Z</time></trkpt><trkpt lat="40.7413653" lon="-3.8354251"><ele>900.0</ele><time>2026-04-04T09:36:01.387Z</time></trkpt><trkpt lat="40.7412946" lon="-3.8354118"><ele>900.0</ele><time>2026-04-04T09:36:02.388Z</time></trkpt><trkpt lat="40.7412301" lon="-3.835425"><ele>900.0</ele><time>2026-04-04T09:36:03.388Z</time></trkpt><trkpt lat="40.7411668" lon="-3.8355237"><ele>900.0</ele><time>2026-04-04T09:36:05.388Z</time></trkpt><trkpt lat="40.7411806" lon="-3.8356368"><ele>900.0</ele><time>2026-04-04T09:36:07.388Z</time></trkpt><trkpt lat="40.7412732" lon="-3.8357566"><ele>900.0</ele><time>2026-04-04T09:36:09.388Z</time></trkpt><trkpt lat="40.7413371" lon="-3.8357774"><ele>900.0</ele><time>2026-04-04T09:36:10.388Z</time></trkpt><trkpt lat="40.7414125" lon="-3.8357958"><ele>900.0</ele><time>2026-04-04T09:36:11.387Z</time></trkpt><trkpt lat="40.7414679" lon="-3.8358431"><ele>900.0</ele><time>2026-04-04T09:36:12.388Z</time></trkpt><trkpt lat="40.7415131" lon="-3.83592"><ele>900.0</ele><time>2026-04-04T09:36:13.388Z</time></trkpt><trkpt lat="40.7415302" lon="-3.8360409"><ele>900.0</ele><time>2026-04-04T09:36:14.388Z</time></trkpt><trkpt lat="40.7415452" lon="-3.8361847"><ele>899.5</ele><time>2026-04-04T09:36:15.388Z</time></trkpt><trkpt lat="40.7415667" lon="-3.8363145"><ele>899.0</ele><time>2026-04-04T09:36:16.388Z</time></trkpt><trkpt lat="40.7415824" lon="-3.8364412"><ele>898.5</ele><time>2026-04-04T09:36:17.388Z</time></trkpt><trkpt lat="40.7415857" lon="-3.8365559"><ele>898.0</ele><time>2026-04-04T09:36:18.388Z</time></trkpt><trkpt lat="40.7415737" lon="-3.8366619"><ele>897.5</ele><time>2026-04-04T09:36:19.387Z</time></trkpt><trkpt lat="40.7415541" lon="-3.8367645"><ele>897.0</ele><time>2026-04-04T09:36:20.388Z</time></trkpt><trkpt lat="40.7415411" lon="-3.8368681"><ele>897.0</ele><time>2026-04-04T09:36:21.388Z</time></trkpt><trkpt lat="40.7415378" lon="-3.8369665"><ele>897.0</ele><time>2026-04-04T09:36:22.387Z</time></trkpt><trkpt lat="40.7415337" lon="-3.8370552"><ele>897.0</ele><time>2026-04-04T09:36:23.388Z</time></trkpt><trkpt lat="40.7415391" lon="-3.8372002"><ele>897.0</ele><time>2026-04-04T09:36:25.388Z</time></trkpt><trkpt lat="40.7415731" lon="-3.8372972"><ele>897.0</ele><time>2026-04-04T09:36:27.387Z</time></trkpt><trkpt lat="40.7416007" lon="-3.8373719"><ele>897.0</ele><time>2026-04-04T09:36:29.388Z</time></trkpt><trkpt lat="40.7416112" lon="-3.8374561"><ele>897.0</ele><time>2026-04-04T09:36:31.387Z</time></trkpt><trkpt lat="40.7415891" lon="-3.837552"><ele>897.0</ele><time>2026-04-04T09:36:33.387Z</time></trkpt><trkpt lat="40.7415483" lon="-3.8376172"><ele>897.0</ele><time>2026-04-04T09:36:35.388Z</time></trkpt><trkpt lat="40.7415111" lon="-3.8377197"><ele>897.0</ele><time>2026-04-04T09:36:37.388Z</time></trkpt><trkpt lat="40.7414971" lon="-3.8378418"><ele>897.0</ele><time>2026-04-04T09:36:39.387Z</time></trkpt><trkpt lat="40.7414677" lon="-3.8379825"><ele>897.0</ele><time>2026-04-04T09:36:41.388Z</time></trkpt><trkpt lat="40.7414573" lon="-3.8380764"><ele>897.5</ele><time>2026-04-04T09:36:42.388Z</time></trkpt><trkpt lat="40.7414399" lon="-3.8381782"><ele>898.0</ele><time>2026-04-04T09:36:43.388Z</time></trkpt><trkpt lat="40.741418" lon="-3.8382791"><ele>898.5</ele><time>2026-04-04T09:36:44.388Z</time></trkpt><trkpt lat="40.7413907" lon="-3.8383682"><ele>899.0</ele><time>2026-04-04T09:36:45.387Z</time></trkpt><trkpt lat="40.7413661" lon="-3.8384522"><ele>899.5</ele><time>2026-04-04T09:36:46.388Z</time></trkpt><trkpt lat="40.7413268" lon="-3.8385921"><ele>900.0</ele><time>2026-04-04T09:36:48.388Z</time></trkpt><trkpt lat="40.7412822" lon="-3.8387421"><ele>900.3333333333334</ele><time>2026-04-04T09:36:50.388Z</time></trkpt><trkpt lat="40.7412537" lon="-3.8388193"><ele>900.6666666666667</ele><time>2026-04-04T09:36:51.388Z</time></trkpt><trkpt lat="40.7412192" lon="-3.8388941"><ele>901.0</ele><time>2026-04-04T09:36:52.388Z</time></trkpt><trkpt lat="40.7411502" lon="-3.8390389"><ele>901.3333333333334</ele><time>2026-04-04T09:36:54.388Z</time></trkpt><trkpt lat="40.7411093" lon="-3.8391215"><ele>901.6666666666667</ele><time>2026-04-04T09:36:55.388Z</time></trkpt><trkpt lat="40.7410761" lon="-3.839204"><ele>902.0</ele><time>2026-04-04T09:36:56.387Z</time></trkpt><trkpt lat="40.741048" lon="-3.8392872"><ele>901.6</ele><time>2026-04-04T09:36:57.388Z</time></trkpt><trkpt lat="40.741024" lon="-3.8393643"><ele>901.2</ele><time>2026-04-04T09:36:58.387Z</time></trkpt><trkpt lat="40.7409699" lon="-3.8395099"><ele>900.8</ele><time>2026-04-04T09:37:00.388Z</time></trkpt><trkpt lat="40.7409376" lon="-3.8395856"><ele>900.4</ele><time>2026-04-04T09:37:01.388Z</time></trkpt><trkpt lat="40.7408718" lon="-3.8397249"><ele>900.0</ele><time>2026-04-04T09:37:03.388Z</time></trkpt><trkpt lat="40.7408084" lon="-3.8398562"><ele>900.0</ele><time>2026-04-04T09:37:05.388Z</time></trkpt><trkpt lat="40.7407567" lon="-3.8399794"><ele>900.0</ele><time>2026-04-04T09:37:07.387Z</time></trkpt><trkpt lat="40.7407171" lon="-3.8401024"><ele>900.0</ele><time>2026-04-04T09:37:09.388Z</time></trkpt><trkpt lat="40.7406908" lon="-3.8401929"><ele>900.0</ele><time>2026-04-04T09:37:11.388Z</time></trkpt><trkpt lat="40.7406567" lon="-3.8402715"><ele>900.0</ele><time>2026-04-04T09:37:13.387Z</time></trkpt><trkpt lat="40.7405969" lon="-3.8403589"><ele>900.0</ele><time>2026-04-04T09:37:15.387Z</time></trkpt><trkpt lat="40.740543" lon="-3.8404473"><ele>900.6</ele><time>2026-04-04T09:37:17.388Z</time></trkpt><trkpt lat="40.7404709" lon="-3.8405294"><ele>901.2</ele><time>2026-04-04T09:37:19.388Z</time></trkpt><trkpt lat="40.7403668" lon="-3.8406329"><ele>901.8</ele><time>2026-04-04T09:37:21.388Z</time></trkpt><trkpt lat="40.7403184" lon="-3.8407185"><ele>902.4</ele><time>2026-04-04T09:37:22.387Z</time></trkpt><trkpt lat="40.7402789" lon="-3.8408112"><ele>903.0</ele><time>2026-04-04T09:37:23.388Z</time></trkpt><trkpt lat="40.7402381" lon="-3.8409082"><ele>902.8333333333334</ele><time>2026-04-04T09:37:24.388Z</time></trkpt><trkpt lat="40.7402046" lon="-3.8410132"><ele>902.6666666666667</ele><time>2026-04-04T09:37:25.388Z</time></trkpt><trkpt lat="40.7401677" lon="-3.8411275"><ele>902.5</ele><time>2026-04-04T09:37:26.388Z</time></trkpt><trkpt lat="40.7401273" lon="-3.8412312"><ele>902.3333333333334</ele><time>2026-04-04T09:37:27.388Z</time></trkpt><trkpt lat="40.7400891" lon="-3.841326"><ele>902.1666666666667</ele><time>2026-04-04T09:37:28.387Z</time></trkpt><trkpt lat="40.7400434" lon="-3.8414225"><ele>902.0</ele><time>2026-04-04T09:37:29.388Z</time></trkpt><trkpt lat="40.7400014" lon="-3.8415183"><ele>902.0000000000001</ele><time>2026-04-04T09:37:30.388Z</time></trkpt><trkpt lat="40.739965" lon="-3.8416208"><ele>902.0</ele><time>2026-04-04T09:37:31.388Z</time></trkpt><trkpt lat="40.7399405" lon="-3.8417353"><ele>902.0</ele><time>2026-04-04T09:37:32.388Z</time></trkpt><trkpt lat="40.739923" lon="-3.8418502"><ele>902.0</ele><time>2026-04-04T09:37:33.388Z</time></trkpt><trkpt lat="40.7399014" lon="-3.8419576"><ele>902.0000000000001</ele><time>2026-04-04T09:37:34.388Z</time></trkpt><trkpt lat="40.7398639" lon="-3.8420406"><ele>902.0</ele><time>2026-04-04T09:37:35.388Z</time></trkpt><trkpt lat="40.7398167" lon="-3.8421096"><ele>902.1666666666667</ele><time>2026-04-04T09:37:36.388Z</time></trkpt><trkpt lat="40.7397713" lon="-3.8421939"><ele>902.3333333333334</ele><time>2026-04-04T09:37:37.388Z</time></trkpt><trkpt lat="40.739723" lon="-3.8422855"><ele>902.5</ele><time>2026-04-04T09:37:38.387Z</time></trkpt><trkpt lat="40.739667" lon="-3.8423688"><ele>902.6666666666667</ele><time>2026-04-04T09:37:39.387Z</time></trkpt><trkpt lat="40.7396135" lon="-3.842442"><ele>902.8333333333334</ele><time>2026-04-04T09:37:40.387Z</time></trkpt><trkpt lat="40.7395665" lon="-3.8425128"><ele>903.0</ele><time>2026-04-04T09:37:41.388Z</time></trkpt><trkpt lat="40.7395166" lon="-3.8425833"><ele>903.6666666666666</ele><time>2026-04-04T09:37:42.388Z</time></trkpt><trkpt lat="40.7394619" lon="-3.8426551"><ele>904.3333333333333</ele><time>2026-04-04T09:37:43.388Z</time></trkpt><trkpt lat="40.7393974" lon="-3.8427295"><ele>905.0</ele><time>2026-04-04T09:37:44.388Z</time></trkpt><trkpt lat="40.7393249" lon="-3.8427946"><ele>905.6666666666666</ele><time>2026-04-04T09:37:45.387Z</time></trkpt><trkpt lat="40.7392546" lon="-3.842856"><ele>906.3333333333333</ele><time>2026-04-04T09:37:46.388Z</time></trkpt><trkpt lat="40.7391753" lon="-3.8429122"><ele>907.0</ele><time>2026-04-04T09:37:47.388Z</time></trkpt><trkpt lat="40.7390976" lon="-3.8429622"><ele>905.4999999999999</ele><time>2026-04-04T09:37:48.388Z</time></trkpt><trkpt lat="40.7390257" lon="-3.8430223"><ele>904.0</ele><time>2026-04-04T09:37:49.388Z</time></trkpt><trkpt lat="40.7389623" lon="-3.8430837"><ele>902.5</ele><time>2026-04-04T09:37:50.387Z</time></trkpt><trkpt lat="40.7389" lon="-3.8431381"><ele>901.0</ele><time>2026-04-04T09:37:51.388Z</time></trkpt><trkpt lat="40.7388444" lon="-3.8431857"><ele>899.4999999999999</ele><time>2026-04-04T09:37:52.388Z</time></trkpt><trkpt lat="40.7387585" lon="-3.8432588"><ele>898.0</ele><time>2026-04-04T09:37:54.388Z</time></trkpt><trkpt lat="40.7386808" lon="-3.8432813"><ele>897.9999999999999</ele><time>2026-04-04T09:37:56.387Z</time></trkpt><trkpt lat="40.7386155" lon="-3.8433178"><ele>898.0</ele><time>2026-04-04T09:37:58.388Z</time></trkpt><trkpt lat="40.7385366" lon="-3.8434343"><ele>898.0</ele><time>2026-04-04T09:38:00.388Z</time></trkpt><trkpt lat="40.7384727" lon="-3.8435077"><ele>898.0</ele><time>2026-04-04T09:38:01.388Z</time></trkpt><trkpt lat="40.7384081" lon="-3.8435655"><ele>897.9999999999999</ele><time>2026-04-04T09:38:02.388Z</time></trkpt><trkpt lat="40.7383379" lon="-3.843625"><ele>898.0</ele><time>2026-04-04T09:38:03.388Z</time></trkpt><trkpt lat="40.7382581" lon="-3.8436948"><ele>898.4</ele><time>2026-04-04T09:38:04.388Z</time></trkpt><trkpt lat="40.7381678" lon="-3.843769"><ele>898.8</ele><time>2026-04-04T09:38:05.388Z</time></trkpt><trkpt lat="40.7380824" lon="-3.8438335"><ele>899.2</ele><time>2026-04-04T09:38:06.388Z</time></trkpt><trkpt lat="40.7379869" lon="-3.8438979"><ele>899.6</ele><time>2026-04-04T09:38:07.388Z</time></trkpt><trkpt lat="40.7378931" lon="-3.843971"><ele>900.0</ele><time>2026-04-04T09:38:08.388Z</time></trkpt><trkpt lat="40.7377965" lon="-3.8440502"><ele>900.0</ele><time>2026-04-04T09:38:09.388Z</time></trkpt><trkpt lat="40.7377104" lon="-3.8441254"><ele>900.0</ele><time>2026-04-04T09:38:10.388Z</time></trkpt><trkpt lat="40.7376323" lon="-3.844196"><ele>900.0</ele><time>2026-04-04T09:38:11.388Z</time></trkpt><trkpt lat="40.7375585" lon="-3.8442659"><ele>900.0</ele><time>2026-04-04T09:38:12.388Z</time></trkpt><trkpt lat="40.7374876" lon="-3.8443391"><ele>900.0</ele><time>2026-04-04T09:38:13.388Z</time></trkpt><trkpt lat="40.737424" lon="-3.8444097"><ele>900.0</ele><time>2026-04-04T09:38:14.388Z</time></trkpt><trkpt lat="40.7373603" lon="-3.8444849"><ele>900.0</ele><time>2026-04-04T09:38:15.387Z</time></trkpt><trkpt lat="40.7373111" lon="-3.8445644"><ele>900.0</ele><time>2026-04-04T09:38:16.388Z</time></trkpt><trkpt lat="40.7372616" lon="-3.8446385"><ele>900.0</ele><time>2026-04-04T09:38:17.388Z</time></trkpt><trkpt lat="40.7372088" lon="-3.8447164"><ele>900.0</ele><time>2026-04-04T09:38:18.388Z</time></trkpt><trkpt lat="40.7371544" lon="-3.8447873"><ele>900.0</ele><time>2026-04-04T09:38:19.388Z</time></trkpt><trkpt lat="40.7370992" lon="-3.8448452"><ele>900.0000000000001</ele><time>2026-04-04T09:38:20.387Z</time></trkpt><trkpt lat="40.7370403" lon="-3.8448957"><ele>900.0</ele><time>2026-04-04T09:38:21.387Z</time></trkpt><trkpt lat="40.7369938" lon="-3.844961"><ele>900.0000000000001</ele><time>2026-04-04T09:38:22.388Z</time></trkpt><trkpt lat="40.7369553" lon="-3.8450443"><ele>900.0000000000001</ele><time>2026-04-04T09:38:23.387Z</time></trkpt><trkpt lat="40.736922" lon="-3.8451303"><ele>900.0</ele><time>2026-04-04T09:38:24.388Z</time></trkpt><trkpt lat="40.7368818" lon="-3.8452157"><ele>900.0000000000001</ele><time>2026-04-04T09:38:25.388Z</time></trkpt><trkpt lat="40.7368321" lon="-3.8452997"><ele>900.0000000000001</ele><time>2026-04-04T09:38:26.388Z</time></trkpt><trkpt lat="40.7367814" lon="-3.845391"><ele>899.6</ele><time>2026-04-04T09:38:27.388Z</time></trkpt><trkpt lat="40.73672" lon="-3.8454846"><ele>899.2</ele><time>2026-04-04T09:38:28.388Z</time></trkpt><trkpt lat="40.7366468" lon="-3.8455744"><ele>898.8</ele><time>2026-04-04T09:38:29.387Z</time></trkpt><trkpt lat="40.7365716" lon="-3.8456703"><ele>898.4</ele><time>2026-04-04T09:38:30.388Z</time></trkpt><trkpt lat="40.7365031" lon="-3.8457686"><ele>898.0</ele><time>2026-04-04T09:38:31.387Z</time></trkpt><trkpt lat="40.7364439" lon="-3.8458656"><ele>898.8333333333333</ele><time>2026-04-04T09:38:32.388Z</time></trkpt><trkpt lat="40.7363991" lon="-3.8459633"><ele>899.6666666666666</ele><time>2026-04-04T09:38:33.388Z</time></trkpt><trkpt lat="40.7363686" lon="-3.8460628"><ele>900.5</ele><time>2026-04-04T09:38:34.388Z</time></trkpt><trkpt lat="40.7363305" lon="-3.8461637"><ele>901.3333333333333</ele><time>2026-04-04T09:38:35.388Z</time></trkpt><trkpt lat="40.7362841" lon="-3.8462466"><ele>902.1666666666666</ele><time>2026-04-04T09:38:36.388Z</time></trkpt><trkpt lat="40.736226" lon="-3.8463082"><ele>903.0</ele><time>2026-04-04T09:38:37.388Z</time></trkpt><trkpt lat="40.7361689" lon="-3.8463763"><ele>903.0</ele><time>2026-04-04T09:38:38.388Z</time></trkpt><trkpt lat="40.7361115" lon="-3.8464592"><ele>903.0</ele><time>2026-04-04T09:38:39.387Z</time></trkpt><trkpt lat="40.7360603" lon="-3.8465501"><ele>903.0</ele><time>2026-04-04T09:38:40.388Z</time></trkpt><trkpt lat="40.736013" lon="-3.8466383"><ele>903.0</ele><time>2026-04-04T09:38:41.388Z</time></trkpt><trkpt lat="40.7359638" lon="-3.8467203"><ele>903.0</ele><time>2026-04-04T09:38:42.388Z</time></trkpt><trkpt lat="40.7359177" lon="-3.8468037"><ele>903.0</ele><time>2026-04-04T09:38:43.387Z</time></trkpt><trkpt lat="40.735872" lon="-3.8468875"><ele>903.0</ele><time>2026-04-04T09:38:44.388Z</time></trkpt><trkpt lat="40.7358169" lon="-3.8469626"><ele>903.0</ele><time>2026-04-04T09:38:45.387Z</time></trkpt><trkpt lat="40.7357527" lon="-3.8470296"><ele>903.0</ele><time>2026-04-04T09:38:46.387Z</time></trkpt><trkpt lat="40.7356911" lon="-3.8470879"><ele>903.0</ele><time>2026-04-04T09:38:47.388Z</time></trkpt><trkpt lat="40.7356323" lon="-3.8471433"><ele>903.0</ele><time>2026-04-04T09:38:48.387Z</time></trkpt><trkpt lat="40.7355973" lon="-3.8472231"><ele>903.0</ele><time>2026-04-04T09:38:49.388Z</time></trkpt><trkpt lat="40.7355556" lon="-3.8473081"><ele>903.0</ele><time>2026-04-04T09:38:50.387Z</time></trkpt><trkpt lat="40.7355047" lon="-3.8473981"><ele>903.0</ele><time>2026-04-04T09:38:51.387Z</time></trkpt><trkpt lat="40.735463" lon="-3.8474927"><ele>903.0</ele><time>2026-04-04T09:38:52.388Z</time></trkpt><trkpt lat="40.7354186" lon="-3.8475952"><ele>903.0</ele><time>2026-04-04T09:38:53.388Z</time></trkpt><trkpt lat="40.7353737" lon="-3.8476936"><ele>903.0</ele><time>2026-04-04T09:38:54.388Z</time></trkpt><trkpt lat="40.7353283" lon="-3.8477841"><ele>903.0</ele><time>2026-04-04T09:38:55.388Z</time></trkpt><trkpt lat="40.7352842" lon="-3.8478633"><ele>902.1428571428571</ele><time>2026-04-04T09:38:56.387Z</time></trkpt><trkpt lat="40.7352441" lon="-3.8479436"><ele>901.2857142857142</ele><time>2026-04-04T09:38:57.388Z</time></trkpt><trkpt lat="40.7352086" lon="-3.8480275"><ele>900.4285714285714</ele><time>2026-04-04T09:38:58.388Z</time></trkpt><trkpt lat="40.7351717" lon="-3.8481141"><ele>899.5714285714286</ele><time>2026-04-04T09:38:59.387Z</time></trkpt><trkpt lat="40.7351249" lon="-3.848191"><ele>898.7142857142857</ele><time>2026-04-04T09:39:00.388Z</time></trkpt><trkpt lat="40.7350717" lon="-3.8482529"><ele>897.8571428571429</ele><time>2026-04-04T09:39:01.388Z</time></trkpt><trkpt lat="40.7350185" lon="-3.8483099"><ele>897.0</ele><time>2026-04-04T09:39:02.388Z</time></trkpt><trkpt lat="40.7349065" lon="-3.8483991"><ele>897.0</ele><time>2026-04-04T09:39:04.388Z</time></trkpt><trkpt lat="40.7348367" lon="-3.8484393"><ele>897.0</ele><time>2026-04-04T09:39:05.388Z</time></trkpt><trkpt lat="40.7347574" lon="-3.8484754"><ele>897.0</ele><time>2026-04-04T09:39:06.388Z</time></trkpt><trkpt lat="40.7346833" lon="-3.8484986"><ele>897.0</ele><time>2026-04-04T09:39:07.388Z</time></trkpt><trkpt lat="40.7346156" lon="-3.8485065"><ele>897.0</ele><time>2026-04-04T09:39:08.388Z</time></trkpt><trkpt lat="40.7345004" lon="-3.8485058"><ele>897.0</ele><time>2026-04-04T09:39:10.388Z</time></trkpt><trkpt lat="40.7343821" lon="-3.8484902"><ele>897.4000000000001</ele><time>2026-04-04T09:39:12.388Z</time></trkpt><trkpt lat="40.7342691" lon="-3.8485123"><ele>897.8000000000001</ele><time>2026-04-04T09:39:14.388Z</time></trkpt><trkpt lat="40.7341605" lon="-3.8486058"><ele>898.2</ele><time>2026-04-04T09:39:16.388Z</time></trkpt><trkpt lat="40.7341013" lon="-3.8486776"><ele>898.6</ele><time>2026-04-04T09:39:17.388Z</time></trkpt><trkpt lat="40.7340436" lon="-3.8487445"><ele>899.0</ele><time>2026-04-04T09:39:18.387Z</time></trkpt><trkpt lat="40.7339954" lon="-3.8488082"><ele>899.0</ele><time>2026-04-04T09:39:19.387Z</time></trkpt><trkpt lat="40.7339223" lon="-3.8489276"><ele>899.0000000000001</ele><time>2026-04-04T09:39:21.387Z</time></trkpt><trkpt lat="40.7338523" lon="-3.8490626"><ele>899.0000000000001</ele><time>2026-04-04T09:39:23.388Z</time></trkpt><trkpt lat="40.7337819" lon="-3.8491879"><ele>899.0</ele><time>2026-04-04T09:39:25.388Z</time></trkpt><trkpt lat="40.7337268" lon="-3.8492763"><ele>899.0</ele><time>2026-04-04T09:39:27.388Z</time></trkpt><trkpt lat="40.7336516" lon="-3.8493357"><ele>898.6</ele><time>2026-04-04T09:39:30.388Z</time></trkpt><trkpt lat="40.7335363" lon="-3.8493755"><ele>898.2</ele><time>2026-04-04T09:39:38.388Z</time></trkpt><trkpt lat="40.7334634" lon="-3.8493507"><ele>897.8000000000001</ele><time>2026-04-04T09:39:41.388Z</time></trkpt><trkpt lat="40.7333524" lon="-3.8492455"><ele>897.4000000000001</ele><time>2026-04-04T09:39:54.387Z</time></trkpt><trkpt lat="40.7332708" lon="-3.8492361"><ele>897.0</ele><time>2026-04-04T09:39:58.388Z</time></trkpt><trkpt lat="40.7331986" lon="-3.8492588"><ele>897.0</ele><time>2026-04-04T09:40:00.388Z</time></trkpt><trkpt lat="40.733135" lon="-3.8493069"><ele>897.0</ele><time>2026-04-04T09:40:02.388Z</time></trkpt><trkpt lat="40.7330587" lon="-3.8492805"><ele>897.0</ele><time>2026-04-04T09:40:06.387Z</time></trkpt><trkpt lat="40.7329916" lon="-3.8493107"><ele>897.0</ele><time>2026-04-04T09:41:51.388Z</time></trkpt><trkpt lat="40.7329323" lon="-3.8493623"><ele>897.0</ele><time>2026-04-04T09:41:57.388Z</time></trkpt><trkpt lat="40.73287" lon="-3.8494253"><ele>897.0</ele><time>2026-04-04T09:42:06.513Z</time></trkpt><trkpt lat="40.7328016" lon="-3.8494602"><ele>897.0</ele><time>2026-04-04T09:42:13.437Z</time></trkpt><trkpt lat="40.7327601" lon="-3.8495286"><ele>896.5714285714286</ele><time>2026-04-04T09:44:34.47Z</time></trkpt><trkpt lat="40.7327218" lon="-3.8496135"><ele>896.1428571428571</ele><time>2026-04-04T09:44:41.394Z</time></trkpt><trkpt lat="40.7326739" lon="-3.8496758"><ele>895.7142857142857</ele><time>2026-04-04T09:44:47.388Z</time></trkpt><trkpt lat="40.7326272" lon="-3.8497316"><ele>895.2857142857142</ele><time>2026-04-04T09:44:54.418Z</time></trkpt><trkpt lat="40.7325819" lon="-3.8498082"><ele>894.8571428571429</ele><time>2026-04-04T09:46:15.388Z</time></trkpt><trkpt lat="40.7325338" lon="-3.8498776"><ele>894.4285714285713</ele><time>2026-04-04T09:46:22.399Z</time></trkpt><trkpt lat="40.7325902" lon="-3.8498227"><ele>894.0</ele><time>2026-04-04T09:47:31.475Z</time></trkpt><trkpt lat="40.7326403" lon="-3.8497496"><ele>893.9999999999999</ele><time>2026-04-04T09:47:43.29Z</time></trkpt><trkpt lat="40.7326731" lon="-3.8496763"><ele>894.0</ele><time>2026-04-04T09:47:48.606Z</time></trkpt><trkpt lat="40.7326977" lon="-3.8495927"><ele>894.0</ele><time>2026-04-04T09:47:53.352Z</time></trkpt><trkpt lat="40.732737" lon="-3.8495121"><ele>894.0</ele><time>2026-04-04T09:47:58.329Z</time></trkpt><trkpt lat="40.7327983" lon="-3.849487"><ele>894.0</ele><time>2026-04-04T09:48:13.43Z</time></trkpt><trkpt lat="40.7328481" lon="-3.8494194"><ele>893.9999999999999</ele><time>2026-04-04T09:49:13.469Z</time></trkpt><trkpt lat="40.7329128" lon="-3.8493903"><ele>894.0</ele><time>2026-04-04T09:49:18.437Z</time></trkpt><trkpt lat="40.7329681" lon="-3.8493287"><ele>894.5</ele><time>2026-04-04T09:49:25.49Z</time></trkpt><trkpt lat="40.7330182" lon="-3.8492716"><ele>895.0</ele><time>2026-04-04T09:49:31.454Z</time></trkpt><trkpt lat="40.7330943" lon="-3.8492233"><ele>895.5</ele><time>2026-04-04T09:51:17.383Z</time></trkpt><trkpt lat="40.7331972" lon="-3.8492289"><ele>896.0</ele><time>2026-04-04T09:51:19.388Z</time></trkpt><trkpt lat="40.7332893" lon="-3.8492444"><ele>896.5</ele><time>2026-04-04T09:51:21.388Z</time></trkpt><trkpt lat="40.7333672" lon="-3.8492548"><ele>897.0</ele><time>2026-04-04T09:51:23.387Z</time></trkpt><trkpt lat="40.7334355" lon="-3.8492904"><ele>898.6666666666666</ele><time>2026-04-04T09:51:26.388Z</time></trkpt><trkpt lat="40.7334152" lon="-3.8493758"><ele>900.3333333333333</ele><time>2026-04-04T09:51:47.387Z</time></trkpt><trkpt lat="40.7333593" lon="-3.8494366"><ele>902.0</ele><time>2026-04-04T09:51:49.387Z</time></trkpt><trkpt lat="40.7332617" lon="-3.8495054"><ele>903.6666666666666</ele><time>2026-04-04T09:51:51.388Z</time></trkpt><trkpt lat="40.7332013" lon="-3.8495519"><ele>905.3333333333333</ele><time>2026-04-04T09:51:52.387Z</time></trkpt><trkpt lat="40.7331328" lon="-3.8495976"><ele>907.0</ele><time>2026-04-04T09:51:53.388Z</time></trkpt><trkpt lat="40.7330604" lon="-3.849645"><ele>907.0000000000001</ele><time>2026-04-04T09:51:54.388Z</time></trkpt><trkpt lat="40.7329865" lon="-3.8496852"><ele>907.0</ele><time>2026-04-04T09:51:55.388Z</time></trkpt><trkpt lat="40.7329149" lon="-3.8497231"><ele>907.0000000000001</ele><time>2026-04-04T09:51:56.388Z</time></trkpt><trkpt lat="40.732849" lon="-3.8497657"><ele>907.0000000000001</ele><time>2026-04-04T09:51:57.387Z</time></trkpt><trkpt lat="40.7327861" lon="-3.8498098"><ele>907.0</ele><time>2026-04-04T09:51:58.388Z</time></trkpt><trkpt lat="40.7327296" lon="-3.8498655"><ele>907.0000000000001</ele><time>2026-04-04T09:51:59.388Z</time></trkpt><trkpt lat="40.7326722" lon="-3.8499265"><ele>907.0000000000001</ele><time>2026-04-04T09:52:00.388Z</time></trkpt><trkpt lat="40.7326161" lon="-3.849983"><ele>906.1666666666666</ele><time>2026-04-04T09:52:01.387Z</time></trkpt><trkpt lat="40.7325644" lon="-3.8500349"><ele>905.3333333333333</ele><time>2026-04-04T09:52:02.388Z</time></trkpt><trkpt lat="40.7324795" lon="-3.8501616"><ele>904.5</ele><time>2026-04-04T09:52:04.387Z</time></trkpt><trkpt lat="40.7324402" lon="-3.8502494"><ele>903.6666666666667</ele><time>2026-04-04T09:52:05.388Z</time></trkpt><trkpt lat="40.7323935" lon="-3.8503354"><ele>902.8333333333334</ele><time>2026-04-04T09:52:06.387Z</time></trkpt><trkpt lat="40.7323417" lon="-3.8504286"><ele>902.0</ele><time>2026-04-04T09:52:07.388Z</time></trkpt><trkpt lat="40.732284" lon="-3.8505195"><ele>902.0000000000001</ele><time>2026-04-04T09:52:08.388Z</time></trkpt><trkpt lat="40.732241" lon="-3.8506016"><ele>902.0</ele><time>2026-04-04T09:52:09.387Z</time></trkpt><trkpt lat="40.7322168" lon="-3.8506824"><ele>902.0</ele><time>2026-04-04T09:52:10.388Z</time></trkpt><trkpt lat="40.7321678" lon="-3.8508415"><ele>902.0</ele><time>2026-04-04T09:52:12.388Z</time></trkpt><trkpt lat="40.7321214" lon="-3.8509184"><ele>902.0000000000001</ele><time>2026-04-04T09:52:13.387Z</time></trkpt><trkpt lat="40.7320651" lon="-3.8509912"><ele>902.0</ele><time>2026-04-04T09:52:14.388Z</time></trkpt><trkpt lat="40.732006" lon="-3.8510569"><ele>901.5000000000001</ele><time>2026-04-04T09:52:15.387Z</time></trkpt><trkpt lat="40.7319358" lon="-3.8511185"><ele>901.0</ele><time>2026-04-04T09:52:16.388Z</time></trkpt><trkpt lat="40.7318726" lon="-3.8511772"><ele>900.5</ele><time>2026-04-04T09:52:17.388Z</time></trkpt><trkpt lat="40.7318199" lon="-3.8512449"><ele>900.0</ele><time>2026-04-04T09:52:18.388Z</time></trkpt><trkpt lat="40.7317713" lon="-3.8513245"><ele>899.5000000000001</ele><time>2026-04-04T09:52:19.388Z</time></trkpt><trkpt lat="40.7317119" lon="-3.8514"><ele>899.0</ele><time>2026-04-04T09:52:20.387Z</time></trkpt><trkpt lat="40.7316549" lon="-3.8514646"><ele>899.0000000000001</ele><time>2026-04-04T09:52:21.387Z</time></trkpt><trkpt lat="40.7316011" lon="-3.8515156"><ele>899.0</ele><time>2026-04-04T09:52:22.388Z</time></trkpt><trkpt lat="40.7315452" lon="-3.8515636"><ele>899.0</ele><time>2026-04-04T09:52:23.388Z</time></trkpt><trkpt lat="40.7314522" lon="-3.8516659"><ele>899.0</ele><time>2026-04-04T09:52:25.388Z</time></trkpt><trkpt lat="40.7314018" lon="-3.8517214"><ele>899.0000000000001</ele><time>2026-04-04T09:52:26.388Z</time></trkpt><trkpt lat="40.7313435" lon="-3.8517895"><ele>899.0</ele><time>2026-04-04T09:52:27.388Z</time></trkpt><trkpt lat="40.7312832" lon="-3.8518643"><ele>898.6666666666667</ele><time>2026-04-04T09:52:28.388Z</time></trkpt><trkpt lat="40.7312237" lon="-3.8519419"><ele>898.3333333333334</ele><time>2026-04-04T09:52:29.388Z</time></trkpt><trkpt lat="40.7311586" lon="-3.8520263"><ele>898.0</ele><time>2026-04-04T09:52:30.388Z</time></trkpt><trkpt lat="40.7310944" lon="-3.8521141"><ele>897.6666666666667</ele><time>2026-04-04T09:52:31.388Z</time></trkpt><trkpt lat="40.7310331" lon="-3.8521982"><ele>897.3333333333334</ele><time>2026-04-04T09:52:32.387Z</time></trkpt><trkpt lat="40.7309806" lon="-3.8522749"><ele>897.0</ele><time>2026-04-04T09:52:33.388Z</time></trkpt><trkpt lat="40.730933" lon="-3.8523478"><ele>897.0</ele><time>2026-04-04T09:52:34.388Z</time></trkpt><trkpt lat="40.7308826" lon="-3.8524164"><ele>897.0</ele><time>2026-04-04T09:52:35.388Z</time></trkpt><trkpt lat="40.7308302" lon="-3.8524798"><ele>897.0</ele><time>2026-04-04T09:52:36.388Z</time></trkpt><trkpt lat="40.7307739" lon="-3.8525499"><ele>897.0</ele><time>2026-04-04T09:52:37.388Z</time></trkpt><trkpt lat="40.730719" lon="-3.8526236"><ele>897.0</ele><time>2026-04-04T09:52:38.387Z</time></trkpt><trkpt lat="40.7306626" lon="-3.8527046"><ele>897.0</ele><time>2026-04-04T09:52:39.388Z</time></trkpt><trkpt lat="40.7306085" lon="-3.852782"><ele>897.0</ele><time>2026-04-04T09:52:40.388Z</time></trkpt><trkpt lat="40.7305569" lon="-3.8528534"><ele>897.0</ele><time>2026-04-04T09:52:41.388Z</time></trkpt><trkpt lat="40.7305124" lon="-3.8529169"><ele>897.0</ele><time>2026-04-04T09:52:42.388Z</time></trkpt><trkpt lat="40.7304327" lon="-3.8530213"><ele>897.0</ele><time>2026-04-04T09:52:44.387Z</time></trkpt><trkpt lat="40.7303316" lon="-3.8530744"><ele>897.0</ele><time>2026-04-04T09:52:46.388Z</time></trkpt><trkpt lat="40.7302095" lon="-3.8531216"><ele>897.0</ele><time>2026-04-04T09:52:48.387Z</time></trkpt><trkpt lat="40.730155" lon="-3.8531765"><ele>897.0</ele><time>2026-04-04T09:52:49.388Z</time></trkpt><trkpt lat="40.7301158" lon="-3.8532445"><ele>897.0</ele><time>2026-04-04T09:52:50.387Z</time></trkpt><trkpt lat="40.7300762" lon="-3.8533153"><ele>897.0</ele><time>2026-04-04T09:52:51.388Z</time></trkpt><trkpt lat="40.7300349" lon="-3.8533847"><ele>897.0</ele><time>2026-04-04T09:52:52.387Z</time></trkpt><trkpt lat="40.7299573" lon="-3.8534963"><ele>897.0</ele><time>2026-04-04T09:52:54.388Z</time></trkpt><trkpt lat="40.7299051" lon="-3.8535799"><ele>898.1666666666666</ele><time>2026-04-04T09:52:56.388Z</time></trkpt><trkpt lat="40.7298612" lon="-3.8536497"><ele>899.3333333333333</ele><time>2026-04-04T09:52:58.388Z</time></trkpt><trkpt lat="40.7298133" lon="-3.8537181"><ele>900.5</ele><time>2026-04-04T09:53:00.387Z</time></trkpt><trkpt lat="40.7297583" lon="-3.8538268"><ele>901.6666666666666</ele><time>2026-04-04T09:53:02.388Z</time></trkpt><trkpt lat="40.7296779" lon="-3.8539664"><ele>902.8333333333333</ele><time>2026-04-04T09:53:04.387Z</time></trkpt><trkpt lat="40.7296287" lon="-3.8540329"><ele>904.0</ele><time>2026-04-04T09:53:05.387Z</time></trkpt><trkpt lat="40.7295864" lon="-3.8540962"><ele>903.9999999999999</ele><time>2026-04-04T09:53:06.388Z</time></trkpt><trkpt lat="40.7295397" lon="-3.8541655"><ele>904.0</ele><time>2026-04-04T09:53:07.387Z</time></trkpt><trkpt lat="40.729493" lon="-3.8542456"><ele>904.0</ele><time>2026-04-04T09:53:08.387Z</time></trkpt><trkpt lat="40.7294478" lon="-3.8543364"><ele>904.0</ele><time>2026-04-04T09:53:09.388Z</time></trkpt><trkpt lat="40.7294007" lon="-3.8544266"><ele>903.9999999999999</ele><time>2026-04-04T09:53:10.388Z</time></trkpt><trkpt lat="40.7293508" lon="-3.8545241"><ele>904.0</ele><time>2026-04-04T09:53:11.388Z</time></trkpt><trkpt lat="40.7293062" lon="-3.8546178"><ele>903.8333333333333</ele><time>2026-04-04T09:53:12.388Z</time></trkpt><trkpt lat="40.7292646" lon="-3.8547096"><ele>903.6666666666666</ele><time>2026-04-04T09:53:13.388Z</time></trkpt><trkpt lat="40.7292254" lon="-3.8547958"><ele>903.5</ele><time>2026-04-04T09:53:14.388Z</time></trkpt><trkpt lat="40.7291801" lon="-3.8548855"><ele>903.3333333333333</ele><time>2026-04-04T09:53:15.388Z</time></trkpt><trkpt lat="40.7291355" lon="-3.8549841"><ele>903.1666666666666</ele><time>2026-04-04T09:53:16.387Z</time></trkpt><trkpt lat="40.7290903" lon="-3.8550783"><ele>903.0</ele><time>2026-04-04T09:53:17.388Z</time></trkpt><trkpt lat="40.7290481" lon="-3.855161"><ele>903.0</ele><time>2026-04-04T09:53:18.387Z</time></trkpt><trkpt lat="40.7290114" lon="-3.8552422"><ele>903.0</ele><time>2026-04-04T09:53:19.388Z</time></trkpt><trkpt lat="40.7289784" lon="-3.8553268"><ele>903.0</ele><time>2026-04-04T09:53:20.387Z</time></trkpt><trkpt lat="40.728947" lon="-3.8554224"><ele>903.0</ele><time>2026-04-04T09:53:21.388Z</time></trkpt><trkpt lat="40.7289191" lon="-3.8555336"><ele>903.0</ele><time>2026-04-04T09:53:22.387Z</time></trkpt><trkpt lat="40.7289015" lon="-3.8556489"><ele>903.0</ele><time>2026-04-04T09:53:23.388Z</time></trkpt><trkpt lat="40.728891" lon="-3.8557541"><ele>903.0</ele><time>2026-04-04T09:53:24.388Z</time></trkpt><trkpt lat="40.7288687" lon="-3.8558406"><ele>903.0</ele><time>2026-04-04T09:53:25.388Z</time></trkpt><trkpt lat="40.7288238" lon="-3.8559585"><ele>903.0</ele><time>2026-04-04T09:53:27.388Z</time></trkpt><trkpt lat="40.7287821" lon="-3.8560582"><ele>903.0</ele><time>2026-04-04T09:53:29.387Z</time></trkpt><trkpt lat="40.7287487" lon="-3.8561454"><ele>903.0</ele><time>2026-04-04T09:53:31.388Z</time></trkpt><trkpt lat="40.7287132" lon="-3.8562417"><ele>903.0</ele><time>2026-04-04T09:53:33.387Z</time></trkpt><trkpt lat="40.728669" lon="-3.856374"><ele>902.5</ele><time>2026-04-04T09:53:35.388Z</time></trkpt><trkpt lat="40.7286378" lon="-3.8564634"><ele>902.0</ele><time>2026-04-04T09:53:36.388Z</time></trkpt><trkpt lat="40.7286008" lon="-3.8565618"><ele>901.5</ele><time>2026-04-04T09:53:37.387Z</time></trkpt><trkpt lat="40.7285655" lon="-3.8566561"><ele>901.0</ele><time>2026-04-04T09:53:38.388Z</time></trkpt><trkpt lat="40.7285373" lon="-3.8567452"><ele>900.5</ele><time>2026-04-04T09:53:39.388Z</time></trkpt><trkpt lat="40.7285029" lon="-3.8568229"><ele>900.0</ele><time>2026-04-04T09:53:40.388Z</time></trkpt><trkpt lat="40.7284389" lon="-3.8569497"><ele>900.0</ele><time>2026-04-04T09:53:42.387Z</time></trkpt><trkpt lat="40.7283898" lon="-3.8570404"><ele>900.0</ele><time>2026-04-04T09:53:44.387Z</time></trkpt><trkpt lat="40.7283629" lon="-3.8571449"><ele>900.0</ele><time>2026-04-04T09:53:46.388Z</time></trkpt><trkpt lat="40.7283363" lon="-3.8572666"><ele>900.0</ele><time>2026-04-04T09:53:48.388Z</time></trkpt><trkpt lat="40.7282948" lon="-3.857405"><ele>900.0</ele><time>2026-04-04T09:53:50.388Z</time></trkpt><trkpt lat="40.7283216" lon="-3.8575651"><ele>900.4</ele><time>2026-04-04T09:53:52.388Z</time></trkpt><trkpt lat="40.7283541" lon="-3.8576592"><ele>900.8</ele><time>2026-04-04T09:53:53.388Z</time></trkpt><trkpt lat="40.7283777" lon="-3.85775"><ele>901.2</ele><time>2026-04-04T09:53:54.388Z</time></trkpt><trkpt lat="40.7284036" lon="-3.8578301"><ele>901.6</ele><time>2026-04-04T09:53:55.388Z</time></trkpt><trkpt lat="40.7283851" lon="-3.8579942"><ele>902.0</ele><time>2026-04-04T09:53:57.388Z</time></trkpt><trkpt lat="40.728342" lon="-3.8581555"><ele>902.0000000000001</ele><time>2026-04-04T09:53:59.388Z</time></trkpt><trkpt lat="40.7283221" lon="-3.8582399"><ele>902.0</ele><time>2026-04-04T09:54:00.388Z</time></trkpt><trkpt lat="40.7282933" lon="-3.8583313"><ele>902.0</ele><time>2026-04-04T09:54:01.388Z</time></trkpt><trkpt lat="40.7282633" lon="-3.8584091"><ele>902.0</ele><time>2026-04-04T09:54:02.387Z</time></trkpt><trkpt lat="40.7282363" lon="-3.8584891"><ele>902.0000000000001</ele><time>2026-04-04T09:54:03.388Z</time></trkpt><trkpt lat="40.7281889" lon="-3.8586219"><ele>902.0</ele><time>2026-04-04T09:54:05.388Z</time></trkpt><trkpt lat="40.7281132" lon="-3.8586251"><ele>902.2</ele><time>2026-04-04T09:54:08.388Z</time></trkpt><trkpt lat="40.7280122" lon="-3.8585225"><ele>902.4000000000001</ele><time>2026-04-04T09:54:10.388Z</time></trkpt><trkpt lat="40.7279204" lon="-3.858508"><ele>902.5999999999999</ele><time>2026-04-04T09:54:12.387Z</time></trkpt><trkpt lat="40.7278792" lon="-3.8586206"><ele>902.8</ele><time>2026-04-04T09:54:15.387Z</time></trkpt><trkpt lat="40.7278715" lon="-3.8587333"><ele>903.0</ele><time>2026-04-04T09:54:17.388Z</time></trkpt><trkpt lat="40.7278448" lon="-3.8588514"><ele>903.0</ele><time>2026-04-04T09:54:19.388Z</time></trkpt><trkpt lat="40.7278032" lon="-3.8589523"><ele>903.0</ele><time>2026-04-04T09:54:21.388Z</time></trkpt><trkpt lat="40.7277845" lon="-3.8590737"><ele>903.0</ele><time>2026-04-04T09:54:23.387Z</time></trkpt><trkpt lat="40.727772" lon="-3.8591697"><ele>903.0</ele><time>2026-04-04T09:54:25.387Z</time></trkpt><trkpt lat="40.727773" lon="-3.8592793"><ele>903.0</ele><time>2026-04-04T09:54:28.388Z</time></trkpt><trkpt lat="40.7278877" lon="-3.8592412"><ele>903.0</ele><time>2026-04-04T09:54:52.387Z</time></trkpt><trkpt lat="40.7279294" lon="-3.8591668"><ele>903.0</ele><time>2026-04-04T09:54:54.388Z</time></trkpt><trkpt lat="40.7279962" lon="-3.8591008"><ele>903.0</ele><time>2026-04-04T09:54:56.388Z</time></trkpt><trkpt lat="40.7280385" lon="-3.8590301"><ele>903.0</ele><time>2026-04-04T09:54:58.388Z</time></trkpt><trkpt lat="40.7280831" lon="-3.8589644"><ele>903.0</ele><time>2026-04-04T09:55:00.388Z</time></trkpt><trkpt lat="40.72812" lon="-3.858866"><ele>903.0</ele><time>2026-04-04T09:55:03.388Z</time></trkpt><trkpt lat="40.7280961" lon="-3.8587882"><ele>903.0</ele><time>2026-04-04T10:01:42.389Z</time></trkpt><trkpt lat="40.7280869" lon="-3.8586872"><ele>903.0</ele><time>2026-04-04T10:05:07.389Z</time></trkpt><trkpt lat="40.7280405" lon="-3.8587503"><ele>903.0</ele><time>2026-04-04T10:05:15.388Z</time></trkpt><trkpt lat="40.7280069" lon="-3.8588341"><ele>903.0</ele><time>2026-04-04T10:05:19.389Z</time></trkpt><trkpt lat="40.7279626" lon="-3.8589152"><ele>903.0</ele><time>2026-04-04T10:05:22.389Z</time></trkpt><trkpt lat="40.7279973" lon="-3.8588246"><ele>903.0</ele><time>2026-04-04T10:05:32.387Z</time></trkpt></trkseg></trk></gpx>